GFSMW_850_dewp_000.txt.gz
Dewpoint
1 2 2 2 3 4 4 5 9 11 11 12 12 11 12 11 10 9 -3 -5 -3 -4 -4 -4 -3 -3 -4 -7 -9 -10 -11 -13 -15 -15 -15 -18 -20 -13 -7 -23 -21 -26 -24
2 2 2 3 4 5 6 6 10 11 11 11 12 12 11 9 4 -5 -4 -3 -3 -3 -2 -1 -1 -2 -4 -8 -10 -12 -14 -16 -18 -19 -17 -16 -19 -12 -22 -14 -24 -17 -21
2 2 3 5 6 7 9 9 11 11 12 12 12 11 8 -0 -5 -3 -3 -3 -3 -1 -0 -0 -1 -3 -6 -9 -13 -14 -17 -17 -18 -23 -19 -12 -9 -14 -14 -21 -16 -20 -21
3 4 6 7 8 9 11 11 12 12 12 11 10 8 3 -4 -3 -2 -3 -3 -1 0 0 -0 -2 -5 -9 -12 -15 -18 -19 -18 -20 -25 -22 -18 -15 -11 -12 -16 -22 -16 -21
2 4 6 8 9 9 10 11 10 11 10 6 5 0 -4 -4 -2 -3 -3 -1 -0 0 -0 -1 -3 -6 -10 -13 -16 -17 -18 -22 -25 -22 -19 -19 -18 -17 -13 -11 -13 -16 -20
3 5 7 9 9 10 10 10 10 8 6 3 -1 -4 -4 -3 -3 -2 -2 -1 -0 -1 -1 -3 -4 -8 -12 -13 -15 -19 -25 -26 -22 -19 -18 -18 -17 -17 -16 -13 -12 -12 -14
3 6 6 7 9 9 9 8 7 4 2 0 -3 -4 -3 -2 -2 -2 -1 -1 -1 -2 -3 -3 -6 -9 -12 -15 -20 -27 -26 -23 -20 -19 -19 -20 -20 -18 -16 -16 -17 -15 -13
4 5 5 5 4 5 4 3 3 3 3 1 -3 -3 -2 -2 -2 -1 -1 -1 -2 -2 -3 -4 -7 -11 -14 -21 -28 -27 -23 -20 -19 -21 -22 -22 -21 -19 -18 -17 -18 -14 -13
4 4 4 4 3 3 3 3 3 2 1 -2 -3 -2 -2 -2 -1 -1 -1 -1 -2 -2 -3 -4 -8 -13 -21 -28 -27 -22 -19 -20 -22 -23 -22 -21 -19 -18 -18 -17 -17 -12 -9
5 4 4 3 3 2 2 1 -0 -2 -2 -2 -2 -2 -2 -1 -1 -1 -1 -2 -2 -2 -3 -6 -11 -19 -27 -27 -20 -19 -20 -22 -22 -20 -19 -18 -16 -15 -17 -18 -17 -13 -11
4 4 4 3 1 0 -1 -1 -1 -2 -2 -2 -2 -2 -1 -1 -1 -1 -2 -2 -2 -3 -5 -9 -18 -26 -26 -19 -18 -20 -21 -20 -20 -19 -16 -14 -13 -14 -16 -14 -10 -9 -9
4 4 3 2 1 0 -0 -1 -1 -2 -2 -2 -2 -2 -1 -1 -1 -2 -2 -2 -2 -4 -9 -17 -25 -23 -17 -18 -20 -19 -19 -19 -19 -15 -12 -12 -12 -14 -14 -11 -9 -8 -8
4 4 4 2 2 1 1 0 -0 -1 -2 -2 -2 -2 -2 -2 -2 -2 -1 -2 -4 -8 -17 -24 -21 -16 -17 -19 -18 -18 -19 -19 -16 -12 -11 -12 -12 -13 -12 -10 -9 -7 -7
3 3 4 3 2 2 2 1 1 -1 -2 -2 -3 -3 -2 -3 -3 -1 -2 -3 -8 -15 -22 -19 -15 -16 -18 -17 -18 -19 -20 -17 -13 -12 -12 -12 -12 -12 -9 -9 -8 -9 -11
3 3 3 4 3 3 2 2 1 -0 -2 -3 -3 -4 -3 -3 -2 -2 -4 -7 -15 -21 -19 -15 -15 -16 -16 -16 -18 -18 -14 -13 -13 -13 -12 -11 -11 -10 -9 -9 -9 -8 -8
3 3 3 4 4 3 3 2 1 0 -1 -2 -4 -4 -4 -2 -2 -4 -6 -13 -19 -20 -15 -14 -14 -15 -15 -17 -19 -15 -13 -13 -12 -12 -11 -11 -11 -10 -9 -9 -9 -8 -8
3 3 3 4 4 3 2 1 1 -0 -1 -3 -4 -4 -3 -3 -5 -7 -12 -19 -20 -16 -14 -13 -14 -14 -16 -19 -19 -14 -12 -11 -11 -11 -11 -10 -10 -10 -11 -11 -8 -8 -8
3 3 3 4 3 3 2 1 -0 -2 -3 -4 -4 -3 -3 -5 -7 -11 -18 -21 -19 -14 -13 -13 -14 -16 -18 -19 -20 -16 -12 -12 -12 -11 -11 -10 -11 -13 -10 -9 -8 -8 -11
2 3 3 3 3 2 0 -1 -2 -2 -3 -4 -3 -3 -4 -6 -9 -17 -21 -21 -15 -14 -13 -13 -15 -18 -20 -19 -18 -10 -11 -11 -12 -12 -12 -11 -14 -10 -9 -8 -9 -10 -12
2 3 3 2 1 0 -1 -1 -2 -3 -4 -2 -3 -4 -6 -8 -16 -20 -23 -17 -15 -14 -13 -15 -18 -20 -20 -19 -16 -9 -9 -10 -11 -11 -10 -12 -10 -9 -9 -9 -10 -12 -12
2 2 2 1 0 -1 -1 -2 -3 -3 -2 -2 -4 -5 -7 -16 -19 -24 -20 -16 -14 -13 -14 -18 -21 -23 -19 -16 -13 -9 -9 -9 -9 -9 -10 -11 -9 -9 -10 -11 -12 -11 -10
1 1 0 -0 -1 -2 -2 -2 -3 -2 -2 -3 -5 -8 -15 -18 -23 -23 -18 -15 -13 -14 -18 -21 -23 -20 -17 -14 -13 -9 -9 -9 -9 -9 -11 -10 -9 -11 -11 -12 -11 -11 -11
-4 -3 -4 -3 -3 -3 -4 -3 -2 -2 -3 -5 -7 -13 -17 -22 -24 -19 -15 -13 -14 -18 -21 -21 -17 -16 -15 -14 -12 -9 -9 -10 -10 -10 -9 -10 -11 -12 -14 -13 -11 -11 -13
-6 -6 -6 -5 -5 -5 -4 -3 -2 -3 -5 -7 -12 -16 -22 -25 -19 -15 -13 -14 -18 -21 -21 -17 -14 -13 -13 -12 -10 -9 -11 -10 -9 -10 -10 -12 -14 -14 -13 -14 -13 -13 -12
-6 -5 -5 -5 -4 -4 -3 -3 -3 -5 -8 -12 -16 -21 -23 -20 -15 -13 -15 -17 -21 -21 -14 -13 -12 -11 -11 -10 -10 -10 -9 -10 -10 -10 -12 -15 -14 -15 -14 -13 -13 -13 -12
-5 -5 -4 -4 -4 -4 -3 -4 -6 -8 -12 -16 -20 -21 -18 -15 -13 -15 -17 -21 -22 -22 -21 -19 -13 -12 -11 -11 -10 -10 -10 -10 -11 -12 -14 -13 -13 -13 -13 -13 -13 -13 -13

GFSMW_850_dewp_003.txt.gz
Dewpoint
2 1 1 2 3 5 8 10 11 11 11 13 12 12 11 11 11 10 10 6 -5 -4 -3 -3 -1 -1 -3 -7 -9 -11 -12 -13 -14 -14 -15 -20 -18 -21 -12 -12 -21 -24 -25
2 1 2 1 2 3 5 8 10 11 13 13 12 11 11 11 10 9 -1 -4 -3 -3 -1 -0 -1 -2 -5 -9 -11 -13 -15 -16 -17 -18 -18 -20 -20 -17 -10 -21 -18 -23 -22
1 1 2 2 3 3 3 5 7 12 13 12 12 11 11 10 6 -4 -4 -3 -3 -0 0 0 -1 -2 -7 -10 -13 -15 -16 -17 -19 -22 -19 -18 -15 -19 -18 -22 -22 -24 -26
2 1 2 2 3 4 5 7 9 13 13 12 11 11 10 8 -1 -3 -3 -3 -1 0 0 -0 -1 -3 -7 -11 -12 -14 -16 -19 -22 -22 -21 -19 -17 -17 -15 -20 -25 -23 -25
2 1 1 2 4 6 7 9 12 13 12 12 12 11 10 3 -3 -3 -3 -2 0 0 -0 -1 -2 -4 -8 -11 -12 -15 -19 -24 -23 -20 -19 -20 -21 -20 -15 -15 -20 -25 -25
2 1 2 4 6 8 9 11 12 12 12 11 11 10 5 -3 -3 -2 -3 -1 -0 -0 -1 -2 -3 -4 -8 -11 -14 -20 -25 -24 -21 -19 -20 -20 -19 -18 -17 -15 -15 -15 -18
2 2 3 6 7 8 10 11 11 11 11 8 7 4 -3 -3 -3 -3 -2 -1 -0 -1 -2 -2 -3 -6 -9 -14 -20 -25 -26 -22 -20 -20 -22 -23 -21 -20 -19 -17 -17 -15 -16
2 2 4 6 8 9 10 10 11 10 8 6 2 -2 -3 -2 -2 -2 -2 -1 -1 -2 -3 -3 -4 -7 -13 -19 -25 -26 -22 -20 -21 -22 -22 -21 -19 -18 -16 -14 -14 -15 -14
3 3 6 7 8 9 9 9 10 9 6 2 -0 -2 -2 -1 -2 -2 -1 -1 -2 -3 -3 -3 -5 -10 -18 -24 -26 -22 -19 -21 -21 -20 -20 -20 -18 -17 -16 -17 -17 -13 -9
3 4 6 7 9 9 9 8 7 5 2 2 1 -2 -2 -2 -2 -2 -1 -2 -3 -3 -3 -4 -7 -15 -23 -25 -20 -19 -20 -20 -19 -20 -20 -19 -17 -16 -16 -16 -16 -13 -9
5 5 6 6 6 6 6 4 4 4 3 3 -0 -1 -2 -2 -2 -1 -2 -2 -3 -2 -3 -6 -12 -19 -23 -19 -18 -19 -19 -18 -19 -20 -18 -17 -15 -15 -15 -14 -15 -11 -9
5 5 5 4 4 3 3 3 2 2 1 -0 -1 -2 -2 -2 -2 -2 -2 -3 -2 -3 -5 -10 -17 -21 -17 -17 -18 -17 -17 -18 -19 -18 -17 -16 -14 -13 -12 -13 -13 -11 -9
4 4 4 4 3 3 2 1 0 -0 -1 -2 -2 -3 -2 -2 -2 -3 -3 -3 -3 -5 -10 -16 -19 -16 -16 -16 -16 -16 -17 -17 -17 -16 -15 -15 -13 -12 -11 -10 -10 -9 -8
4 4 4 3 2 1 0 -0 -1 -1 -2 -3 -3 -3 -3 -3 -3 -3 -2 -3 -5 -8 -14 -18 -16 -15 -15 -15 -15 -16 -16 -17 -17 -16 -14 -13 -11 -11 -9 -9 -9 -8 -9
4 4 3 3 2 1 1 0 -0 -1 -2 -2 -3 -4 -3 -3 -4 -3 -3 -4 -7 -13 -18 -16 -14 -14 -14 -14 -16 -16 -16 -17 -17 -15 -14 -13 -12 -10 -9 -9 -9 -10 -9
4 4 4 3 2 2 1 1 0 -0 -1 -3 -4 -4 -4 -4 -3 -3 -5 -6 -11 -18 -16 -14 -14 -14 -14 -15 -17 -17 -17 -17 -17 -17 -17 -15 -14 -14 -11 -10 -10 -9 -8
3 3 3 3 3 2 2 2 1 -0 -2 -3 -4 -5 -4 -3 -3 -5 -6 -11 -18 -18 -16 -15 -14 -13 -14 -18 -20 -16 -12 -16 -17 -15 -15 -14 -13 -13 -13 -12 -9 -8 -8
3 3 3 3 3 3 2 2 1 -0 -2 -3 -5 -5 -4 -3 -4 -6 -11 -17 -19 -18 -17 -16 -14 -14 -17 -20 -21 -13 -14 -14 -13 -13 -13 -12 -11 -12 -9 -8 -9 -11 -12
2 2 3 3 3 3 2 1 -0 -1 -3 -5 -5 -3 -3 -3 -6 -11 -16 -19 -21 -20 -18 -14 -14 -18 -21 -22 -22 -14 -13 -11 -11 -12 -11 -10 -9 -10 -8 -9 -10 -11 -13
2 2 3 3 3 2 1 0 -1 -3 -4 -5 -3 -2 -4 -7 -9 -14 -19 -22 -22 -19 -14 -14 -17 -21 -22 -22 -21 -11 -10 -9 -11 -9 -10 -11 -9 -9 -9 -10 -10 -11 -13
3 3 3 3 2 1 -1 -1 -3 -4 -4 -2 -3 -4 -6 -8 -14 -17 -23 -25 -20 -15 -14 -17 -21 -24 -22 -22 -20 -11 -9 -10 -8 -10 -10 -10 -10 -10 -10 -11 -11 -11 -10
2 2 2 1 -1 -1 -2 -2 -3 -3 -2 -3 -4 -6 -9 -13 -16 -23 -28 -19 -14 -14 -18 -22 -24 -24 -23 -21 -16 -9 -9 -9 -10 -9 -10 -10 -10 -10 -11 -12 -11 -10 -11
0 0 0 -1 -2 -3 -3 -2 -3 -2 -3 -4 -6 -8 -12 -16 -23 -26 -19 -14 -14 -19 -22 -23 -22 -22 -21 -18 -14 -11 -10 -10 -9 -10 -10 -11 -11 -13 -15 -13 -11 -12 -13
-2 -2 -3 -4 -4 -4 -5 -4 -2 -3 -4 -6 -7 -11 -16 -22 -23 -17 -14 -15 -19 -22 -23 -22 -20 -19 -18 -15 -11 -10 -11 -10 -10 -10 -10 -12 -15 -16 -14 -14 -13 -13 -12
-7 -7 -7 -6 -6 -5 -4 -3 -3 -4 -6 -7 -11 -16 -21 -20 -15 -13 -16 -19 -21 -22 -20 -18 -16 -15 -13 -11 -10 -10 -9 -10 -10 -11 -12 -15 -15 -15 -14 -13 -13 -13 -12
-7 -6 -6 -5 -5 -4 -4 -3 -5 -7 -8 -12 -17 -20 -18 -14 -13 -16 -19 -22 -24 -25 -23 -22 -19 -17 -12 -11 -10 -10 -10 -11 -11 -12 -15 -15 -15 -14 -13 -12 -12 -12 -12

GFSMW_850_dewp_006.txt.gz
Dewpoint
4 3 2 2 2 2 2 2 5 11 12 13 13 13 12 12 12 12 11 10 8 -5 -3 -3 -1 -1 -3 -8 -11 -12 -12 -12 -12 -13 -15 -19 -19 -18 -20 -13 -9 -20 -19
3 3 3 2 2 3 2 4 8 12 12 13 13 12 11 11 11 11 9 5 -4 -3 -2 -0 -0 -1 -4 -7 -11 -12 -12 -12 -14 -18 -19 -20 -20 -18 -16 -22 -20 -23 -24
3 3 3 2 2 4 2 5 9 13 12 13 13 12 10 10 10 9 6 -4 -3 -2 0 0 -0 -1 -3 -5 -9 -11 -12 -14 -19 -22 -20 -19 -18 -19 -20 -22 -22 -23 -24
2 3 3 2 2 2 4 5 8 12 13 12 12 11 9 10 9 5 -3 -3 -3 0 0 -0 -1 -1 -2 -4 -8 -11 -14 -19 -22 -22 -21 -19 -19 -19 -18 -20 -22 -22 -23
1 2 2 2 1 3 4 4 6 10 11 11 12 10 10 9 8 -1 -3 -3 -1 0 -0 -1 -1 -1 -2 -4 -8 -13 -18 -23 -22 -21 -20 -21 -22 -22 -17 -19 -21 -22 -22
2 2 2 2 2 4 4 6 8 10 11 12 11 10 9 9 4 -3 -3 -3 -1 -0 -0 -2 -2 -2 -3 -5 -9 -16 -22 -24 -22 -20 -21 -21 -21 -20 -18 -16 -17 -16 -18
2 2 2 2 2 4 6 8 9 11 12 12 11 11 10 9 1 -3 -3 -2 -1 -1 -2 -2 -2 -2 -4 -7 -13 -19 -24 -23 -20 -21 -21 -21 -19 -19 -18 -16 -16 -16 -19
1 2 2 2 2 4 8 9 12 12 11 12 11 10 9 4 -3 -3 -3 -2 -1 -2 -3 -2 -2 -3 -5 -10 -16 -22 -22 -19 -20 -20 -19 -19 -19 -18 -16 -15 -15 -16 -15
1 1 2 3 4 5 8 10 12 12 11 10 8 7 2 -3 -2 -2 -3 -3 -3 -3 -3 -3 -3 -4 -8 -13 -19 -21 -19 -19 -19 -18 -18 -19 -18 -18 -17 -16 -15 -14 -11
1 1 2 4 6 8 10 11 11 11 10 7 5 1 -3 -2 -2 -3 -4 -3 -3 -3 -3 -3 -3 -7 -12 -18 -19 -18 -18 -18 -17 -17 -17 -18 -18 -17 -16 -15 -14 -13 -13
1 2 3 4 7 9 10 11 11 11 8 5 1 -1 -2 -2 -2 -4 -3 -3 -3 -3 -3 -3 -5 -10 -15 -18 -17 -17 -16 -15 -15 -16 -17 -17 -17 -17 -15 -13 -12 -11 -11
3 4 5 7 8 9 10 10 10 8 7 2 1 -0 -1 -2 -3 -3 -3 -3 -3 -3 -2 -4 -8 -14 -17 -16 -15 -15 -14 -14 -15 -16 -17 -18 -16 -15 -14 -11 -10 -9 -10
5 5 5 8 8 8 8 7 6 5 3 2 1 -1 -2 -3 -3 -3 -3 -3 -3 -2 -3 -6 -12 -16 -16 -15 -14 -14 -14 -15 -16 -17 -18 -17 -17 -15 -13 -11 -10 -9 -8
5 4 5 7 7 6 5 5 4 3 2 1 -1 -2 -3 -3 -3 -3 -4 -3 -3 -3 -6 -11 -16 -16 -15 -14 -14 -14 -15 -16 -18 -18 -20 -20 -18 -16 -11 -10 -9 -9 -10
4 4 5 4 4 3 2 1 1 -0 -1 -2 -3 -4 -4 -4 -4 -4 -4 -3 -4 -6 -11 -15 -16 -15 -15 -15 -14 -16 -17 -17 -16 -18 -19 -17 -16 -14 -10 -9 -10 -10 -9
4 4 4 3 3 2 1 0 -1 -2 -2 -3 -4 -4 -4 -4 -5 -4 -4 -4 -7 -11 -15 -17 -17 -17 -16 -14 -15 -18 -15 -15 -16 -16 -14 -14 -13 -13 -12 -13 -9 -8 -8
4 4 3 3 2 1 0 -0 -1 -1 -2 -3 -4 -5 -5 -5 -5 -4 -5 -7 -10 -14 -17 -19 -19 -18 -14 -15 -19 -22 -16 -14 -14 -13 -12 -12 -12 -13 -12 -11 -9 -8 -10
4 4 3 3 2 1 1 0 -0 -1 -2 -4 -5 -6 -6 -5 -4 -5 -7 -9 -13 -17 -20 -22 -19 -15 -14 -19 -23 -23 -18 -13 -11 -11 -11 -10 -12 -11 -9 -8 -8 -11 -12
3 4 4 3 2 2 1 1 0 -1 -3 -5 -6 -6 -5 -4 -5 -7 -8 -11 -16 -21 -25 -21 -15 -15 -19 -23 -25 -23 -12 -10 -10 -11 -10 -11 -10 -10 -8 -9 -9 -10 -13
3 3 3 3 3 2 2 1 -1 -2 -4 -5 -6 -5 -4 -5 -6 -8 -11 -16 -21 -27 -21 -15 -15 -20 -23 -25 -23 -13 -9 -9 -10 -9 -10 -11 -9 -9 -9 -9 -10 -11 -13
3 3 3 3 3 2 1 -0 -2 -4 -5 -5 -4 -4 -5 -6 -7 -11 -15 -22 -27 -20 -14 -16 -21 -25 -25 -24 -21 -13 -9 -10 -9 -10 -10 -11 -10 -9 -10 -11 -11 -12 -10
2 3 3 2 1 1 -0 -2 -3 -5 -5 -4 -4 -4 -5 -7 -11 -15 -22 -24 -17 -14 -17 -22 -26 -27 -25 -22 -19 -12 -9 -9 -10 -10 -11 -10 -10 -10 -11 -12 -11 -11 -11
2 2 2 1 -1 -2 -2 -2 -4 -4 -4 -4 -4 -6 -7 -11 -15 -22 -20 -14 -14 -18 -23 -25 -25 -24 -23 -21 -17 -12 -11 -10 -9 -10 -10 -12 -11 -15 -16 -14 -12 -12 -13
1 1 0 -1 -3 -4 -4 -3 -4 -4 -4 -4 -5 -7 -10 -16 -21 -17 -13 -14 -19 -23 -25 -23 -21 -21 -19 -17 -12 -11 -11 -10 -10 -10 -11 -13 -15 -16 -14 -13 -13 -13 -12
-1 -1 -1 -3 -4 -5 -5 -4 -3 -3 -4 -6 -7 -11 -18 -19 -15 -13 -14 -19 -23 -24 -21 -22 -20 -16 -14 -12 -10 -11 -10 -11 -11 -11 -13 -15 -16 -15 -13 -13 -12 -12 -12
-4 -4 -5 -6 -6 -5 -4 -3 -3 -5 -6 -8 -12 -18 -18 -14 -12 -14 -19 -23 -25 -25 -24 -23 -20 -18 -15 -11 -11 -10 -11 -11 -11 -13 -15 -15 -16 -14 -12 -12 -12 -12 -11

GFSMW_850_dewp_009.txt.gz
Dewpoint
3 3 3 3 3 2 2 2 2 3 5 10 13 13 12 13 12 11 11 11 10 9 -4 -3 -1 -1 -3 -5 -7 -11 -12 -14 -15 -16 -18 -19 -20 -18 -15 -14 -15 -21 -15
2 2 2 2 3 3 2 2 4 5 7 10 12 12 12 12 12 11 11 10 8 -2 -3 -1 0 -1 -1 -3 -4 -7 -10 -13 -15 -17 -19 -19 -20 -16 -20 -21 -22 -22 -22
-1 0 1 2 3 3 2 4 5 7 10 10 12 12 12 12 11 11 10 7 1 -3 -2 0 0 -0 -1 -1 -2 -5 -9 -13 -17 -19 -20 -18 -16 -21 -21 -21 -20 -19 -20
-1 -2 -0 0 3 2 3 5 8 9 9 11 12 11 11 11 10 9 8 6 -3 -2 0 0 -0 -1 -1 -1 -2 -5 -8 -14 -18 -20 -21 -21 -21 -18 -15 -18 -18 -19 -19
-1 -2 -3 -1 2 3 3 5 8 9 12 13 12 12 10 10 9 8 8 -3 -3 -1 -0 -0 -1 -1 -1 -1 -3 -5 -10 -16 -20 -21 -20 -21 -21 -20 -18 -16 -17 -17 -17
1 0 1 -0 2 3 4 5 6 10 13 11 11 12 10 9 8 7 -1 -3 -2 -1 -0 -1 -2 -1 -1 -2 -3 -7 -12 -18 -20 -20 -20 -20 -19 -19 -18 -13 -13 -13 -14
-1 0 2 2 2 2 3 5 5 8 12 11 10 11 10 9 8 6 -3 -3 -2 -1 -1 -2 -2 -2 -2 -2 -4 -9 -15 -19 -19 -19 -19 -18 -18 -18 -18 -17 -14 -12 -13
-4 0 1 2 2 2 3 4 5 7 12 11 12 10 9 9 8 2 -3 -3 -2 -1 -1 -2 -2 -2 -2 -3 -6 -12 -17 -18 -18 -18 -17 -17 -17 -17 -17 -16 -14 -13 -13
-3 -3 -0 2 2 2 3 4 7 9 10 11 11 10 9 9 5 -3 -3 -3 -3 -2 -2 -3 -2 -2 -3 -5 -9 -15 -17 -17 -17 -16 -15 -15 -16 -16 -16 -16 -16 -13 -12
-1 -4 -1 2 3 3 4 7 9 9 10 11 10 10 10 6 -2 -3 -3 -4 -3 -3 -3 -3 -3 -3 -4 -7 -12 -16 -16 -16 -15 -14 -14 -15 -16 -17 -17 -17 -16 -14 -11
1 -0 -2 2 4 5 7 9 10 11 10 10 10 9 5 -2 -3 -3 -3 -4 -3 -3 -3 -3 -3 -4 -7 -11 -14 -15 -15 -14 -14 -14 -15 -16 -18 -19 -20 -18 -15 -13 -11
2 2 1 2 5 8 9 11 11 11 10 10 7 4 -2 -2 -2 -3 -4 -4 -4 -4 -3 -3 -4 -6 -10 -14 -15 -14 -14 -14 -14 -15 -17 -19 -21 -23 -22 -19 -16 -13 -11
4 4 4 5 6 9 10 11 11 10 9 6 3 -1 -2 -2 -2 -4 -4 -4 -4 -4 -3 -4 -6 -9 -13 -15 -15 -15 -15 -14 -15 -17 -19 -21 -21 -20 -18 -17 -13 -10 -9
4 4 5 6 8 10 11 11 10 9 7 3 0 -0 -2 -3 -4 -4 -4 -4 -4 -3 -4 -6 -8 -11 -15 -16 -16 -15 -14 -15 -18 -20 -19 -19 -17 -16 -14 -10 -9 -9 -9
4 4 5 7 8 9 10 9 8 6 4 1 -0 -2 -3 -4 -4 -4 -5 -4 -4 -4 -6 -8 -11 -15 -18 -19 -17 -14 -16 -19 -21 -20 -18 -16 -14 -13 -10 -9 -9 -9 -9
4 3 5 6 7 7 7 6 5 3 2 0 -2 -3 -4 -5 -5 -5 -5 -4 -5 -6 -8 -11 -15 -19 -21 -17 -14 -17 -21 -22 -18 -17 -17 -14 -12 -11 -10 -10 -9 -8 -8
4 4 5 5 6 5 4 3 2 0 -2 -3 -4 -5 -5 -5 -6 -5 -5 -5 -6 -7 -10 -15 -20 -23 -17 -14 -17 -22 -24 -21 -19 -16 -13 -11 -10 -12 -11 -11 -9 -8 -9
4 4 4 3 2 1 1 0 -1 -3 -4 -4 -5 -6 -6 -6 -5 -5 -5 -5 -7 -11 -16 -21 -24 -17 -14 -18 -23 -25 -25 -21 -15 -12 -11 -10 -11 -10 -9 -8 -8 -9 -11
4 4 3 2 1 1 -1 -1 -3 -3 -5 -5 -6 -6 -6 -6 -5 -5 -5 -7 -11 -15 -22 -23 -15 -15 -20 -24 -26 -25 -22 -14 -11 -12 -10 -10 -9 -9 -9 -9 -10 -10 -11
4 4 3 2 1 -0 -1 -1 -3 -4 -5 -6 -6 -6 -6 -5 -4 -5 -7 -10 -14 -24 -21 -14 -16 -22 -25 -26 -26 -22 -12 -10 -10 -9 -9 -10 -9 -10 -9 -10 -10 -10 -13
4 4 3 1 0 -0 -1 -2 -3 -5 -5 -6 -6 -5 -5 -4 -5 -7 -10 -16 -23 -17 -14 -17 -23 -26 -26 -26 -25 -22 -10 -9 -9 -9 -9 -10 -10 -9 -10 -11 -11 -12 -10
3 3 2 1 -0 -1 -2 -2 -4 -5 -6 -6 -5 -4 -4 -5 -7 -11 -18 -21 -15 -14 -18 -24 -27 -27 -27 -25 -23 -15 -9 -9 -9 -9 -10 -10 -10 -11 -11 -13 -12 -11 -11
2 2 2 0 -2 -3 -2 -2 -4 -5 -5 -4 -3 -4 -5 -8 -12 -20 -18 -13 -14 -20 -25 -27 -26 -26 -26 -24 -19 -13 -10 -10 -10 -11 -10 -10 -11 -16 -17 -14 -13 -13 -12
1 0 -0 -2 -3 -4 -3 -3 -4 -4 -3 -3 -4 -6 -9 -14 -20 -16 -13 -15 -20 -25 -26 -26 -25 -25 -22 -20 -13 -11 -11 -10 -11 -11 -11 -14 -16 -17 -14 -13 -13 -12 -12
-1 -1 -1 -2 -3 -4 -4 -4 -4 -4 -4 -5 -7 -10 -16 -19 -14 -12 -15 -20 -25 -26 -25 -24 -23 -20 -17 -14 -10 -11 -10 -11 -11 -11 -14 -16 -17 -15 -13 -13 -12 -12 -11
-2 -2 -2 -3 -4 -4 -4 -4 -4 -5 -6 -7 -11 -17 -17 -14 -12 -14 -19 -24 -26 -25 -24 -24 -22 -22 -19 -13 -11 -10 -11 -11 -12 -13 -15 -16 -16 -13 -12 -12 -12 -11 -11

GFSMW_850_dewp_012.txt.gz
Dewpoint
3 3 4 4 4 3 2 2 2 2 5 10 10 12 13 12 12 12 11 11 10 9 9 2 -3 -1 -2 -2 -3 -4 -6 -9 -14 -16 -12 -15 -19 -15 -6 -14 -18 -19 -21
0 2 3 3 3 3 3 3 2 2 5 5 10 9 11 13 12 12 12 11 10 9 7 -4 -1 -0 -1 -1 -1 -2 -4 -7 -13 -17 -13 -11 -11 -11 -15 -17 -20 -19 -20
-2 -0 0 2 3 3 3 3 2 3 6 8 11 11 12 12 12 12 11 10 9 6 -3 -2 0 -0 -0 -0 -0 -1 -3 -8 -13 -17 -17 -13 -13 -14 -15 -14 -17 -17 -17
-3 -2 -0 -0 1 2 2 3 3 4 7 10 10 10 10 12 12 12 11 10 5 -2 -3 -0 -0 -0 -0 -0 -0 -1 -3 -7 -14 -15 -19 -20 -19 -14 -14 -13 -13 -14 -13
-4 -2 -2 -1 1 -0 1 3 4 6 7 8 11 12 11 12 11 11 10 7 1 -3 -2 -0 -0 -0 -0 -0 -1 -2 -4 -8 -14 -17 -19 -19 -15 -12 -11 -12 -12 -12 -11
-2 -2 1 0 1 2 0 3 5 8 9 10 12 13 11 10 11 10 8 3 1 -2 -1 -1 -1 -1 -1 -1 -1 -2 -5 -10 -15 -18 -18 -18 -14 -13 -12 -12 -12 -11 -11
-3 -2 -0 2 3 3 1 4 6 7 9 12 13 12 12 11 10 8 6 6 -2 -2 -1 -1 -2 -2 -1 -2 -2 -3 -7 -12 -16 -17 -17 -16 -15 -14 -12 -11 -11 -11 -11
-0 -3 -1 2 4 4 2 4 6 7 10 12 13 13 12 11 9 8 7 2 -3 -2 -1 -1 -2 -2 -2 -2 -3 -5 -9 -14 -16 -16 -16 -15 -14 -13 -13 -11 -11 -11 -12
1 1 -0 2 5 5 2 4 7 8 11 11 12 12 11 9 8 8 4 -3 -3 -2 -2 -2 -3 -3 -3 -3 -4 -7 -12 -15 -15 -15 -14 -13 -13 -14 -13 -11 -11 -11 -12
-0 1 1 3 5 7 5 8 8 8 10 11 11 11 10 9 8 6 1 -3 -3 -3 -3 -4 -4 -3 -3 -4 -6 -10 -13 -15 -14 -14 -14 -14 -14 -15 -15 -12 -11 -11 -11
1 2 2 3 6 7 8 8 7 7 9 11 11 11 9 8 7 2 -3 -3 -4 -4 -4 -4 -4 -4 -4 -5 -9 -12 -15 -15 -15 -14 -14 -15 -17 -18 -14 -12 -12 -11 -11
2 3 3 5 7 8 8 8 7 8 10 11 11 10 10 8 3 -3 -4 -4 -5 -5 -5 -4 -4 -4 -5 -8 -11 -14 -16 -16 -15 -14 -15 -17 -16 -18 -14 -12 -12 -11 -10
3 3 5 5 7 7 7 7 9 10 10 11 10 8 6 3 -3 -4 -4 -5 -5 -5 -5 -4 -4 -5 -7 -11 -14 -17 -18 -16 -14 -15 -17 -17 -17 -15 -13 -12 -10 -9 -9
3 4 4 5 6 7 6 9 10 10 10 9 7 7 3 -3 -4 -4 -5 -6 -6 -5 -5 -4 -5 -7 -10 -15 -18 -19 -16 -13 -14 -16 -16 -14 -14 -11 -10 -9 -9 -10 -9
3 4 4 4 5 4 8 10 10 9 9 7 5 1 -2 -3 -3 -5 -6 -6 -5 -5 -5 -6 -7 -10 -15 -19 -20 -15 -14 -13 -12 -13 -11 -11 -12 -15 -11 -8 -9 -9 -9
3 4 3 3 3 7 9 10 9 8 5 3 -0 -2 -2 -4 -5 -6 -6 -5 -5 -5 -6 -7 -10 -15 -21 -21 -15 -15 -19 -15 -11 -11 -12 -11 -9 -9 -8 -9 -9 -9 -8
4 3 2 2 5 7 9 8 6 4 1 -0 -1 -2 -4 -5 -6 -6 -6 -5 -5 -6 -7 -11 -15 -22 -20 -15 -16 -21 -26 -14 -13 -11 -10 -9 -10 -9 -9 -9 -9 -9 -8
4 3 1 2 4 6 6 6 3 0 -0 -2 -4 -5 -6 -6 -6 -6 -6 -5 -6 -7 -12 -16 -23 -18 -14 -17 -24 -27 -24 -15 -10 -9 -9 -9 -9 -9 -9 -9 -9 -8 -10
3 2 4 4 4 4 3 2 0 -1 -3 -4 -5 -6 -6 -6 -6 -6 -5 -6 -8 -12 -18 -22 -15 -14 -20 -26 -27 -27 -21 -11 -10 -10 -10 -9 -9 -9 -9 -9 -9 -10 -11
3 4 3 3 2 1 0 -1 -3 -5 -6 -6 -6 -7 -7 -6 -5 -5 -6 -9 -13 -20 -19 -14 -16 -21 -27 -27 -27 -27 -13 -10 -10 -10 -10 -10 -9 -10 -9 -9 -10 -11 -11
3 2 1 -0 -1 -2 -3 -4 -6 -6 -6 -6 -6 -6 -6 -5 -5 -7 -10 -14 -21 -15 -14 -17 -23 -27 -26 -26 -27 -25 -12 -10 -10 -10 -10 -10 -10 -9 -10 -10 -11 -11 -10
2 1 1 -1 -2 -3 -4 -4 -5 -6 -6 -6 -6 -5 -5 -6 -7 -10 -17 -19 -14 -14 -18 -25 -26 -24 -25 -25 -26 -22 -10 -9 -9 -9 -10 -10 -10 -10 -11 -11 -11 -10 -11
0 0 0 -2 -4 -5 -3 -3 -5 -6 -6 -5 -5 -5 -6 -8 -12 -19 -16 -13 -14 -19 -26 -26 -25 -23 -23 -23 -20 -12 -10 -10 -9 -10 -10 -10 -10 -13 -16 -13 -12 -11 -11
-0 -1 -1 -2 -4 -5 -5 -4 -5 -6 -5 -4 -5 -7 -9 -14 -18 -14 -13 -15 -20 -25 -25 -22 -21 -18 -16 -13 -12 -11 -10 -9 -10 -10 -10 -11 -13 -12 -12 -12 -11 -11 -11
-1 -1 -2 -3 -4 -5 -5 -5 -5 -4 -5 -5 -7 -10 -15 -17 -14 -12 -14 -19 -24 -26 -25 -24 -23 -15 -14 -13 -11 -10 -10 -10 -10 -11 -11 -13 -13 -13 -12 -11 -11 -11 -11
-2 -2 -3 -3 -5 -5 -5 -5 -5 -6 -5 -7 -10 -17 -16 -14 -12 -14 -18 -24 -25 -25 -25 -25 -25 -23 -18 -13 -11 -11 -10 -11 -11 -12 -13 -13 -12 -12 -12 -12 -11 -11 -10

GFSMW_850_dewp_015.txt.gz
Dewpoint
-1 1 2 1 -0 1 2 3 3 6 7 11 13 13 13 13 13 13 11 10 10 10 9 9 8 -4 -1 -1 -1 -1 -2 -4 -7 -12 -12 -8 -13 -9 -4 -4 -12 -11 -13
-2 -1 0 2 3 3 4 4 5 7 9 11 10 12 13 13 13 12 11 11 11 10 9 8 -3 -2 -1 -0 -0 -0 -1 -2 -5 -11 -10 -9 -10 -9 -10 -10 -11 -12 -15
-4 -3 -2 -0 2 3 3 4 6 9 11 10 12 13 13 12 13 12 11 11 11 10 8 3 -3 -0 -0 0 0 0 -1 -3 -5 -10 -15 -11 -10 -13 -13 -13 -12 -12 -12
-5 -5 -5 -3 -1 2 3 4 7 10 11 12 11 10 8 11 12 12 11 12 11 9 5 -3 -1 -0 -0 0 0 -0 -0 -2 -6 -10 -13 -17 -17 -12 -12 -12 -11 -11 -12
-5 -5 -4 -4 -3 -0 2 5 8 10 11 11 12 11 10 11 12 12 12 11 9 7 1 -2 -1 -0 -0 -0 -0 -0 -1 -2 -6 -11 -15 -16 -13 -11 -10 -10 -11 -11 -11
-6 -4 -4 -3 -2 -1 2 3 9 10 11 11 12 10 10 10 11 11 11 10 9 2 -2 -2 -1 -1 -1 -1 -1 -1 -1 -3 -6 -11 -15 -16 -15 -13 -10 -10 -11 -11 -11
-4 -4 -3 -2 -0 -0 1 5 10 11 11 12 10 9 10 11 10 10 11 10 7 0 -2 -2 -1 -1 -1 -1 -1 -1 -2 -4 -9 -13 -15 -16 -14 -12 -11 -10 -10 -10 -11
-1 0 1 -3 -0 2 2 7 10 10 11 10 10 11 10 11 10 10 10 10 5 1 -2 -2 -1 -2 -2 -2 -2 -2 -3 -6 -10 -13 -15 -14 -13 -12 -11 -10 -10 -10 -10
-1 -0 1 0 -1 2 4 7 10 11 10 10 10 10 11 11 11 10 10 5 0 0 -3 -2 -2 -2 -2 -2 -2 -3 -5 -8 -12 -14 -13 -13 -13 -12 -12 -11 -11 -10 -9
-2 -1 1 2 0 3 5 8 9 10 10 9 10 11 11 11 10 10 5 0 2 -2 -3 -2 -3 -3 -3 -3 -3 -4 -7 -11 -13 -13 -14 -14 -13 -13 -13 -13 -11 -11 -11
-1 1 2 2 1 4 7 8 9 9 9 9 11 11 11 10 9 6 3 3 -1 -3 -3 -3 -4 -4 -3 -3 -4 -7 -10 -13 -14 -14 -14 -14 -13 -14 -14 -15 -13 -12 -11
-1 1 3 3 3 6 7 8 9 9 7 6 10 11 10 9 7 3 2 -0 -4 -4 -4 -4 -4 -4 -4 -4 -6 -10 -13 -15 -16 -15 -13 -12 -11 -13 -14 -13 -12 -12 -11
-4 0 2 4 6 7 8 8 8 6 5 8 10 10 9 8 4 1 1 -4 -4 -5 -5 -5 -4 -4 -4 -5 -8 -13 -17 -18 -14 -12 -11 -11 -12 -12 -12 -11 -11 -10 -9
-2 2 4 4 6 7 7 7 6 5 5 9 9 9 8 4 1 -1 -3 -5 -5 -6 -5 -5 -4 -4 -5 -7 -12 -17 -20 -15 -12 -11 -10 -11 -11 -11 -10 -11 -9 -9 -9
2 2 4 4 6 7 6 5 5 4 7 8 8 6 5 1 -3 -4 -5 -6 -6 -6 -5 -4 -4 -4 -6 -12 -18 -21 -15 -15 -13 -12 -11 -11 -11 -11 -9 -8 -8 -8 -9
3 3 4 4 6 4 1 1 3 5 6 8 6 -2 -2 -4 -5 -5 -5 -6 -6 -5 -4 -5 -5 -7 -12 -17 -20 -15 -17 -22 -17 -13 -13 -12 -10 -10 -9 -8 -8 -9 -9
3 3 4 4 2 2 3 1 2 6 5 5 0 -1 -4 -4 -5 -5 -5 -6 -5 -5 -5 -5 -8 -13 -20 -18 -15 -19 -26 -26 -16 -14 -11 -9 -10 -9 -9 -9 -9 -10 -8
4 3 3 1 0 1 1 2 2 1 2 0 -1 -5 -3 -3 -3 -5 -6 -6 -6 -5 -6 -9 -13 -20 -15 -15 -22 -27 -26 -22 -14 -11 -10 -10 -10 -9 -9 -10 -9 -10 -10
3 1 -1 -1 0 2 3 4 2 1 -1 -1 -5 -1 -1 -6 -6 -6 -6 -6 -5 -6 -10 -16 -18 -14 -18 -23 -26 -26 -26 -18 -11 -11 -11 -10 -10 -9 -9 -8 -9 -10 -10
0 -3 -3 -2 2 2 2 3 3 2 0 1 -4 -6 -6 -6 -6 -6 -5 -5 -8 -12 -19 -14 -14 -18 -25 -25 -25 -26 -23 -12 -10 -11 -10 -10 -10 -9 -9 -9 -9 -10 -11
1 1 0 1 -1 -1 -1 -3 -7 -8 -7 -6 -6 -7 -7 -6 -5 -4 -6 -9 -15 -17 -13 -15 -20 -23 -22 -22 -22 -23 -19 -10 -9 -10 -10 -11 -10 -9 -9 -9 -10 -11 -10
-5 -5 -6 -7 -8 -7 -4 -5 -5 -7 -7 -7 -7 -6 -5 -4 -5 -7 -11 -17 -14 -13 -16 -20 -22 -18 -15 -16 -16 -15 -9 -9 -9 -10 -11 -10 -10 -9 -10 -10 -10 -10 -10
-3 -4 -4 -6 -7 -6 -5 -5 -7 -7 -6 -5 -5 -4 -4 -6 -8 -13 -16 -13 -13 -16 -21 -23 -20 -17 -17 -16 -13 -11 -10 -10 -10 -10 -10 -10 -10 -10 -12 -12 -10 -10 -11
-4 -5 -5 -5 -6 -6 -5 -4 -5 -5 -5 -4 -4 -5 -6 -9 -16 -15 -13 -13 -16 -22 -23 -20 -20 -20 -18 -15 -13 -15 -12 -11 -10 -10 -11 -11 -11 -13 -12 -12 -12 -11 -11
-5 -4 -4 -4 -5 -5 -5 -5 -5 -5 -4 -4 -5 -8 -12 -17 -14 -13 -13 -16 -22 -25 -25 -24 -25 -24 -23 -20 -21 -12 -11 -10 -10 -10 -13 -13 -13 -13 -12 -12 -12 -11 -11
-3 -3 -4 -4 -5 -5 -5 -5 -4 -4 -4 -6 -8 -14 -16 -14 -13 -13 -16 -21 -24 -24 -24 -24 -27 -29 -27 -23 -18 -11 -10 -10 -10 -12 -13 -13 -13 -12 -12 -12 -11 -11 -10

GFSMW_850_dewp_018.txt.gz
Dewpoint
-1 -0 0 0 -0 -1 -0 2 3 3 7 12 12 11 13 13 13 12 12 12 11 10 10 9 9 9 -4 -1 -1 -0 -0 -1 -3 -7 -12 -10 -10 -11 -10 -5 -5 -12 -12
-2 -2 -1 -0 1 1 -1 1 3 4 3 9 12 10 12 12 12 12 12 12 10 10 10 9 9 4 -2 -1 -0 0 0 -0 -1 -5 -11 -11 -10 -9 -10 -12 -11 -11 -12
-3 -3 -3 -2 -1 1 1 1 2 3 4 5 12 13 13 12 12 12 12 12 11 10 10 9 8 -3 -1 -0 0 0 0 0 -1 -3 -9 -13 -11 -11 -14 -13 -13 -13 -12
-5 -5 -4 -4 -2 -1 1 2 3 4 5 7 11 10 9 11 12 12 12 12 11 11 10 9 5 -3 -0 0 0 0 0 0 -1 -3 -8 -12 -15 -16 -16 -13 -12 -13 -12
-5 -5 -5 -5 -5 -4 -0 1 2 4 6 8 11 10 11 11 12 12 11 11 11 11 9 8 2 -2 -0 0 0 0 -0 -0 -1 -3 -8 -12 -14 -14 -11 -11 -13 -13 -14
-7 -5 -5 -4 -4 -4 -5 1 2 4 8 10 12 11 10 11 11 11 11 11 11 9 7 6 -1 -1 -0 -0 -0 -0 -0 -1 -1 -3 -8 -12 -14 -14 -12 -12 -13 -13 -14
-7 -5 -2 -1 -1 -2 -2 -4 3 4 7 11 13 12 10 9 9 11 11 11 10 8 7 5 -1 -1 -0 -1 -1 -1 -1 -1 -2 -4 -9 -13 -14 -14 -13 -12 -12 -12 -13
-7 -2 -0 0 0 -1 -2 -1 1 5 8 11 12 12 11 10 9 11 11 11 10 8 6 4 -2 -1 -1 -1 -1 -1 -1 -1 -3 -6 -10 -13 -14 -14 -13 -12 -11 -11 -12
-5 -1 -1 0 2 1 -0 1 5 6 6 11 12 11 11 9 9 10 11 10 9 7 5 1 -2 -1 -1 -2 -2 -2 -2 -2 -4 -8 -12 -13 -15 -15 -14 -12 -11 -11 -9
-5 -2 -1 0 0 1 0 2 5 5 8 11 11 10 9 10 10 10 10 9 9 7 2 -0 -2 -2 -2 -2 -2 -2 -2 -4 -7 -11 -13 -15 -17 -15 -13 -13 -14 -15 -13
-2 -1 0 1 0 1 1 3 5 6 8 10 10 9 9 10 10 9 9 9 8 2 -0 -2 -3 -3 -3 -3 -2 -2 -3 -5 -9 -14 -16 -17 -15 -12 -13 -14 -16 -16 -13
-4 -3 -2 1 1 2 3 5 6 8 10 9 9 9 9 9 8 8 8 6 2 0 -2 -4 -4 -4 -3 -3 -3 -3 -5 -9 -14 -17 -17 -14 -12 -12 -14 -15 -14 -12 -12
-5 -3 -1 2 1 5 5 7 8 10 9 9 9 9 8 7 6 5 4 0 -1 -3 -4 -5 -4 -4 -3 -3 -4 -5 -9 -15 -19 -17 -13 -12 -12 -14 -15 -13 -12 -12 -12
-1 -2 2 3 3 6 6 8 9 9 8 8 8 7 5 5 4 3 -0 0 -3 -4 -5 -5 -4 -4 -3 -3 -4 -9 -14 -20 -16 -14 -14 -13 -13 -12 -11 -11 -10 -9 -8
2 2 3 3 5 6 8 7 8 6 6 6 5 4 4 2 2 -1 -2 -3 -5 -5 -6 -5 -4 -4 -3 -4 -10 -16 -19 -15 -15 -20 -21 -16 -12 -11 -10 -8 -8 -8 -8
4 3 2 4 6 7 7 6 5 5 5 3 1 1 -1 -4 -2 -4 -5 -6 -6 -6 -5 -3 -2 -3 -3 -9 -17 -17 -15 -18 -25 -25 -21 -16 -14 -13 -9 -8 -8 -8 -8
4 3 3 5 6 4 4 4 3 1 -1 -1 -1 -3 -4 -2 -4 -4 -3 -7 -5 -3 -4 -4 -3 -4 -8 -17 -15 -16 -22 -25 -24 -22 -15 -12 -11 -10 -10 -10 -8 -9 -9
3 3 3 3 3 3 3 2 -1 -2 -2 -1 -2 -1 2 1 -3 -5 -5 -4 -4 -5 -3 -2 -4 -10 -17 -14 -17 -23 -25 -24 -25 -18 -13 -10 -11 -10 -9 -9 -9 -8 -10
3 2 2 2 1 -1 -1 -2 -3 -2 -1 -0 2 1 -3 -3 -3 -1 -3 -5 -4 -3 -1 -6 -15 -15 -14 -18 -23 -24 -24 -26 -24 -16 -12 -11 -10 -9 -9 -8 -9 -9 -10
0 0 -1 -1 -2 -3 -3 -1 1 3 3 2 -0 1 0 -4 -7 -6 -5 -3 -2 -4 -10 -16 -14 -15 -20 -22 -21 -21 -23 -25 -21 -18 -13 -11 -9 -9 -9 -9 -9 -9 -11
-3 -1 -1 -1 -1 -0 1 2 2 4 4 2 -1 -2 -5 -7 -5 -4 -3 -4 -8 -15 -14 -14 -17 -20 -20 -19 -18 -19 -21 -15 -10 -9 -10 -11 -10 -9 -9 -9 -9 -10 -10
0 0 1 1 1 2 1 -4 -3 -2 -4 -7 -8 -7 -7 -5 -3 -4 -7 -13 -15 -13 -15 -17 -22 -20 -17 -17 -18 -13 -10 -9 -9 -10 -10 -10 -10 -9 -10 -10 -11 -10 -9
-7 -7 -7 -6 -5 -2 -5 -6 -8 -9 -8 -8 -7 -6 -4 -3 -7 -11 -16 -13 -13 -15 -19 -22 -21 -21 -21 -20 -18 -16 -15 -18 -10 -10 -10 -10 -10 -11 -11 -13 -11 -10 -12
-8 -8 -7 -7 -8 -8 -8 -9 -9 -7 -6 -4 -3 -4 -6 -10 -16 -14 -13 -13 -15 -20 -24 -24 -24 -24 -25 -26 -24 -22 -20 -17 -13 -11 -11 -12 -15 -12 -13 -14 -13 -12 -12
-7 -6 -6 -7 -8 -8 -7 -7 -6 -5 -4 -4 -6 -9 -13 -16 -14 -13 -13 -15 -20 -23 -23 -24 -24 -27 -31 -28 -17 -14 -14 -12 -10 -10 -12 -16 -15 -15 -15 -14 -13 -12 -11
-6 -6 -6 -5 -7 -6 -6 -6 -5 -4 -5 -7 -9 -14 -16 -14 -13 -13 -15 -20 -22 -23 -23 -25 -31 -31 -26 -23 -20 -18 -11 -10 -10 -11 -14 -15 -15 -15 -15 -13 -12 -11 -11

GFSMW_850_dewp_021.txt.gz
Dewpoint
0 0 0 -0 -1 -1 -1 -0 4 7 9 9 10 11 12 13 13 12 12 12 11 11 11 10 9 9 9 1 -2 -1 -0 -1 -1 -4 -10 -11 -11 -11 -10 -9 -7 -7 -12
-2 -1 -1 -1 -1 -0 -1 -1 -0 3 8 9 8 7 11 12 12 12 12 12 11 11 11 10 9 9 9 -3 -1 -0 0 -0 -0 -2 -8 -11 -10 -10 -10 -11 -10 -10 -11
-3 -3 -3 -3 -2 -1 -1 0 -1 0 6 8 7 7 10 10 12 12 12 11 12 11 10 10 9 8 6 -2 -0 0 0 0 -0 -1 -3 -9 -12 -13 -14 -13 -13 -13 -13
-4 -4 -4 -4 -4 -3 -2 -1 1 1 3 5 6 7 7 9 12 11 11 11 12 12 11 10 9 8 2 -1 0 0 0 0 0 -0 -2 -5 -10 -14 -15 -14 -13 -12 -12
-5 -5 -6 -6 -6 -5 -4 -3 -0 0 3 4 4 6 6 7 9 10 11 11 11 12 11 10 9 5 -2 -1 0 0 0 0 0 0 -1 -4 -9 -13 -14 -13 -14 -14 -15
-6 -6 -5 -4 -4 -4 -4 -4 -4 1 1 4 5 5 7 6 9 11 11 12 11 11 11 10 8 2 -2 -1 0 0 -0 -0 -0 -0 -1 -4 -9 -13 -14 -13 -14 -14 -17
-8 -8 -6 -6 -4 -3 -3 -4 -3 -4 0 1 4 6 7 7 8 10 11 11 11 10 10 9 8 1 -1 -0 -0 -0 -1 -1 -0 -1 -2 -5 -10 -13 -13 -13 -14 -14 -15
-9 -9 -6 -2 -1 -1 -1 -2 -2 -2 -3 3 5 7 8 9 10 10 11 11 10 10 9 9 5 0 -1 -1 -1 -1 -1 -1 -1 -1 -3 -7 -12 -13 -14 -14 -13 -12 -12
-9 -8 -1 -1 -1 -2 -3 -4 -1 -0 -2 1 7 8 9 10 9 11 11 10 10 10 8 7 2 -1 -1 -1 -1 -1 -1 -1 -1 -2 -4 -10 -13 -15 -16 -15 -13 -11 -10
-7 -2 -2 -1 -1 -3 -5 -5 -2 0 0 2 7 8 8 9 10 11 10 10 10 9 6 4 1 -1 -1 -2 -2 -2 -2 -2 -2 -3 -7 -13 -15 -17 -15 -13 -13 -14 -14
-3 -2 -1 -2 -2 -5 -7 -5 0 0 3 4 7 8 8 9 11 10 9 9 9 7 3 3 3 -1 -2 -3 -3 -2 -2 -2 -3 -7 -13 -16 -17 -15 -12 -13 -14 -16 -15
-2 -3 -3 -4 -5 -5 -5 -1 3 4 5 5 7 8 8 9 10 9 8 9 8 3 3 2 -2 -3 -3 -3 -3 -3 -3 -3 -6 -13 -17 -17 -13 -12 -12 -14 -16 -15 -14
-2 -0 -0 -1 -2 -4 -3 -2 5 5 5 6 7 8 9 9 8 8 8 6 5 4 4 -3 -4 -3 -4 -3 -3 -3 -3 -7 -12 -17 -16 -13 -13 -14 -15 -15 -14 -13 -12
2 1 2 3 3 2 0 2 6 6 6 7 8 9 9 8 8 6 5 5 3 2 -3 -2 -3 -4 -4 -3 -3 -3 -6 -13 -18 -15 -15 -16 -18 -16 -14 -13 -12 -10 -8
2 2 2 3 4 4 4 5 6 7 8 9 8 8 7 5 2 2 1 -1 -0 -0 -1 -5 -5 -5 -4 -3 -1 -7 -13 -17 -15 -18 -23 -23 -19 -15 -14 -11 -8 -8 -8
3 3 2 3 5 6 6 6 5 4 6 7 6 5 2 1 -1 -3 -2 1 -4 -5 -4 -6 -5 -4 -3 -2 -9 -15 -15 -15 -20 -24 -23 -22 -19 -17 -13 -10 -9 -8 -8
3 3 3 4 4 5 5 4 4 3 2 4 3 1 -1 -2 -2 -1 -3 -4 -4 -6 -6 -4 -4 -3 -3 -9 -16 -14 -16 -21 -23 -23 -24 -22 -16 -12 -11 -10 -9 -9 -8
3 3 3 3 3 3 3 3 3 0 2 1 -0 -0 -1 -1 -1 -1 -0 -1 0 -2 -1 -4 -4 -6 -13 -15 -14 -17 -23 -23 -23 -26 -26 -19 -13 -11 -10 -9 -8 -8 -9
0 1 2 3 2 1 0 1 -0 -0 -1 -4 -5 -3 -1 1 2 3 1 -1 0 -1 -4 -6 -13 -15 -14 -15 -19 -22 -22 -22 -26 -29 -22 -16 -13 -13 -9 -8 -8 -9 -10
-0 0 0 -0 0 -1 -1 -1 -1 -0 -0 1 2 2 3 3 2 -1 -1 -5 -7 -5 -9 -16 -14 -15 -17 -20 -22 -21 -22 -25 -24 -19 -15 -14 -10 -9 -9 -8 -9 -9 -10
-1 -1 -1 -1 -1 -1 -1 1 1 2 2 2 2 1 0 -0 -2 -6 -7 -6 -5 -14 -14 -14 -16 -18 -21 -21 -21 -21 -19 -14 -12 -13 -16 -14 -12 -9 -9 -9 -9 -9 -10
-0 -0 -0 -0 0 2 3 3 2 2 3 2 1 -1 -6 -8 -8 -6 -8 -13 -15 -13 -14 -16 -20 -21 -21 -21 -20 -16 -11 -10 -14 -19 -15 -12 -10 -9 -10 -10 -11 -10 -10
1 1 1 1 1 2 2 3 2 1 1 -4 -7 -8 -8 -7 -7 -12 -15 -14 -13 -14 -17 -22 -22 -22 -22 -23 -25 -24 -21 -22 -20 -16 -10 -9 -10 -14 -16 -15 -11 -13 -13
-1 1 1 1 1 0 -1 -1 -4 -8 -9 -8 -7 -7 -8 -11 -15 -15 -13 -13 -15 -19 -23 -23 -23 -23 -26 -30 -29 -25 -23 -20 -14 -11 -9 -10 -15 -17 -16 -16 -14 -12 -12
-8 -7 -7 -7 -8 -8 -8 -8 -6 -7 -6 -4 -5 -8 -11 -15 -14 -13 -14 -16 -20 -22 -22 -23 -26 -33 -32 -26 -22 -18 -14 -11 -10 -9 -12 -16 -18 -18 -17 -15 -12 -12 -11
-7 -8 -8 -8 -8 -8 -7 -7 -6 -5 -5 -7 -10 -14 -15 -14 -13 -14 -18 -21 -22 -23 -24 -29 -33 -24 -20 -16 -15 -14 -10 -10 -10 -13 -16 -17 -17 -16 -16 -13 -12 -11 -11

GFSMW_850_dewp_024.txt.gz
Dewpoint
-1 0 0 0 -0 -0 -1 -1 -0 2 9 10 9 9 11 11 11 12 12 12 12 11 10 11 11 11 9 9 6 -3 -1 -1 -2 -4 -9 -10 -11 -10 -9 -8 -8 -6 -7
-3 -2 -2 -1 0 -0 -1 -1 -1 -1 1 7 8 9 8 10 9 11 12 12 11 11 11 10 11 10 9 9 4 -2 -0 -0 -1 -2 -7 -9 -8 -10 -10 -10 -8 -8 -10
-4 -5 -2 -2 -2 -1 -1 -1 -0 -1 -1 4 8 9 9 9 10 10 11 12 11 11 11 11 11 10 9 8 2 -1 -0 -0 -0 -0 -3 -6 -11 -10 -11 -11 -12 -12 -12
-3 -4 -5 -4 -4 -3 -4 -3 -2 -2 1 1 4 7 9 8 9 9 10 11 11 11 11 10 11 10 9 8 -1 -1 0 0 0 -0 -0 -1 -3 -9 -13 -13 -13 -13 -12
-5 -6 -5 -5 -5 -5 -5 -5 -5 -3 -1 2 3 5 9 9 7 7 8 9 9 11 10 10 11 10 9 5 -1 -1 0 0 0 0 0 -1 -2 -5 -10 -12 -13 -13 -13
-7 -6 -5 -5 -5 -5 -5 -5 -5 -5 -4 -0 2 4 7 8 8 8 8 9 10 10 11 11 12 10 8 4 -1 -0 0 0 -0 -0 0 -0 -2 -5 -10 -13 -13 -14 -15
-8 -8 -7 -7 -5 -4 -3 -4 -4 -4 -4 -4 0 3 5 7 7 7 7 7 9 9 10 11 11 9 8 1 -1 0 0 -0 -0 -0 -0 -1 -3 -6 -11 -13 -14 -14 -17
-7 -9 -8 -8 -7 -6 -6 -5 -5 -5 -5 -4 -3 0 4 5 7 6 6 7 8 8 10 11 10 8 6 -1 -1 -0 -0 -1 -1 -1 -1 -2 -4 -8 -13 -14 -15 -15 -14
-4 -4 -8 -5 -2 -2 -2 -3 -5 -5 -4 -3 -3 -1 2 5 6 6 7 8 8 9 11 10 9 5 2 -1 -1 -1 -1 -1 -1 -1 -1 -3 -6 -11 -14 -16 -16 -13 -11
-2 -2 -2 0 1 -0 -2 -4 -5 -5 -6 -2 -2 -1 2 6 7 7 8 8 10 11 11 9 8 6 0 -2 -2 -0 -1 -1 -2 -2 -2 -4 -10 -14 -17 -15 -13 -12 -12
1 0 -2 -2 1 -1 -4 -5 -6 -8 -7 -3 0 1 3 8 7 8 8 9 10 11 10 9 7 2 0 2 -1 -1 -3 -2 -3 -2 -3 -8 -14 -17 -14 -12 -13 -14 -15
3 2 -0 -1 -2 -1 -3 -5 -6 -7 -7 -2 1 3 4 6 7 8 8 10 10 10 9 8 5 1 0 0 2 -0 -3 -3 -3 -3 -7 -13 -17 -14 -13 -14 -16 -16 -15
3 3 2 2 3 3 3 0 -2 -4 -3 1 5 7 6 7 7 9 9 10 9 9 6 5 2 -1 1 -1 -2 -4 -3 -3 -4 -8 -13 -14 -14 -14 -16 -18 -16 -15 -13
2 3 3 2 2 3 3 2 -0 -2 1 5 4 6 6 8 8 9 9 9 8 7 4 1 -0 1 0 -5 -6 -4 -4 -4 -6 -12 -15 -15 -18 -21 -20 -17 -15 -13 -10
3 2 3 3 3 2 2 3 2 4 5 6 7 7 8 8 8 8 7 6 4 1 -1 2 2 -2 -3 -3 -6 -4 -4 -9 -13 -15 -17 -22 -23 -21 -17 -15 -12 -9 -9
4 3 3 3 3 2 3 5 5 5 5 6 6 6 6 6 6 5 3 1 0 0 1 -3 -3 -2 -6 -5 -3 -6 -13 -14 -15 -20 -23 -23 -22 -20 -18 -13 -10 -9 -8
3 3 4 3 3 4 5 5 4 3 4 4 3 2 4 3 0 -0 -0 -1 -1 -2 -2 -1 -1 -5 -6 -5 -3 -12 -14 -17 -22 -23 -23 -24 -24 -21 -17 -14 -12 -10 -9
1 1 1 1 3 3 4 3 2 1 1 2 1 1 1 -1 -2 -1 -1 -0 -0 -0 -0 -1 -1 -0 0 -4 -14 -15 -19 -22 -22 -23 -25 -27 -23 -20 -16 -12 -10 -9 -9
0 1 0 1 2 2 3 2 1 0 0 0 -1 -2 -2 -1 -0 1 1 1 1 1 -0 -0 0 -4 -14 -14 -16 -20 -21 -21 -23 -26 -25 -20 -21 -18 -10 -9 -8 -9 -9
-0 1 1 0 0 -0 0 1 -1 -1 -1 -2 -1 0 1 1 1 1 1 1 -0 -0 -4 -9 -14 -14 -15 -18 -20 -21 -21 -22 -24 -25 -25 -25 -20 -12 -9 -8 -8 -9 -11
-1 -1 -1 -1 -2 -2 -2 -1 -1 -1 -1 -0 0 1 1 1 0 0 -0 -2 -5 -8 -11 -14 -14 -16 -19 -19 -18 -18 -18 -19 -23 -26 -27 -24 -16 -9 -9 -9 -9 -10 -10
-1 -1 0 -1 -0 0 1 0 0 -0 0 1 1 1 1 0 -2 -5 -8 -8 -9 -14 -14 -15 -18 -20 -20 -20 -21 -23 -24 -22 -24 -24 -20 -13 -9 -9 -10 -13 -15 -10 -11
1 1 1 1 1 1 2 2 1 0 1 1 -2 -5 -7 -7 -6 -8 -12 -15 -14 -14 -16 -19 -20 -21 -22 -23 -26 -31 -29 -24 -20 -16 -11 -9 -10 -13 -18 -18 -18 -16 -13
2 2 2 2 2 1 2 2 1 -2 -6 -6 -7 -7 -5 -7 -12 -14 -14 -14 -15 -19 -22 -22 -22 -23 -26 -32 -30 -25 -21 -18 -14 -11 -10 -10 -13 -16 -18 -18 -16 -13 -12
1 1 2 1 0 -2 -6 -7 -7 -7 -6 -5 -5 -7 -11 -14 -14 -13 -14 -16 -19 -21 -22 -22 -26 -31 -27 -23 -21 -16 -13 -11 -10 -9 -11 -16 -19 -19 -18 -16 -13 -12 -11
-4 -5 -4 -5 -7 -8 -4 -3 -5 -6 -5 -6 -10 -14 -14 -14 -13 -14 -17 -20 -22 -22 -24 -30 -31 -25 -22 -15 -14 -16 -10 -10 -10 -12 -16 -18 -18 -17 -17 -14 -12 -11 -11

GFSMW_850_dewp_027.txt.gz
Dewpoint
-1 -1 -1 -0 0 0 -2 -0 -0 0 0 8 11 10 10 10 13 12 11 11 12 11 11 11 10 10 10 10 10 9 2 -3 -2 -4 -7 -10 -10 -10 -9 -8 -8 -8 -7
-3 -2 -1 -1 -1 -0 0 -1 -1 -0 -1 -0 7 9 10 9 10 10 10 10 11 11 11 11 10 10 10 11 9 8 -0 -2 -1 -3 -6 -8 -7 -9 -9 -9 -8 -7 -7
-3 -5 -5 -5 -1 -1 -1 -1 -1 -1 -1 -1 0 8 10 10 9 10 11 10 12 11 11 11 11 10 10 11 9 8 -1 -1 -1 -1 -4 -6 -7 -9 -8 -9 -10 -9 -9
-5 -5 -5 -4 -6 -5 -2 -3 -2 -2 -2 -1 0 4 5 8 9 8 8 9 11 10 11 11 10 11 11 11 9 8 -0 -1 -0 -0 -1 -1 -2 -6 -9 -10 -11 -12 -12
-7 -7 -6 -6 -5 -5 -5 -4 -4 -4 -4 -3 -3 1 3 8 8 9 9 9 9 8 9 10 10 11 10 10 9 7 -1 -1 0 0 -0 -0 -1 -2 -4 -9 -10 -12 -12
-9 -8 -7 -5 -6 -6 -6 -6 -6 -6 -5 -5 -4 -2 2 6 8 8 8 8 8 8 8 9 10 10 10 10 10 6 -1 -0 0 0 -0 0 -0 -1 -2 -6 -9 -11 -13
-4 -4 -6 -7 -5 -4 -6 -5 -6 -6 -5 -5 -5 -4 -1 4 6 6 9 8 7 7 7 8 9 9 11 11 10 4 -1 -0 0 -0 -0 -0 -0 -1 -2 -6 -10 -12 -14
-4 -4 -3 -3 -4 -5 -2 -5 -8 -7 -5 -5 -4 -3 -3 -2 3 5 6 8 8 6 6 7 8 10 11 10 10 3 -1 -0 -0 -1 -1 -1 -1 -2 -3 -7 -12 -14 -16
-2 -0 -0 -0 -1 -3 -1 -0 -1 -3 -4 -5 -6 -5 -4 -3 -1 3 5 6 8 8 7 7 8 10 10 10 8 1 -1 -1 -1 -1 -1 -1 -1 -3 -6 -10 -14 -16 -14
1 3 2 2 2 -1 1 -0 -1 -3 -4 -5 -6 -6 -5 -2 -2 -1 5 6 7 7 8 7 9 10 9 8 6 0 0 -1 -1 -0 -2 -2 -2 -6 -10 -14 -16 -15 -13
4 4 3 3 3 1 -2 -1 -0 -3 -5 -5 -7 -6 -5 -2 -1 0 1 8 8 8 7 8 10 9 9 6 1 1 -2 -1 1 -2 -3 -2 -3 -8 -15 -16 -14 -13 -14
4 3 3 2 2 2 2 -2 1 -0 -1 -4 -5 -5 -0 1 3 4 5 8 9 9 8 9 9 8 3 1 1 -1 2 -0 -1 1 0 -5 -7 -13 -14 -13 -14 -16 -17
3 3 2 3 3 2 2 2 2 2 -0 -2 -4 -3 -1 3 4 5 7 10 10 9 9 9 7 2 1 1 -1 2 1 2 1 -2 -6 -9 -11 -14 -14 -16 -19 -19 -16
3 3 3 2 3 2 2 2 2 1 0 -1 -1 -0 4 5 6 7 9 8 8 8 7 6 5 2 1 0 2 1 1 -1 -5 -6 -7 -13 -14 -16 -20 -21 -19 -17 -16
1 3 4 3 3 2 2 2 2 2 1 1 3 6 7 8 7 8 8 6 6 6 5 4 0 0 1 -0 0 -1 -3 -4 -4 -11 -13 -16 -20 -22 -21 -19 -17 -14 -10
0 2 2 3 3 3 3 4 3 4 3 2 5 5 5 5 6 6 6 5 3 2 2 -0 -0 -0 0 1 0 0 -2 -6 -12 -6 -18 -22 -22 -21 -21 -19 -15 -12 -10
-1 -1 1 2 2 3 4 4 4 4 3 3 3 3 4 4 3 3 3 1 1 1 -0 0 1 0 -1 -0 -1 -2 -3 -2 -13 -20 -22 -22 -22 -23 -22 -20 -18 -15 -13
0 -0 -1 0 2 2 2 1 2 1 1 1 2 2 1 -0 -0 -1 -1 -1 -0 0 1 0 0 0 0 0 -1 -1 -9 -19 -21 -21 -22 -23 -23 -23 -21 -18 -12 -10 -10
-0 -0 -0 0 1 1 0 -0 -1 -0 -1 -0 -0 -0 -0 -0 0 1 0 0 1 1 1 1 -0 -1 -1 -1 -3 -17 -19 -20 -20 -21 -22 -22 -22 -25 -23 -9 -8 -9 -11
-1 -0 -0 -0 -0 -0 -0 -1 -1 -1 -1 -2 -1 -0 -0 -0 -1 0 -0 0 0 -0 -0 -1 -1 -3 -11 -16 -18 -20 -20 -20 -20 -20 -21 -24 -24 -16 -9 -8 -9 -10 -13
-1 -1 -1 -1 -1 -1 -1 -1 -1 -1 -1 -1 -1 -1 -1 -0 -0 -0 -1 0 -0 -0 -1 -6 -13 -15 -16 -18 -18 -17 -18 -17 -21 -25 -26 -23 -19 -12 -9 -9 -11 -13 -10
0 0 0 0 -0 -0 -0 -0 -0 -0 -0 -0 -0 -0 -0 -0 -0 -0 -1 -2 -6 -11 -14 -14 -15 -17 -19 -19 -20 -20 -20 -20 -21 -22 -21 -19 -13 -9 -10 -14 -18 -14 -11
2 2 2 1 1 1 1 1 0 -0 -0 0 -0 -0 -3 -6 -7 -6 -8 -13 -14 -14 -15 -17 -19 -21 -21 -21 -23 -25 -27 -23 -20 -21 -17 -10 -11 -13 -18 -19 -20 -18 -16
2 2 2 2 1 1 1 1 1 0 -1 -5 -7 -7 -7 -9 -13 -14 -14 -14 -15 -17 -20 -22 -22 -22 -24 -28 -25 -22 -22 -22 -18 -12 -10 -10 -12 -17 -19 -19 -18 -15 -12
2 2 2 2 1 1 -2 -5 -7 -8 -7 -6 -7 -8 -12 -14 -14 -14 -15 -16 -19 -21 -21 -22 -24 -28 -29 -27 -25 -23 -17 -11 -10 -10 -12 -15 -18 -19 -19 -18 -15 -12 -11
2 2 0 -2 -6 -7 -6 -5 -7 -7 -5 -6 -9 -13 -15 -14 -14 -15 -16 -19 -21 -22 -23 -27 -32 -31 -26 -23 -19 -17 -12 -13 -17 -16 -18 -18 -18 -18 -18 -15 -12 -11 -11

GFSMW_850_dewp_030.txt.gz
Dewpoint
-1 -1 -0 -1 -1 -1 -0 -1 -1 1 1 1 1 7 11 10 11 10 11 12 12 11 11 11 11 10 8 8 10 10 9 8 -1 -3 -5 -7 -9 -11 -10 -9 -9 -9 -9
-2 -2 -2 -3 -3 -1 -1 0 -0 -1 -0 0 0 1 5 9 9 9 9 9 11 11 10 10 10 10 10 10 9 10 9 8 -2 -3 -5 -7 -7 -9 -9 -9 -9 -9 -8
-4 -4 -4 -4 -5 -5 -3 -1 -0 -0 -0 -0 -0 1 4 7 11 10 9 8 10 11 11 11 11 10 10 9 9 10 9 8 -0 -2 -3 -5 -5 -6 -7 -8 -8 -8 -9
-8 -7 -6 -6 -5 -5 -4 -5 -3 -2 -2 -1 -0 -0 1 1 4 6 8 9 8 9 10 11 10 10 10 10 10 10 10 8 2 -1 -1 -2 -3 -7 -5 -6 -7 -9 -9
-3 -3 -4 -5 -6 -5 -4 -5 -5 -3 -3 -3 -3 -3 -2 -0 4 6 8 8 9 8 8 10 10 10 10 10 10 10 10 8 1 -1 -0 -1 -1 -1 -2 -4 -4 -7 -9
-4 -4 -4 -4 -6 -6 -5 -5 -5 -5 -5 -4 -5 -4 -4 -3 0 5 8 8 9 8 9 8 9 9 9 10 10 10 10 9 3 -1 -0 -0 -0 -0 -1 -1 -2 -5 -7
-3 -2 -2 -2 -3 -4 -6 -4 -4 -5 -5 -5 -6 -5 -5 -4 -2 1 3 5 9 8 9 8 7 8 8 9 10 11 10 9 3 -1 -0 -0 -0 -0 -0 -1 -2 -4 -7
-0 1 2 1 2 -0 -2 -4 -4 -2 -1 -2 -2 -3 -4 -4 -3 1 6 4 5 6 8 8 8 7 7 8 10 10 9 7 3 1 -1 -1 -1 -1 -1 -1 -2 -7 -10
0 2 3 3 2 2 1 -1 0 0 -0 -2 -3 -3 -3 -3 -4 -3 -1 1 5 5 7 8 9 8 8 9 10 10 9 6 4 3 1 -1 -1 -1 -1 -1 -1 -8 -14
2 3 3 3 3 2 1 0 -1 -0 -0 -3 -3 -3 -4 -4 -5 -3 -2 -1 2 5 5 8 8 9 10 9 10 9 8 4 3 1 1 -1 -0 -2 -4 -4 -5 -12 -14
3 4 3 3 3 2 2 2 0 -1 -1 -2 -3 -4 -6 -6 -6 -3 -1 1 4 7 8 7 8 9 10 9 9 7 5 1 -0 -2 1 -0 -1 -1 -1 -9 -12 -13 -13
3 3 3 3 2 2 3 3 2 3 2 0 -1 -3 -5 -5 -5 -0 1 3 6 8 10 10 10 10 9 8 7 4 2 1 -1 -0 2 2 -3 -1 -1 -3 -11 -13 -13
3 3 3 3 3 2 1 2 2 2 2 0 -1 -1 -2 -4 -3 1 4 5 8 9 9 9 8 9 8 7 4 2 1 -2 0 1 1 1 -6 -8 -9 -12 -13 -15 -17
2 2 3 3 4 3 3 2 2 2 2 1 -0 -1 0 2 2 5 5 6 8 8 7 7 7 7 6 2 1 -1 -1 1 2 2 0 -2 -5 -4 -5 -14 -19 -20 -18
1 1 1 2 3 3 3 3 3 3 2 2 1 1 1 5 6 7 7 7 7 7 6 6 5 4 1 -2 -1 1 1 1 1 0 -1 -6 -7 -3 -11 -21 -21 -18 -18
1 0 0 0 1 2 2 2 3 3 3 3 3 3 4 5 5 6 5 6 6 6 5 3 2 0 0 1 1 1 1 0 -0 -0 -2 -2 -9 -21 -21 -20 -18 -17 -16
0 0 0 1 1 1 1 1 2 1 1 1 2 3 3 4 4 4 4 3 3 2 2 1 1 0 0 1 1 0 1 0 -0 -1 -4 -20 -21 -21 -22 -22 -21 -20 -18
-0 0 0 0 0 0 1 0 1 0 -0 -0 0 1 1 2 2 1 1 1 -0 -1 -1 -1 -0 0 0 -0 -0 -1 -1 -0 -5 -19 -20 -21 -22 -23 -25 -26 -19 -13 -11
-1 -0 -1 -1 -1 -1 -1 -1 -1 -1 -1 -1 -1 -1 -1 -0 -0 -0 0 0 -0 -0 -0 -0 -0 -0 -0 -1 -1 -1 -8 -18 -19 -20 -20 -21 -23 -26 -26 -12 -9 -9 -10
-0 0 -1 -1 -1 -1 -1 -1 -1 -1 -1 -1 -1 -1 -1 -1 -1 -1 -1 -1 -1 -1 -1 -1 -1 -1 -1 -5 -16 -18 -18 -19 -19 -19 -22 -23 -25 -22 -13 -8 -8 -9 -12
1 2 2 1 -0 -1 -1 -1 -1 -1 -1 -1 -1 -1 -1 -1 -1 -1 -1 -1 -1 -0 -1 -1 -3 -14 -16 -16 -18 -20 -20 -19 -21 -25 -25 -22 -19 -12 -8 -9 -10 -14 -12
2 2 3 2 1 0 -0 -0 -0 -1 -0 -0 -0 -0 -1 -1 -1 -1 -1 -1 -4 -10 -14 -14 -15 -16 -17 -18 -18 -17 -18 -21 -27 -24 -19 -14 -9 -9 -12 -15 -18 -16 -14
2 2 2 2 2 1 1 1 0 0 -0 -0 -0 -1 -2 -4 -6 -7 -12 -14 -14 -14 -15 -17 -18 -19 -19 -20 -21 -25 -27 -23 -18 -15 -12 -12 -11 -13 -16 -19 -20 -19 -18
2 2 2 2 2 1 1 1 0 0 -0 -4 -6 -6 -8 -11 -14 -14 -14 -14 -15 -17 -20 -21 -22 -22 -23 -27 -27 -23 -20 -18 -15 -14 -13 -15 -17 -19 -19 -19 -19 -17 -13
2 2 2 2 1 0 -2 -4 -6 -7 -6 -5 -8 -11 -14 -14 -14 -14 -15 -17 -19 -21 -21 -22 -24 -27 -28 -24 -16 -13 -14 -14 -16 -17 -19 -19 -19 -19 -20 -19 -16 -12 -11
2 2 1 1 -4 -6 -6 -7 -7 -7 -6 -8 -12 -14 -14 -14 -14 -16 -19 -20 -21 -22 -24 -28 -31 -27 -23 -20 -21 -22 -21 -20 -19 -20 -20 -20 -19 -19 -18 -16 -12 -11 -11

GFSMW_850_dewp_033.txt.gz
Dewpoint
-1 -1 -1 -1 -1 -1 -1 -1 -1 -1 2 4 6 4 3 6 9 9 9 9 10 11 11 8 4 7 10 10 7 9 10 9 8 4 -5 -6 -7 -9 -11 -11 -10 -10 -10
-4 -5 -5 -5 -4 -3 -3 -2 -1 -0 -0 0 1 1 2 2 3 8 8 9 8 8 11 10 8 10 11 10 8 9 9 9 8 3 -4 -6 -6 -8 -10 -10 -9 -9 -9
-6 -5 -5 -5 -5 -5 -5 -4 -2 -1 0 0 -0 0 1 2 2 4 7 8 7 7 8 9 10 11 11 10 9 9 9 9 9 6 -3 -4 -5 -5 -7 -8 -9 -9 -8
-2 -2 -3 -4 -5 -5 -5 -5 -5 -3 -1 -0 -0 0 0 1 1 1 1 4 8 9 8 8 10 9 10 10 9 9 9 9 9 7 1 -2 -3 -5 -5 -6 -7 -8 -7
-1 -1 -1 -2 -3 -5 -5 -4 -4 -4 -4 -2 -2 -1 -1 -1 -0 1 2 3 5 9 9 8 8 10 9 10 9 9 9 10 10 8 6 -2 -2 -2 -3 -3 -3 -5 -6
0 1 1 0 -2 -3 -4 -6 -3 -4 -4 -3 -3 -2 -1 -2 -2 -2 -1 0 2 7 9 9 8 9 9 9 9 9 10 10 10 9 7 0 -1 -1 -2 -2 -1 -2 -4
0 2 2 1 1 -0 -2 -4 -5 -4 -3 -4 -5 -4 -4 -3 2 -0 -1 2 2 2 4 7 8 8 8 8 8 9 10 10 10 10 6 -1 -1 -1 -1 -1 -1 -2 -4
1 2 3 2 2 1 1 1 -1 -4 -4 -1 -2 -2 -4 -4 -4 -4 -3 -1 1 5 6 5 6 9 9 9 8 8 10 10 10 9 5 1 -1 -1 1 1 -1 -2 -3
2 3 3 2 2 3 2 1 1 0 -1 -1 -1 -2 -2 -2 -2 -3 -2 0 3 4 5 7 6 7 8 9 8 8 10 10 9 9 5 0 -1 2 3 -0 -1 -4 -4
2 3 3 3 3 3 1 1 2 1 0 -1 0 -2 -3 -3 -4 -3 -3 -3 -1 1 5 8 9 8 8 9 10 9 10 9 8 6 4 1 2 3 1 -1 -1 -3 -5
3 3 3 3 3 3 2 2 2 2 3 3 2 0 -1 -4 -5 -5 -5 -4 -3 -0 5 7 9 9 10 10 10 10 10 7 6 3 1 2 2 1 -1 -0 -0 -5 -9
3 2 2 3 3 3 3 2 1 2 2 2 1 0 -1 -2 -4 -5 -4 -1 1 1 4 8 9 9 9 9 9 9 9 8 3 1 1 1 -1 1 1 -0 -1 -3 -5
2 2 2 2 2 3 2 2 3 2 2 2 2 1 0 -1 -1 -1 -3 1 4 4 6 8 8 8 8 8 8 8 6 3 1 1 1 0 1 1 1 1 -4 -4 -4
2 1 1 1 2 2 2 2 3 3 3 3 2 2 1 0 -2 -1 -2 2 6 7 7 7 8 8 7 7 6 5 2 -1 -1 0 1 1 1 0 -2 -1 -1 -1 -8
1 1 1 1 2 2 2 3 3 3 3 3 3 3 2 1 0 0 1 4 5 5 6 6 7 7 5 4 2 -1 -2 -0 0 1 1 0 -0 -0 -0 -0 -4 -16 -19
0 0 0 1 1 1 1 2 2 2 3 2 2 2 2 3 3 4 4 5 5 5 4 4 4 4 2 0 -2 -1 -0 0 1 1 0 -0 -0 -1 -3 -17 -19 -19 -21
-0 -0 -0 0 0 0 0 1 1 1 0 1 1 2 2 2 3 3 3 3 2 2 1 1 0 -0 -0 -0 -0 1 1 0 0 -1 -1 -1 -4 -17 -20 -20 -21 -22 -20
-0 -0 -1 -1 -1 -1 -1 -1 -1 -0 -1 -1 -0 0 0 1 1 1 0 0 1 1 1 0 -0 -0 -1 -0 -0 -0 -1 -0 -1 -0 -4 -17 -19 -20 -22 -25 -27 -25 -18
0 -0 -1 -1 -1 -1 -1 -2 -1 -1 -1 -1 -1 -1 -1 -1 -1 -0 -1 -1 -0 -0 -1 -1 -1 -0 -1 -2 -1 -1 -0 -0 -9 -19 -19 -19 -20 -25 -29 -26 -19 -13 -11
1 1 1 -0 -1 -1 -1 -1 -1 -1 -1 -1 -1 -1 -1 -1 -1 -1 -1 -2 -1 -1 -1 -2 -1 -1 -1 -1 -2 -11 -18 -18 -19 -18 -20 -25 -31 -27 -21 -8 -8 -9 -11
2 2 1 1 0 -0 -0 -1 -1 -1 -1 -1 -1 -1 -1 -1 -1 -1 -1 -1 -1 -2 -2 -1 -2 -3 -8 -14 -16 -19 -20 -20 -22 -26 -27 -23 -19 -14 -9 -9 -9 -13 -12
2 2 2 2 2 1 1 0 0 -0 -1 -1 -1 -1 -1 -1 -1 -1 -1 -1 -2 -5 -11 -14 -16 -17 -16 -17 -18 -18 -20 -25 -27 -22 -18 -15 -12 -9 -11 -13 -17 -20 -18
2 2 2 2 2 1 1 1 0 -0 -0 -1 -1 -2 -3 -5 -9 -13 -14 -14 -14 -15 -17 -18 -19 -19 -19 -20 -22 -25 -26 -21 -19 -18 -15 -13 -14 -17 -19 -20 -20 -20 -19
2 2 2 2 1 1 -0 -1 -1 -2 -5 -6 -7 -10 -13 -14 -14 -14 -15 -16 -17 -19 -21 -21 -22 -22 -25 -26 -23 -19 -18 -19 -18 -17 -17 -20 -21 -21 -20 -19 -19 -17 -13
2 2 2 2 0 -1 -2 -4 -5 -6 -5 -8 -12 -14 -14 -14 -14 -15 -17 -19 -21 -21 -22 -24 -26 -26 -25 -22 -19 -20 -18 -16 -17 -21 -21 -21 -20 -20 -19 -18 -15 -12 -11
2 2 2 1 -2 -4 -5 -5 -6 -6 -8 -11 -15 -14 -14 -15 -15 -18 -20 -21 -22 -23 -26 -28 -29 -26 -24 -22 -21 -21 -20 -19 -20 -21 -20 -20 -19 -19 -18 -14 -11 -11 -10

GFSMW_850_dewp_036.txt.gz
Dewpoint
-1 -1 -2 -2 -1 -1 -1 -1 -2 -2 -1 10 9 8 11 9 8 7 10 10 9 10 11 11 10 7 5 6 6 9 8 9 9 8 6 1 -6 -7 -9 -9 -10 -10 -10
-3 -4 -5 -5 -5 -3 -2 -2 -1 -1 -1 0 7 5 8 10 10 6 5 9 8 8 9 10 11 11 6 5 6 9 9 9 9 8 1 -2 -3 -7 -7 -8 -10 -10 -10
-3 -1 -1 -2 -5 -5 -5 -4 -3 -2 -2 -1 -0 7 9 7 6 4 3 3 7 8 9 8 9 9 9 6 7 10 9 8 9 9 6 -1 -1 -3 -5 -7 -9 -9 -9
-1 1 1 -0 -2 -4 -4 -5 -5 -5 -3 -2 -1 7 10 7 2 1 1 1 2 8 9 8 9 9 8 9 9 11 9 8 9 8 8 7 -1 -3 -3 -5 -7 -8 -8
0 1 2 0 -1 -2 -4 -5 -4 -5 -5 -5 -2 6 10 10 9 10 5 0 0 2 7 7 8 9 8 9 9 10 9 9 9 9 9 8 3 -3 -3 -3 -4 -6 -7
0 2 3 2 1 -0 -1 -2 -4 -4 -4 -4 -4 -2 6 10 10 11 11 9 6 1 2 5 7 7 9 9 8 9 10 9 9 9 9 9 7 3 -3 -3 -3 -3 -4
1 2 4 3 1 0 0 -0 -0 -2 -3 -1 -2 -3 -3 3 10 11 11 10 8 1 -0 2 5 6 7 8 9 9 9 10 9 9 9 9 8 6 1 -2 -3 -3 -3
1 3 4 4 3 2 2 1 1 1 0 -2 -3 -1 -1 -2 -2 4 8 10 10 9 0 4 7 7 8 7 8 8 9 9 10 10 10 9 8 5 -1 -1 -2 -3 -3
2 4 3 3 3 3 3 2 1 1 1 1 -1 -0 -1 -1 -2 -1 -0 -2 4 7 7 3 7 10 10 10 9 8 8 9 9 10 10 9 8 4 -0 -1 -2 -2 -2
3 3 2 3 3 3 2 2 2 1 2 2 1 0 0 -1 -2 -3 -2 -2 -0 4 4 4 4 6 10 10 10 10 10 10 10 10 10 8 4 3 -0 -2 0 2 3
3 2 2 2 3 3 3 3 2 1 1 2 2 2 1 0 -1 -2 -3 -3 -2 -1 0 2 5 7 7 9 9 9 9 9 9 9 8 6 7 2 -1 0 2 2 -1
2 1 1 2 2 2 3 2 1 2 1 2 2 2 1 -0 -1 -2 -3 -2 -1 -0 1 2 7 9 9 9 9 9 9 9 9 8 7 5 3 -0 1 0 0 1 2
2 1 0 1 1 2 2 2 2 3 3 2 2 2 2 1 0 -0 1 2 3 4 4 6 8 7 8 8 8 8 7 7 7 7 5 1 -1 1 0 1 1 1 0
1 1 0 1 1 2 2 2 2 3 3 3 3 3 3 2 2 1 1 1 1 1 5 5 6 6 6 6 7 7 6 5 5 3 1 1 1 1 1 1 0 -0 -1
1 0 0 1 1 1 1 1 2 2 3 2 3 3 2 3 3 3 2 3 2 1 2 5 6 6 5 4 5 4 4 4 2 0 -1 0 1 1 0 -0 -0 -1 -1
0 0 -0 -0 -1 -0 0 0 0 0 0 1 1 2 2 2 3 4 4 4 5 3 2 4 4 3 2 2 1 0 0 -1 -1 -1 0 1 0 -0 -1 -1 -1 -3 -11
-0 -0 -0 -1 -1 -1 -1 -1 -1 -0 -0 -0 0 1 1 2 2 3 3 3 3 3 3 2 1 1 1 -0 -1 -2 -2 -0 0 0 -0 -0 -1 -1 -1 -5 -17 -20 -20
0 0 -1 -1 -1 -2 -1 -1 -0 -0 -1 -1 -0 0 0 1 1 1 1 1 1 0 -0 -0 -1 -1 -1 -1 -1 -1 -0 -0 -0 -1 -1 -2 -3 -9 -19 -20 -22 -24 -27
1 1 -0 -1 -1 -1 -1 -1 -1 -1 -1 -1 -1 -0 -0 -0 -0 -0 -0 -1 -1 -1 -1 -1 -1 -1 -2 -1 -1 -2 -2 -2 -1 -5 -14 -18 -19 -21 -24 -25 -24 -20 -11
2 1 -0 -0 -1 -1 -1 -1 -1 -1 -2 -1 -1 -1 -1 -1 -1 -1 -1 -1 -1 -2 -2 -2 -2 -2 -2 -3 -1 -2 -6 -15 -18 -19 -20 -24 -28 -26 -20 -13 -8 -8 -10
2 1 1 1 0 -0 -0 -0 -1 -1 -1 -1 -1 -1 -1 -1 -2 -2 -2 -2 -2 -2 -2 -2 -2 -3 -6 -14 -19 -19 -18 -19 -21 -25 -27 -22 -21 -21 -17 -12 -10 -12 -15
2 2 2 1 1 1 0 -0 -0 -0 -1 -1 -1 -1 -1 -1 -2 -2 -2 -2 -3 -6 -11 -15 -16 -17 -15 -16 -18 -21 -24 -26 -26 -23 -22 -22 -20 -20 -19 -16 -15 -17 -19
2 2 2 1 1 1 0 -0 -1 -1 -1 -2 -2 -4 -8 -11 -13 -14 -14 -15 -15 -17 -19 -20 -20 -19 -19 -21 -23 -25 -24 -22 -22 -21 -19 -19 -18 -18 -19 -21 -21 -21 -20
1 2 2 1 1 -0 -1 -1 -3 -5 -6 -8 -12 -14 -14 -14 -14 -15 -16 -18 -20 -21 -21 -22 -22 -23 -26 -26 -25 -21 -20 -20 -18 -18 -19 -20 -21 -21 -21 -21 -20 -19 -16
2 2 2 2 0 -1 -2 -3 -5 -6 -8 -12 -15 -15 -15 -15 -16 -17 -19 -21 -21 -22 -23 -25 -27 -27 -25 -23 -23 -22 -15 -10 -13 -19 -20 -20 -20 -19 -19 -19 -17 -13 -11
2 2 2 2 -0 -2 -3 -5 -6 -7 -9 -14 -15 -15 -15 -15 -17 -20 -21 -22 -22 -24 -26 -28 -29 -25 -23 -23 -21 -19 -19 -19 -19 -20 -21 -20 -20 -20 -19 -15 -12 -11 -10

GFSMW_850_dewp_039.txt.gz
Dewpoint
-4 -2 -1 -1 -1 -1 -0 1 1 1 2 6 10 12 8 2 7 9 9 14 14 13 13 12 11 11 11 10 10 9 7 7 6 5 5 5 6 1 -2 -4 -3 -6 -9
-3 -3 -3 -1 -2 -3 -2 -0 1 1 1 0 3 9 8 2 1 5 8 9 10 12 13 12 11 11 11 11 11 9 7 7 8 7 6 4 3 5 -1 -5 -4 -5 -7
-4 -2 -1 1 1 -1 -4 -4 -3 -1 0 1 1 3 9 12 11 6 6 7 10 11 13 12 12 12 11 11 11 9 7 6 8 8 7 5 3 1 1 -4 -4 -5 -5
-1 0 1 2 2 0 -4 -4 -4 -4 -4 -2 0 2 6 10 12 12 11 10 8 7 12 12 12 12 12 11 10 9 8 7 8 9 8 7 3 0 -1 -2 -4 -5 -5
0 1 3 3 3 1 -2 -3 -4 -4 -4 -5 -4 -2 1 6 10 11 11 11 11 7 5 11 13 12 10 11 10 10 9 8 7 10 8 8 7 5 1 -1 -2 -4 -5
0 2 3 4 3 4 1 -0 -1 -1 -3 -4 -3 -3 -1 6 8 10 10 10 11 11 10 8 12 13 11 10 9 10 10 9 8 10 9 8 8 8 5 1 -1 -2 -2
0 2 3 4 4 4 2 2 2 2 2 1 -0 2 0 1 6 8 9 10 11 11 10 9 11 13 12 12 11 11 10 10 9 10 9 9 9 9 8 4 -0 -2 -2
1 3 4 4 4 4 4 3 3 3 4 4 3 2 3 3 3 1 4 9 10 10 10 10 7 10 11 11 11 11 10 10 10 10 10 9 9 9 9 9 4 -2 -3
2 3 3 3 3 4 4 3 3 3 4 4 3 4 4 4 4 2 4 6 8 9 9 10 10 7 8 10 10 10 10 10 10 10 10 9 9 9 9 8 3 -2 -3
3 3 3 2 3 4 4 4 4 3 3 2 3 4 4 4 3 1 1 3 5 4 9 9 10 9 10 10 10 10 10 9 9 9 9 9 8 8 6 2 -1 -0 -2
3 3 2 2 3 3 3 3 3 2 1 1 1 3 4 4 3 0 -0 -1 -3 -3 -0 5 9 9 9 9 8 9 9 8 8 8 8 8 8 7 5 3 5 6 6
3 2 1 1 2 2 2 2 3 2 2 2 2 3 4 5 6 2 -0 1 1 1 2 2 3 5 7 7 7 7 7 7 7 7 6 7 6 6 5 4 3 1 1
2 2 1 1 2 2 2 2 2 2 2 2 3 3 3 4 4 2 1 2 3 3 3 4 5 5 6 5 7 7 6 6 6 5 5 5 5 3 3 2 -0 -0 1
2 1 1 1 1 1 1 1 1 1 2 2 2 3 3 3 3 2 2 2 2 2 3 3 3 2 3 4 6 6 6 5 4 3 3 3 3 2 1 -0 1 1 1
1 1 1 1 1 0 -0 1 1 0 0 0 1 2 2 3 3 3 3 3 3 3 3 3 4 4 5 5 4 5 4 3 2 1 1 -0 -0 1 1 1 1 1 0
1 1 0 0 -0 -1 -0 0 -0 -0 -0 0 1 1 1 2 2 2 2 3 3 3 3 2 3 3 3 4 2 2 1 1 1 0 0 0 0 1 0 -0 -0 -1 -1
1 0 0 -0 -1 -1 -1 -1 -1 -0 -0 -0 0 1 1 1 1 2 2 2 2 1 2 2 2 2 2 0 -1 -1 -1 -1 -1 -1 -0 -1 -1 -1 -2 -2 -1 -2 -12
1 0 -0 -1 -1 -1 -1 -1 -0 -0 -1 -0 -0 0 1 1 1 1 1 1 1 1 0 0 -0 -0 -1 -1 -1 -1 -1 -1 -1 -1 -2 -2 -2 -1 -6 -13 -20 -22 -23
1 -0 -1 -1 -1 -1 -1 -1 -1 -1 -0 -0 -0 -0 -0 -0 -0 -0 -0 -0 -0 -0 -1 -1 -1 -1 -1 -2 -2 -2 -2 -2 -2 -2 -2 -10 -18 -20 -22 -26 -26 -18 -12
1 -0 -0 -1 -1 -1 -1 -1 -1 -1 -1 -1 -1 -1 -1 -1 -1 -1 -1 -1 -1 -2 -2 -2 -2 -2 -2 -2 -2 -1 -3 -12 -18 -19 -19 -23 -28 -30 -26 -23 -9 -7 -8
1 1 0 -0 -0 -0 -1 -1 -1 -1 -1 -1 -1 -1 -2 -2 -2 -2 -2 -2 -2 -2 -2 -3 -5 -7 -10 -18 -20 -20 -18 -20 -21 -23 -24 -24 -22 -20 -18 -15 -12 -10 -13
1 1 1 1 0 0 -0 -1 -1 -1 -1 -1 -1 -1 -2 -2 -2 -2 -3 -5 -9 -14 -16 -17 -18 -18 -18 -20 -21 -24 -27 -28 -26 -22 -20 -18 -21 -21 -20 -18 -16 -19 -21
2 2 1 1 1 0 -0 -2 -2 -2 -2 -3 -5 -7 -9 -12 -13 -14 -15 -16 -17 -18 -20 -20 -20 -21 -22 -24 -26 -27 -25 -23 -22 -21 -22 -20 -19 -20 -21 -22 -23 -22 -22
1 1 1 1 0 -1 -1 -2 -4 -6 -7 -10 -13 -15 -14 -15 -15 -16 -18 -20 -20 -21 -21 -22 -23 -25 -27 -27 -25 -22 -20 -19 -16 -12 -14 -20 -21 -22 -22 -22 -21 -21 -19
1 1 1 1 0 -1 -2 -3 -5 -7 -10 -14 -15 -15 -15 -15 -17 -19 -20 -21 -22 -23 -24 -25 -27 -28 -23 -24 -25 -24 -22 -20 -16 -20 -19 -19 -19 -19 -19 -19 -19 -15 -12
2 1 1 1 1 -1 -2 -3 -6 -8 -10 -14 -15 -15 -16 -16 -18 -20 -21 -22 -22 -23 -25 -28 -29 -29 -27 -25 -24 -23 -22 -21 -20 -19 -17 -16 -16 -16 -16 -16 -14 -11 -11

GFSMW_850_dewp_042.txt.gz
Dewpoint
-4 -4 -3 -2 -1 -1 -0 -0 0 1 1 2 8 12 12 8 8 5 9 10 13 13 12 11 11 11 11 11 11 11 11 9 7 5 4 2 3 4 4 2 -0 -3 -3
-5 -3 -2 -2 -2 -3 -2 -2 -1 -0 1 1 2 5 9 11 9 7 5 5 9 12 13 11 9 9 11 11 11 11 10 10 7 5 4 1 3 5 5 3 1 -1 -3
-3 -4 -2 0 0 -1 -3 -3 -2 -1 -0 1 2 2 3 5 12 10 5 1 3 8 9 13 12 9 10 11 11 11 11 10 8 6 5 4 5 5 5 5 3 -1 -2
-2 -1 1 2 3 2 -3 -4 -4 -4 -4 -3 0 1 1 2 4 10 10 9 7 5 6 11 12 13 11 10 10 11 10 11 10 7 6 6 6 5 3 3 2 -1 -2
-0 1 2 2 3 2 -0 -2 -3 -2 -3 -4 -4 -4 -3 -1 1 7 10 11 11 9 8 9 11 12 12 12 9 10 10 9 10 9 7 6 7 5 4 3 2 -1 -2
0 2 3 3 3 3 1 1 0 0 1 1 -1 -2 -2 -3 -2 2 6 9 10 10 10 10 10 11 11 11 11 12 11 11 10 9 9 7 7 8 4 4 4 3 1
0 2 3 4 4 3 2 2 2 2 2 2 2 1 2 2 1 1 7 9 8 10 10 10 10 10 10 10 11 10 11 10 10 10 10 9 8 8 8 6 4 3 1
1 3 4 3 3 3 3 3 3 3 3 3 3 3 3 3 3 3 2 4 8 9 10 10 10 10 10 10 9 10 10 10 10 9 9 9 9 8 9 7 6 2 1
1 3 3 3 3 3 3 3 3 3 3 3 2 3 3 3 3 3 3 3 4 5 7 9 9 9 10 10 9 9 8 9 9 9 9 8 8 8 8 7 5 5 4
2 3 3 2 2 3 3 3 3 3 3 2 1 2 3 4 4 5 3 1 1 3 3 3 4 9 8 9 9 9 8 9 9 9 8 8 7 7 8 7 6 5 4
3 3 2 2 2 3 3 2 3 2 2 1 1 2 4 5 6 4 1 0 -0 -1 -1 -1 1 5 7 8 8 8 8 8 9 8 8 7 7 7 7 6 6 5 3
3 2 2 1 1 2 2 2 2 2 2 2 2 3 4 5 5 5 2 0 0 1 1 1 1 3 6 7 7 7 6 7 7 7 7 6 6 6 5 5 4 3 2
3 2 1 1 1 1 2 2 2 2 2 2 2 2 3 3 4 3 2 2 2 1 2 1 1 1 3 4 4 3 3 6 6 6 6 5 4 4 4 3 2 2 2
2 1 1 1 1 1 1 1 1 1 1 1 2 2 2 2 3 3 3 3 2 2 2 3 3 3 3 4 4 5 5 5 5 6 4 4 3 2 2 1 1 1 1
1 1 1 1 1 1 0 0 1 1 0 0 1 1 2 2 2 2 2 3 2 3 3 3 3 3 3 3 3 4 4 4 4 3 2 1 1 0 -0 0 0 0 0
1 1 0 0 0 -0 -1 -1 -1 -1 -0 0 0 1 1 2 2 2 2 2 2 3 3 3 3 2 2 1 1 1 1 1 1 0 0 -0 -1 -1 -1 -0 -0 -1 -1
1 0 0 -0 -0 -1 -1 -1 -1 -0 0 0 0 0 1 1 1 1 1 1 1 2 2 2 1 1 -0 -1 -1 -1 -1 -1 -1 -1 -1 -1 -2 -2 -2 -2 -2 -2 -2
1 0 -0 -1 -1 -1 -1 -1 -0 -0 -0 -0 -0 0 0 0 -0 1 1 1 1 0 -0 -1 -1 -1 -1 -1 -1 -1 -1 -1 -1 -1 -2 -2 -2 -2 -2 -3 -9 -17 -21
1 -0 -1 -1 -1 -1 -1 -1 -1 -1 -0 -0 -0 -0 -0 -1 -0 -0 -0 -0 -1 -1 -1 -2 -2 -2 -2 -2 -2 -2 -2 -2 -2 -2 -2 -5 -11 -17 -21 -23 -22 -17 -12
1 -0 -1 -1 -1 -1 -1 -1 -1 -1 -1 -1 -1 -1 -1 -1 -1 -1 -2 -2 -2 -2 -2 -2 -2 -2 -2 -2 -3 -7 -16 -19 -20 -19 -20 -22 -24 -25 -21 -18 -16 -10 -9
1 -0 -0 -0 -1 -1 -1 -1 -1 -1 -1 -1 -1 -2 -2 -2 -2 -2 -2 -2 -4 -7 -12 -16 -17 -17 -19 -20 -22 -23 -24 -24 -23 -22 -21 -22 -21 -21 -21 -21 -18 -15 -14
1 1 0 -0 -0 -0 -1 -1 -1 -2 -2 -2 -2 -2 -3 -4 -6 -8 -11 -15 -17 -18 -20 -20 -21 -21 -21 -23 -26 -28 -27 -25 -23 -21 -20 -19 -21 -21 -21 -21 -21 -20 -21
1 1 1 1 0 0 -1 -2 -2 -3 -4 -7 -10 -12 -13 -14 -15 -15 -16 -17 -19 -20 -21 -22 -23 -24 -26 -27 -26 -25 -24 -23 -23 -22 -22 -21 -20 -21 -22 -22 -23 -22 -22
1 1 1 1 0 -1 -2 -3 -5 -7 -9 -12 -15 -15 -15 -15 -16 -17 -19 -20 -21 -21 -22 -23 -25 -27 -27 -26 -24 -23 -23 -22 -20 -19 -18 -21 -20 -21 -21 -21 -20 -21 -20
2 1 1 1 1 -0 -2 -4 -6 -9 -11 -14 -15 -15 -16 -16 -17 -19 -21 -22 -22 -23 -24 -25 -28 -29 -28 -27 -27 -25 -25 -24 -22 -22 -21 -21 -20 -21 -21 -20 -19 -18 -14
2 1 1 1 1 0 -1 -3 -5 -8 -11 -14 -16 -16 -16 -17 -18 -20 -21 -22 -22 -23 -24 -27 -30 -29 -28 -26 -24 -24 -23 -22 -21 -21 -20 -20 -20 -20 -20 -20 -19 -16 -13

GFSMW_850_dewp_045.txt.gz
Dewpoint
-4 -4 -4 -3 -3 -3 -2 1 1 2 3 10 12 12 11 10 9 10 11 11 11 11 12 12 12 12 11 11 10 11 11 11 11 11 9 5 3 3 3 3 3 3 3
-4 -3 -2 -2 -2 -2 -2 -1 -0 0 1 1 2 3 5 8 10 9 9 9 9 10 10 11 13 12 12 11 11 11 11 11 10 11 9 4 3 4 4 3 4 3 3
-3 -3 -3 -3 -3 -3 -3 -4 -3 -2 -2 -1 0 1 2 3 4 6 7 8 8 7 7 9 10 12 12 12 12 11 9 10 10 10 10 3 4 4 4 4 4 4 3
-3 -0 0 -0 -0 -3 -4 -5 -5 -5 -4 -2 -1 0 1 2 2 2 3 4 7 7 7 8 9 9 9 11 12 12 11 10 9 10 10 9 6 5 5 5 5 5 3
-1 0 0 -0 1 -1 -1 -2 -2 -2 -3 -4 -4 -4 -4 -2 0 1 2 5 8 9 8 8 8 8 9 9 11 11 12 10 10 9 10 9 8 5 5 5 5 5 4
0 1 1 2 3 3 3 1 1 1 1 0 -0 -1 -3 -3 -3 -3 -3 -0 4 7 9 9 9 9 10 10 10 9 11 12 11 10 10 10 9 6 5 5 5 5 5
-0 2 3 4 3 3 3 3 2 2 2 2 2 2 2 1 1 1 0 -1 6 8 9 10 10 10 10 10 10 9 9 10 11 10 10 10 10 9 8 6 5 4 4
1 2 3 3 3 3 3 3 3 3 3 3 2 2 3 3 3 2 2 2 2 5 6 8 7 8 9 9 9 10 9 9 10 10 10 10 10 9 9 8 7 5 4
2 3 3 3 3 2 3 3 3 3 3 2 1 1 2 3 3 3 3 2 2 2 2 5 7 7 7 8 8 8 8 8 8 8 8 7 7 8 8 8 7 7 5
1 3 3 3 2 2 3 3 3 2 2 2 1 1 2 4 4 4 3 2 2 1 1 2 3 3 3 6 7 7 7 7 7 7 7 8 9 8 8 7 7 6 5
3 3 3 2 2 2 2 2 2 1 1 1 1 1 2 4 5 5 4 1 -0 -1 -1 -1 -1 -1 2 5 5 4 6 7 7 7 7 7 7 7 7 7 5 5 5
3 3 2 2 1 1 1 2 1 1 1 1 2 2 2 4 5 4 4 3 1 -0 -0 -0 -1 -1 -1 2 5 6 6 6 5 5 5 6 6 5 5 6 5 5 3
3 3 2 1 1 1 1 1 1 1 1 2 2 2 2 2 3 3 3 3 2 2 2 1 1 1 0 0 2 3 3 3 5 5 5 5 5 4 4 4 4 3 2
3 2 1 1 1 1 1 1 1 1 1 1 1 1 2 2 2 3 3 3 3 2 2 2 2 2 2 2 3 2 3 3 4 4 4 4 4 4 3 2 2 2 1
2 1 1 1 1 1 0 0 0 0 0 0 0 1 1 2 2 2 2 2 2 2 2 2 2 2 2 2 2 3 3 3 3 3 3 3 2 1 1 0 -0 -0 -0
2 1 1 1 0 -0 -0 -1 -1 -0 -0 0 0 0 1 2 2 2 2 2 2 2 2 2 2 2 1 1 0 1 1 1 1 1 0 0 -0 -0 -1 -1 -1 -2 -1
2 1 1 -0 -0 -1 -1 -0 -1 -0 -0 0 0 0 1 1 1 1 1 1 1 1 1 0 -0 -0 -1 -1 -1 -1 -1 -1 -1 -1 -1 -1 -1 -1 -1 -1 -2 -2 -3
1 1 -0 -1 -1 -1 -1 -1 -0 -0 -0 0 0 0 0 1 0 1 1 0 -0 -1 -1 -1 -1 -1 -2 -2 -2 -2 -2 -2 -1 -1 -2 -2 -2 -2 -2 -2 -4 -9 -14
1 0 -1 -1 -1 -1 -1 -0 -1 -0 0 0 -0 -0 -0 -0 -0 -0 -0 -1 -2 -2 -2 -2 -2 -2 -2 -2 -2 -3 -3 -4 -4 -5 -9 -13 -18 -22 -24 -25 -24 -21 -15
1 -0 -1 -1 -1 -1 -1 -1 -1 -1 -1 -1 -1 -1 -1 -1 -1 -2 -2 -2 -2 -2 -4 -6 -8 -11 -16 -20 -21 -22 -21 -22 -22 -24 -25 -25 -26 -24 -23 -23 -20 -18 -13
1 -0 -0 -1 -1 -1 -1 -1 -1 -1 -1 -2 -2 -2 -2 -2 -2 -2 -3 -7 -14 -18 -19 -19 -20 -20 -22 -23 -25 -28 -28 -28 -28 -25 -23 -21 -21 -22 -21 -20 -19 -16 -13
1 0 -0 -0 -1 -1 -2 -1 -1 -1 -1 -2 -2 -2 -3 -5 -7 -11 -16 -17 -19 -21 -21 -21 -22 -23 -24 -27 -27 -28 -27 -27 -25 -23 -21 -20 -20 -20 -21 -21 -21 -22 -21
1 1 0 0 -0 -1 -2 -2 -2 -2 -3 -5 -8 -10 -12 -14 -16 -17 -18 -20 -21 -22 -22 -22 -23 -24 -26 -26 -25 -25 -25 -24 -23 -22 -21 -19 -19 -20 -21 -21 -21 -21 -21
2 1 1 1 -0 -1 -3 -5 -6 -6 -8 -12 -14 -15 -15 -16 -17 -18 -19 -21 -22 -22 -23 -24 -26 -28 -29 -28 -26 -25 -24 -23 -23 -23 -22 -22 -21 -20 -20 -21 -20 -20 -19
2 1 1 1 0 -1 -3 -5 -7 -8 -11 -14 -15 -16 -16 -16 -17 -19 -20 -22 -22 -23 -23 -25 -28 -30 -29 -27 -26 -25 -24 -23 -22 -22 -22 -21 -21 -21 -21 -20 -19 -19 -16
2 2 1 1 1 1 -1 -3 -5 -8 -10 -13 -16 -16 -16 -16 -17 -19 -20 -21 -22 -22 -23 -26 -30 -30 -27 -25 -24 -23 -22 -22 -21 -21 -20 -21 -21 -21 -21 -20 -20 -19 -17

GFSMW_850_dewp_048.txt.gz
Dewpoint
-3 -4 -3 -2 -3 -3 -3 2 3 3 3 4 9 12 12 12 12 11 12 12 11 12 12 12 12 12 12 11 12 11 11 11 11 11 10 9 9 9 8 4 3 3 3
-3 -3 -3 -2 -2 -2 -2 -0 1 1 1 2 4 9 11 10 9 10 11 11 11 11 11 11 11 11 12 12 12 11 11 11 11 11 11 10 9 9 9 6 4 3 3
-3 -3 -2 -2 -2 -2 -2 -2 -2 -1 -1 -0 0 1 2 3 5 5 4 7 9 10 10 10 10 10 10 11 11 11 11 11 10 10 11 9 9 8 7 6 5 4 3
-3 -3 -3 -3 -3 -2 -3 -4 -4 -4 -4 -3 -2 -1 -1 0 1 2 2 2 2 3 4 7 9 9 9 10 10 10 10 11 11 10 11 11 10 7 6 6 6 5 3
-3 -2 -1 -1 -1 -2 -3 -4 -5 -4 -4 -4 -4 -4 -4 -3 -2 -1 0 1 1 2 4 7 8 9 8 6 8 9 10 10 11 12 10 10 10 10 9 7 7 6 6
0 0 1 1 -0 -1 -0 -1 -1 -1 -1 -2 -2 -2 -2 -3 -3 -3 -3 -4 -3 -2 1 3 7 7 9 10 9 9 9 9 10 11 10 11 10 10 9 8 7 7 6
1 1 2 2 2 2 2 1 1 1 1 1 1 1 1 1 0 -0 -1 -2 -1 -2 -1 5 8 8 9 10 10 9 10 10 10 9 10 10 10 10 10 9 9 7 7
0 1 2 3 3 2 2 2 2 2 2 1 1 2 2 1 2 2 2 2 2 1 1 2 7 8 9 10 10 9 9 9 9 8 9 9 9 9 9 9 8 6 7
0 2 3 3 3 3 2 2 2 3 2 2 1 1 1 2 2 2 3 3 3 3 3 2 3 4 6 7 7 6 8 8 8 7 7 8 9 9 8 8 8 7 6
1 3 3 3 3 3 2 2 3 3 2 1 1 1 1 1 2 3 3 3 2 2 2 2 1 1 2 3 4 5 7 8 8 7 6 5 6 8 6 6 6 6 6
2 3 3 3 3 2 2 2 2 2 2 1 1 1 1 2 3 4 3 3 2 0 0 0 -0 -0 -1 -1 -0 1 2 3 4 4 6 6 6 5 6 6 5 5 6
2 3 3 3 2 2 1 1 1 2 1 1 1 1 2 2 3 4 2 3 3 2 1 1 0 -0 -1 -1 -0 0 1 2 5 5 4 6 5 5 5 5 5 4 4
3 3 3 2 2 1 1 1 1 1 1 1 1 2 2 2 2 3 3 2 2 2 2 2 2 2 1 1 1 1 0 2 2 2 3 4 4 4 4 3 3 3 2
2 3 2 2 1 1 1 1 1 1 1 1 1 1 1 2 2 2 2 2 2 2 2 2 2 2 2 2 1 2 2 2 3 2 3 3 3 3 3 3 2 1 1
3 2 2 1 1 1 1 0 0 1 1 1 0 0 1 1 2 2 2 2 2 2 1 2 1 2 2 2 2 2 2 2 2 2 2 2 2 1 1 1 0 -0 -0
2 2 1 1 1 0 -0 0 0 -0 -0 -0 -0 0 0 1 2 2 2 2 2 2 2 2 1 1 0 -0 -0 -0 -0 0 0 -0 -0 -0 -0 -0 -0 -0 -0 -0 -1
2 2 1 1 -0 -1 -1 -0 -0 -0 -0 -1 -0 0 1 1 1 1 1 1 1 1 1 0 -0 -1 -1 -2 -2 -2 -1 -1 -1 -1 -1 -1 -1 -1 -2 -2 -2 -2 -2
2 2 1 0 -1 -1 -1 -0 -0 -0 -1 -1 -0 0 1 1 1 1 1 1 0 -1 -1 -2 -2 -2 -2 -2 -2 -2 -2 -3 -2 -2 -2 -2 -3 -4 -4 -5 -8 -12 -15
2 2 1 -1 -1 -1 -1 -0 -0 -0 -0 0 0 0 0 0 0 0 -0 -1 -2 -2 -2 -2 -3 -5 -10 -16 -21 -22 -22 -21 -21 -22 -22 -23 -25 -26 -28 -28 -26 -24 -20
2 1 -0 -1 -1 -1 -1 -0 -0 -0 -1 -1 -1 -0 -0 0 -0 -2 -2 -2 -2 -5 -11 -16 -20 -21 -22 -24 -25 -27 -27 -27 -28 -28 -28 -26 -24 -24 -23 -24 -23 -22 -20
2 1 -1 -1 -1 -1 -1 -1 -1 -1 -2 -1 -1 -1 -1 -2 -2 -2 -3 -10 -17 -19 -20 -21 -22 -23 -25 -27 -29 -30 -29 -28 -27 -25 -24 -23 -24 -24 -23 -23 -23 -22 -21
1 0 -0 -1 -1 -1 -1 -2 -2 -2 -2 -2 -2 -2 -2 -2 -4 -10 -16 -18 -20 -21 -22 -22 -24 -25 -27 -28 -28 -26 -26 -27 -24 -22 -22 -22 -23 -23 -22 -22 -21 -21 -22
1 0 -0 -0 -1 -1 -2 -2 -2 -3 -4 -3 -4 -6 -7 -11 -16 -17 -18 -20 -21 -22 -22 -23 -24 -27 -29 -29 -27 -26 -25 -24 -23 -23 -22 -20 -20 -20 -20 -21 -21 -21 -21
2 1 0 0 -0 -1 -2 -3 -5 -7 -8 -11 -13 -13 -14 -16 -17 -18 -19 -20 -21 -22 -23 -24 -26 -29 -30 -29 -27 -26 -24 -23 -22 -21 -21 -21 -21 -20 -20 -20 -20 -20 -19
3 2 1 1 1 -0 -2 -5 -7 -9 -11 -14 -15 -16 -16 -16 -17 -18 -19 -21 -22 -22 -23 -24 -27 -30 -30 -28 -26 -25 -24 -23 -22 -19 -19 -20 -21 -21 -21 -21 -21 -20 -19
4 3 2 1 1 1 -0 -3 -5 -8 -10 -13 -16 -16 -16 -16 -17 -18 -20 -21 -22 -22 -23 -24 -28 -30 -28 -25 -24 -24 -23 -22 -21 -20 -20 -19 -21 -21 -21 -22 -22 -21 -20

GFSMW_850_dewp_051.txt.gz
Dewpoint
-1 -1 -1 -1 -2 -2 -1 1 4 6 11 12 11 13 12 13 13 12 12 12 12 13 13 13 13 13 12 12 12 12 12 12 12 12 11 11 11 10 10 10 9 9 9
-2 -2 -3 -3 -2 -2 -2 -2 -1 4 5 5 5 6 8 10 10 12 12 12 12 13 13 12 11 11 11 11 11 12 12 12 12 11 11 11 10 10 9 9 9 8 9
-2 -3 -3 -3 -2 -2 -2 -1 -0 1 1 1 1 2 3 6 8 9 8 9 10 11 12 11 11 11 11 11 10 11 11 11 11 11 11 11 9 9 8 8 7 6 6
-2 -3 -3 -2 -2 -2 -2 -2 -2 -2 -2 -2 -2 -1 -0 1 1 2 2 2 3 3 4 4 5 6 7 8 9 9 8 10 10 11 11 11 11 10 9 8 8 7 7
-2 -3 -3 -2 -2 -2 -2 -3 -3 -3 -4 -4 -4 -3 -3 -2 -2 -2 -1 -1 0 1 1 1 2 3 6 7 8 8 6 9 9 10 11 11 10 10 10 9 9 9 9
-2 -3 -1 -1 -1 -1 -1 -2 -3 -3 -3 -3 -2 -1 -1 -1 -2 -2 -3 -3 -3 -3 -3 -2 -2 -0 3 8 8 9 10 9 9 9 10 10 10 9 9 9 8 8 8
-3 -1 0 0 0 -0 0 0 0 -0 -0 -0 0 1 1 1 0 0 0 0 -0 -0 -0 -0 0 2 6 6 7 10 10 10 9 9 10 9 8 9 9 9 8 8 8
-0 1 1 1 1 1 2 2 1 1 1 1 1 1 1 1 1 1 1 2 2 2 1 1 1 2 5 8 9 10 10 9 8 7 9 8 7 8 8 7 8 7 6
2 2 2 2 2 2 2 2 2 1 2 2 2 1 0 -0 0 1 2 2 2 2 2 2 2 2 2 4 6 8 9 8 8 5 7 7 7 6 5 6 7 7 6
2 2 3 3 3 3 3 2 2 2 2 2 2 1 0 0 1 2 2 3 3 2 1 0 1 1 1 1 2 4 5 6 6 7 8 8 7 7 8 7 6 6 6
1 2 3 3 3 3 3 2 2 2 2 2 2 1 1 1 2 3 3 3 2 3 1 1 1 0 0 0 0 0 1 2 3 4 4 5 5 5 6 6 6 5 5
0 2 2 2 3 3 2 2 1 1 1 2 1 1 1 2 2 3 3 3 2 2 2 1 1 0 0 -0 -0 -0 -0 -0 1 3 5 4 4 4 4 4 4 4 3
2 3 2 2 3 2 2 1 1 1 1 1 1 1 1 2 2 2 3 2 2 2 2 2 2 2 2 1 1 1 1 1 1 1 1 1 2 3 3 3 3 3 2
2 2 2 2 2 2 1 1 1 1 0 1 1 1 1 1 2 2 2 2 2 2 2 2 2 2 1 1 1 1 2 2 2 2 2 2 2 2 2 2 2 2 1
2 2 2 2 2 2 1 1 0 0 0 1 1 0 1 1 1 2 2 2 2 2 1 2 1 1 1 1 1 1 1 1 1 1 2 2 1 1 1 0 0 0 -0
1 2 2 2 2 1 1 -0 -0 0 0 -0 -0 -0 -0 0 1 2 2 2 2 2 2 2 1 0 -0 -1 -1 -1 -1 -1 -1 -1 -1 -1 -1 -1 -1 -1 -1 -1 -1
1 2 2 2 1 1 -0 -1 -0 -0 -0 -1 -1 -1 -1 -0 1 2 1 1 1 1 1 0 -0 -1 -2 -2 -2 -2 -2 -2 -2 -2 -2 -2 -2 -2 -2 -2 -2 -2 -2
1 2 2 2 1 -0 -1 -1 -1 -0 -0 -0 -0 -1 -1 -0 -0 1 1 1 0 -0 -1 -2 -2 -2 -3 -7 -14 -18 -21 -23 -22 -22 -22 -21 -21 -23 -25 -26 -25 -24 -23
1 1 1 1 0 -1 -1 -1 -0 -0 -0 -0 -1 0 -1 -1 -0 0 0 -0 -1 -2 -2 -4 -10 -19 -22 -23 -25 -27 -29 -30 -30 -30 -29 -28 -27 -25 -27 -26 -26 -24 -23
1 1 1 1 -1 -1 -1 -1 -0 -0 0 -0 0 -0 -1 -1 -0 -1 -2 -2 -2 -6 -16 -21 -22 -24 -25 -27 -30 -31 -31 -31 -30 -29 -27 -26 -25 -25 -25 -26 -24 -23 -22
1 2 1 -0 -1 -1 -2 -1 -1 -1 -1 -1 -1 -0 -0 -0 -1 -2 -2 -7 -17 -20 -21 -23 -24 -25 -28 -29 -31 -31 -29 -28 -28 -26 -25 -24 -24 -24 -24 -23 -23 -22 -21
2 1 1 -1 -1 -1 -2 -2 -2 -2 -2 -2 -1 -2 -2 -2 -2 -4 -14 -18 -21 -21 -22 -23 -25 -26 -29 -30 -29 -29 -27 -27 -26 -24 -24 -23 -24 -24 -23 -23 -22 -22 -23
2 1 0 -0 -1 -1 -2 -2 -2 -2 -2 -2 -2 -3 -3 -4 -10 -16 -18 -20 -21 -22 -23 -23 -25 -27 -29 -29 -28 -27 -26 -25 -25 -24 -23 -22 -22 -22 -22 -22 -22 -23 -22
1 1 0 -0 -0 -1 -1 -3 -2 -3 -3 -4 -5 -8 -10 -13 -17 -18 -19 -20 -21 -22 -23 -23 -24 -27 -29 -29 -28 -26 -25 -24 -23 -23 -22 -21 -21 -22 -22 -22 -22 -22 -21
4 3 2 1 0 0 -0 -2 -3 -4 -6 -7 -10 -12 -14 -16 -16 -17 -18 -20 -21 -22 -23 -23 -24 -27 -29 -28 -26 -25 -24 -24 -23 -23 -22 -21 -21 -22 -22 -22 -22 -22 -21
4 4 4 4 3 2 0 -1 -4 -5 -7 -9 -12 -14 -16 -16 -16 -17 -18 -20 -21 -22 -22 -23 -23 -28 -29 -27 -25 -24 -24 -24 -22 -23 -23 -22 -22 -22 -22 -22 -22 -22 -22

GFSMW_850_dewp_054.txt.gz
Dewpoint
2 1 -1 -1 -1 1 4 6 9 10 12 12 12 13 12 12 12 12 12 12 12 12 12 13 13 13 13 12 12 12 12 12 12 12 11 11 11 10 10 10 10 9 9
2 0 -0 -1 -1 -1 -2 -0 4 6 7 9 12 13 11 11 12 12 12 12 12 12 12 13 13 13 12 12 11 11 12 11 11 12 12 12 11 10 9 8 8 8 8
-1 -1 -1 -2 -2 -2 -2 -2 -2 -0 3 8 9 10 9 7 8 10 12 12 13 13 12 12 12 12 12 11 11 10 11 11 9 10 11 11 9 9 9 9 9 9 8
-1 -1 -2 -3 -3 -2 -2 -1 -1 -0 0 1 1 1 1 1 1 2 5 7 6 6 6 5 5 6 7 7 8 9 9 9 9 8 9 11 11 11 10 9 8 8 7
-0 -1 -2 -2 -3 -2 -2 -2 -2 -2 -2 -3 -3 -3 -3 -3 -3 -2 -1 -1 -0 -0 0 1 1 1 2 2 3 5 8 9 9 10 10 11 10 10 10 9 9 8 8
-1 -1 -2 -1 -1 -2 -2 -2 -2 -3 -3 -3 -3 -3 -3 -3 -3 -3 -3 -3 -3 -3 -3 -3 -3 -3 -3 -2 -0 4 10 10 10 10 10 10 10 10 10 9 9 8 7
-2 -1 -2 -1 -0 -1 -1 -1 -1 -1 -1 -1 -1 -0 -0 -0 -0 -0 -0 -0 -0 0 0 -0 -1 -1 -1 0 2 4 5 8 10 8 9 9 8 8 8 8 7 7 7
-5 -2 -2 -1 -0 0 1 1 1 1 1 1 1 1 1 1 0 0 -0 0 1 1 1 2 2 2 1 2 4 8 8 9 10 9 8 8 7 6 7 8 8 7 6
-4 -2 0 1 2 2 2 2 2 1 2 2 2 2 2 1 0 -0 0 1 2 2 2 1 1 2 2 2 3 5 8 7 8 7 7 7 9 7 6 7 7 5 6
-1 2 3 3 2 2 2 2 2 2 2 2 2 2 2 1 0 0 1 2 2 2 2 1 0 0 1 1 2 2 3 4 6 7 7 8 8 7 7 6 6 6 5
2 3 3 3 3 3 2 2 2 2 2 1 1 1 1 1 1 1 2 2 2 2 2 1 0 0 0 0 0 1 1 2 3 4 4 4 4 6 4 4 5 5 4
2 2 2 3 3 3 2 2 2 2 1 1 1 1 1 1 1 2 3 3 3 2 2 2 1 1 1 1 0 0 0 0 1 1 2 3 2 3 3 3 3 3 3
1 2 3 3 3 2 2 2 2 1 1 1 1 1 1 1 2 2 2 2 2 2 2 2 2 2 2 2 1 1 1 1 1 1 1 2 2 2 2 2 2 2 2
1 2 2 2 2 2 2 2 1 1 1 0 0 1 1 1 1 2 2 2 2 2 2 2 2 2 1 1 1 1 1 2 2 2 2 2 2 2 1 1 1 1 1
1 2 2 2 2 2 2 2 1 1 -0 0 1 1 1 1 1 1 2 2 2 2 2 1 1 1 1 1 1 1 1 1 1 1 0 0 -0 0 0 0 -0 -0 -0
-0 1 1 2 2 2 2 1 1 -0 -0 1 0 -0 -0 0 0 1 2 2 2 2 2 2 1 0 -1 -1 -1 -1 -1 -1 -1 -1 -1 -1 -1 -1 -1 -1 -1 -2 -2
-1 -0 0 1 2 2 1 1 -0 -1 -0 0 -0 -0 -0 -1 -0 -0 0 1 1 1 1 0 -0 -1 -2 -2 -2 -2 -4 -8 -11 -12 -14 -15 -14 -17 -21 -22 -20 -15 -16
-2 -0 -0 1 2 1 1 -0 -1 -1 -0 -0 -1 -1 -1 -1 -0 -1 -0 -0 1 0 -0 -1 -2 -2 -4 -14 -23 -25 -26 -28 -29 -30 -31 -30 -28 -28 -28 -29 -27 -26 -25
-3 -1 0 2 1 1 1 -1 -1 -0 -0 -0 -1 -1 -1 -1 -1 -0 -0 0 -0 -1 -2 -3 -11 -21 -24 -26 -28 -31 -32 -32 -32 -31 -29 -28 -26 -26 -29 -27 -27 -26 -25
-3 -1 1 1 1 1 -1 -1 -1 -0 -0 -0 -1 -1 -1 -1 -0 0 0 -1 -2 -3 -10 -21 -23 -25 -27 -30 -32 -32 -31 -29 -29 -28 -27 -25 -25 -26 -25 -26 -25 -25 -24
-0 1 1 1 1 -0 -1 -1 -1 -1 -0 -0 -0 -0 -1 -1 0 -1 -2 -2 -8 -18 -22 -24 -24 -26 -28 -29 -30 -30 -29 -28 -28 -27 -26 -25 -25 -26 -25 -25 -24 -23 -24
0 0 1 1 0 -1 -1 -2 -2 -1 -1 -1 -1 -0 -0 -0 -1 -2 -3 -15 -19 -21 -22 -23 -24 -26 -28 -29 -29 -29 -28 -28 -27 -26 -26 -25 -25 -26 -25 -24 -23 -23 -24
1 1 1 1 -0 -0 -1 -2 -2 -2 -2 -2 -2 -1 -1 -2 -2 -5 -16 -20 -21 -22 -22 -23 -24 -25 -28 -28 -29 -27 -26 -26 -26 -26 -26 -25 -24 -23 -23 -23 -23 -23 -23
1 2 2 1 -0 -1 -1 -2 -2 -2 -2 -2 -3 -3 -3 -3 -7 -15 -18 -19 -21 -21 -22 -23 -23 -24 -27 -29 -28 -27 -26 -25 -25 -25 -25 -23 -23 -22 -23 -23 -23 -23 -23
4 4 3 2 1 0 -0 -1 -2 -2 -3 -3 -4 -4 -6 -7 -13 -16 -17 -19 -20 -21 -22 -22 -23 -24 -27 -29 -28 -26 -26 -26 -25 -26 -24 -23 -24 -23 -23 -23 -23 -23 -23
4 4 4 4 4 4 3 1 -1 -3 -4 -4 -6 -7 -9 -12 -14 -16 -16 -18 -19 -21 -22 -22 -22 -23 -26 -29 -27 -26 -26 -26 -26 -24 -24 -23 -24 -24 -23 -23 -23 -23 -23

GFSMW_850_dewp_057.txt.gz
Dewpoint
2 2 -0 -1 0 9 9 7 8 10 11 11 12 12 12 12 12 12 12 12 12 12 12 12 12 12 13 13 12 12 12 11 11 12 11 9 10 10 10 10 9 9 8
1 2 2 2 -1 -1 1 3 3 6 8 8 9 9 10 11 11 11 12 12 12 12 12 13 12 12 12 12 12 12 12 12 11 11 12 11 9 9 8 9 9 9 8
1 2 1 0 -0 -1 -1 -2 -1 2 5 6 7 8 9 11 12 9 9 10 11 11 12 12 12 12 12 11 11 12 12 11 11 11 11 10 9 9 9 9 8 8 8
2 2 2 -1 -1 -1 -2 -2 -1 -0 1 2 4 7 8 7 6 4 3 4 5 8 10 10 9 8 7 7 7 8 9 10 10 10 9 9 9 10 10 9 8 8 7
1 0 -0 -1 -2 -2 -2 -1 -1 -0 -0 -0 -0 -0 -1 -1 -2 -2 -2 -2 -1 -0 0 0 0 0 1 1 2 2 3 5 9 10 9 9 10 10 9 9 9 8 8
0 0 -0 -1 -2 -2 -1 -1 -1 -2 -2 -2 -2 -3 -3 -3 -3 -3 -3 -3 -2 -2 -3 -3 -3 -3 -3 -3 -3 -3 -2 1 7 11 10 9 10 9 9 9 9 8 7
-1 -1 -0 -1 -2 -2 -1 -1 -1 -1 -2 -2 -2 -2 -2 -2 -2 -2 -1 -1 -1 -0 -0 0 0 0 -0 -1 -1 -1 -0 3 3 8 10 9 10 10 9 8 8 7 7
-5 -4 -1 -1 -2 -2 -1 -0 -1 -1 -1 -1 -1 -1 -0 -0 0 0 0 -0 -1 -1 -0 -0 0 1 1 1 1 1 2 8 8 10 10 9 8 9 9 8 7 6 6
-5 -4 -4 -1 -1 0 0 1 0 -0 -1 -0 0 1 1 1 1 1 0 -0 -0 0 0 0 -0 -0 0 1 2 2 4 7 10 10 9 9 7 7 6 8 6 6 6
-5 -3 -3 -0 2 2 2 1 1 1 1 1 1 1 1 1 1 1 1 1 1 1 1 0 1 0 -0 0 1 2 3 4 7 8 7 8 7 6 6 6 6 5 5
-3 -2 0 3 3 2 2 2 2 2 2 2 1 1 1 1 1 1 1 1 1 1 1 1 1 1 0 0 1 1 2 2 3 4 4 4 5 6 5 4 4 4 4
0 2 3 3 3 3 2 2 2 2 2 2 1 1 1 1 1 1 2 2 2 2 2 2 2 1 1 1 1 1 1 1 1 2 2 1 1 2 3 3 3 3 3
3 3 3 3 2 2 2 2 2 2 2 1 1 1 1 1 1 1 2 2 2 2 2 2 2 2 2 2 2 2 1 1 1 1 1 1 2 2 2 2 1 1 1
2 2 3 2 2 2 2 2 2 2 2 1 1 -0 0 1 1 1 2 2 2 2 2 2 2 2 2 1 1 1 1 1 2 2 2 1 2 2 1 1 1 1 1
-0 1 1 2 2 2 2 2 2 2 1 0 -0 -0 1 1 1 1 1 2 2 2 2 1 1 1 1 1 1 1 1 1 1 1 0 -0 -1 -0 -0 -0 -0 -1 -1
-2 -1 0 1 2 2 2 2 2 1 1 -1 -0 1 0 0 0 1 1 1 2 2 2 1 1 0 -0 -1 -1 -1 -1 -1 -1 -2 -3 -3 -3 -4 -4 -4 -6 -7 -5
-2 -0 -0 1 1 1 2 2 1 1 -0 -1 0 0 0 -0 -0 0 -0 0 1 1 1 1 0 -1 -2 -2 -2 -2 -6 -14 -16 -20 -24 -24 -25 -28 -28 -28 -29 -29 -29
-3 -2 -1 0 1 1 2 2 1 0 -1 -1 -0 -0 -0 -1 -1 -0 -0 -0 -0 0 1 -0 -1 -2 -3 -13 -23 -26 -27 -29 -31 -31 -30 -30 -30 -29 -29 -29 -28 -27 -26
-4 -4 -2 -1 1 2 2 1 1 -1 -1 -0 -0 -0 -1 -1 -0 -1 -1 -1 -1 -1 -1 -2 -6 -20 -24 -26 -30 -31 -31 -30 -29 -28 -27 -28 -27 -27 -28 -27 -26 -25 -25
-3 -4 -3 -0 0 2 1 1 -1 -1 -1 -0 -0 -0 -1 -1 -1 -1 -1 -1 -1 -1 -3 -12 -23 -25 -27 -31 -32 -31 -29 -28 -28 -27 -26 -25 -26 -26 -27 -26 -25 -25 -24
-2 -3 -1 -0 2 1 1 0 -1 -1 -1 -0 -0 -1 -1 -1 -1 -1 -1 -1 -2 -6 -18 -23 -24 -26 -28 -29 -30 -30 -28 -28 -27 -26 -25 -25 -25 -25 -25 -26 -25 -25 -25
1 0 1 2 1 1 0 -1 -1 -1 -1 -1 -1 -1 -1 -1 -1 -1 -2 -2 -9 -19 -22 -23 -23 -25 -27 -28 -29 -29 -28 -27 -27 -25 -25 -26 -26 -25 -24 -24 -24 -24 -24
0 1 1 1 1 1 -1 -1 -2 -2 -1 -2 -1 -1 -1 -1 -1 -2 -2 -13 -18 -19 -21 -22 -23 -24 -26 -27 -28 -27 -27 -27 -26 -26 -25 -26 -25 -24 -23 -23 -24 -24 -24
1 1 2 2 1 -0 -0 -1 -1 -2 -2 -2 -2 -1 -1 -1 -2 -2 -10 -18 -20 -21 -22 -22 -23 -23 -24 -26 -27 -27 -26 -25 -25 -26 -25 -24 -24 -24 -24 -23 -24 -23 -24
3 3 3 3 1 0 -0 -1 -1 -2 -2 -3 -2 -2 -3 -3 -3 -8 -16 -18 -19 -20 -21 -22 -22 -23 -23 -26 -28 -28 -26 -26 -26 -28 -24 -23 -24 -24 -24 -24 -24 -24 -24
3 4 4 4 4 4 3 2 2 1 -2 -3 -4 -4 -4 -5 -7 -13 -16 -17 -18 -20 -20 -21 -22 -22 -23 -24 -28 -28 -26 -26 -26 -26 -23 -23 -24 -25 -25 -24 -24 -24 -24

GFSMW_850_dewp_060.txt.gz
Dewpoint
3 3 2 0 5 9 9 10 10 10 11 10 11 12 11 12 12 12 12 12 12 12 12 12 12 12 12 12 13 12 12 12 12 11 11 12 11 9 8 10 10 9 8
3 3 2 2 1 -0 4 8 8 9 10 10 11 11 11 11 12 12 12 12 12 12 12 12 12 12 12 11 11 12 12 12 12 12 12 12 9 9 8 8 9 8 8
3 3 2 2 1 1 -1 -1 5 7 7 8 8 9 9 8 9 10 11 10 9 10 11 11 11 11 12 12 13 13 12 12 12 11 12 11 8 8 9 9 8 8 8
3 3 2 2 1 0 -1 -1 -1 -1 4 6 6 7 9 8 7 10 9 9 7 6 6 7 9 11 12 11 10 8 8 10 11 12 11 11 11 10 9 9 8 8 8
3 2 1 1 1 -1 -1 -1 -1 -1 0 3 5 5 5 4 2 1 0 -0 -1 -2 -2 -1 0 1 1 1 1 1 1 2 4 6 10 10 11 10 10 10 8 7 7
1 1 1 1 0 -0 -1 -1 -2 -1 0 1 1 -0 -1 -1 -2 -3 -3 -4 -4 -4 -3 -3 -3 -3 -3 -3 -3 -3 -3 -3 -2 1 6 10 11 10 9 10 9 9 8
0 1 1 0 0 0 -1 -2 -2 -1 -1 -1 -2 -2 -3 -3 -3 -3 -3 -2 -2 -1 -1 -1 -1 -1 -0 -0 -0 -0 -0 -0 0 2 4 5 10 10 10 9 9 8 7
-4 -4 -1 1 -0 -0 -1 -1 -1 -1 -1 -1 -2 -2 -2 -2 -2 -2 -1 -0 -0 -0 -0 -0 -0 0 0 0 1 2 2 3 5 8 9 9 9 10 10 9 8 7 7
-4 -4 -4 -4 0 -1 -1 -1 -0 -0 -0 -1 -1 -1 -1 -0 0 0 0 0 0 -0 -0 -0 -0 -0 -0 -0 0 2 2 3 8 8 8 8 9 9 9 8 7 7 7
-4 -5 -6 -5 -2 1 0 1 1 1 1 0 -0 -0 0 1 1 1 1 1 0 0 0 0 -0 -1 -0 -0 -0 1 2 4 7 7 7 8 7 8 8 8 7 6 6
-1 -3 -2 -2 -0 1 2 2 2 2 1 1 1 1 1 1 1 1 1 1 1 1 1 1 0 1 1 0 0 1 1 2 4 6 5 6 6 5 6 6 5 5 4
1 -1 2 2 1 3 3 2 2 2 1 2 2 1 1 1 1 1 1 2 2 2 2 2 1 1 1 1 1 1 1 1 1 2 3 3 2 1 1 3 4 3 3
-0 2 3 3 3 3 3 2 1 2 2 2 2 1 1 1 1 1 1 2 2 2 2 2 2 2 2 2 2 1 1 1 1 1 1 1 1 1 1 2 2 2 1
2 2 3 3 3 3 2 2 2 2 2 2 2 1 1 -0 0 1 1 2 2 2 2 2 2 2 2 2 1 1 1 1 1 1 1 1 1 1 1 1 1 1 1
1 3 2 3 3 2 2 2 2 2 2 2 1 1 -0 -0 0 1 1 2 2 2 2 2 2 1 1 1 1 1 1 1 1 1 1 0 -1 -1 -0 -0 -0 -0 -1
-1 1 3 2 2 1 2 2 2 2 2 1 1 -0 -0 0 1 1 1 1 1 2 2 2 1 1 0 0 0 0 0 -0 -1 -1 -2 -5 -9 -10 -15 -15 -13 -15 -14
-0 -0 -0 -1 0 1 1 2 2 2 2 1 -0 -1 -0 0 0 0 0 -0 0 1 1 1 1 -0 -1 -1 -1 -2 -2 -4 -10 -15 -21 -25 -27 -30 -29 -30 -30 -30 -30
-1 -1 -1 -2 -1 1 1 2 2 2 1 1 -1 -1 0 0 -0 -0 -0 -0 0 0 0 1 -0 -1 -2 -2 -5 -15 -23 -27 -30 -32 -31 -30 -29 -27 -29 -28 -27 -26 -26
-1 -2 -2 -1 -1 0 1 1 2 2 1 -0 -1 -0 0 -0 -0 -0 -0 -0 -0 -0 -1 -0 -2 -3 -12 -24 -27 -30 -31 -31 -30 -29 -28 -28 -27 -27 -27 -28 -26 -25 -25
-1 -1 -3 -3 -2 -0 1 1 2 1 1 -1 -1 -0 -0 -0 -0 -1 -0 -1 -1 -1 -1 -2 -8 -21 -25 -29 -31 -31 -29 -28 -28 -27 -26 -27 -27 -28 -28 -27 -25 -25 -24
-1 -2 -2 -2 -1 0 1 2 1 1 -1 -1 -1 -0 -0 -0 -0 -1 -1 -1 -1 -2 -2 -7 -20 -24 -27 -30 -31 -30 -28 -26 -26 -25 -26 -26 -27 -27 -28 -27 -26 -24 -24
-0 -0 -1 -0 1 1 2 1 1 -1 -1 -1 -1 -1 -0 -1 -1 -1 -1 -1 -1 -2 -8 -18 -22 -24 -26 -27 -29 -29 -28 -27 -25 -25 -26 -26 -27 -27 -27 -26 -25 -25 -25
1 1 1 1 1 2 1 1 -0 -1 -1 -1 -1 -1 -0 -0 -1 -1 -1 -1 -2 -8 -19 -21 -21 -22 -25 -26 -27 -28 -26 -26 -26 -25 -26 -28 -27 -26 -25 -24 -25 -25 -24
1 1 1 1 1 1 1 -0 -1 -1 -1 -1 -2 -2 -1 -1 -1 -1 -1 -2 -9 -17 -20 -20 -21 -22 -23 -24 -26 -26 -26 -25 -25 -25 -25 -26 -26 -25 -25 -24 -24 -24 -24
2 3 3 3 2 1 0 -1 -0 -1 -1 -1 -2 -2 -1 -1 -1 -1 -2 -6 -17 -19 -20 -21 -21 -22 -23 -23 -25 -27 -28 -25 -25 -26 -26 -24 -24 -24 -25 -25 -24 -24 -25
3 3 3 4 4 4 3 2 1 0 0 -1 -2 -2 -2 -2 -2 -2 -4 -13 -17 -18 -19 -20 -21 -21 -22 -23 -23 -27 -28 -26 -25 -24 -23 -22 -24 -24 -24 -24 -25 -25 -25

GFSMW_850_dewp_063.txt.gz
Dewpoint
2 4 4 3 2 10 13 13 11 11 12 12 13 14 13 13 14 14 13 13 13 13 13 13 13 13 14 14 13 13 12 13 12 12 12 11 11 11 10 8 9 10 10
1 4 3 3 1 2 9 13 13 11 11 12 11 12 13 14 14 14 13 12 12 13 13 12 13 14 13 13 14 13 13 13 13 12 12 11 10 9 8 9 8 7 9
1 3 3 2 1 1 0 6 12 11 12 11 13 14 13 12 11 12 11 11 11 11 11 12 12 12 14 14 14 13 12 12 12 11 11 10 9 9 8 9 9 7 8
1 3 3 2 1 1 0 -0 -1 2 6 7 10 10 10 10 11 13 11 7 9 10 10 8 6 5 6 7 10 11 12 12 11 11 11 10 10 9 8 8 8 8 8
2 3 3 2 1 1 1 -0 -1 -1 -1 -1 5 7 9 11 10 7 8 6 2 1 -0 -1 -2 -2 -2 -1 -0 0 0 1 2 5 10 10 10 10 8 9 8 9 8
1 2 3 2 2 0 0 -0 -1 -1 -1 -1 0 4 7 7 5 2 -0 -1 -2 -3 -4 -4 -4 -4 -4 -3 -3 -2 -2 -2 -2 -2 4 8 9 8 8 9 8 8 9
-1 0 1 2 2 1 0 0 -0 -1 -1 -0 1 2 2 0 -1 -2 -3 -3 -3 -3 -3 -4 -3 -2 -2 -1 -1 -0 0 0 1 2 6 8 9 9 9 10 9 8 8
-4 -4 -1 1 2 2 1 0 -0 -1 -1 -1 -1 -1 -1 -2 -2 -3 -2 -2 -2 -1 -2 -1 -1 -1 -1 -1 -1 -0 1 1 7 7 7 6 8 8 8 8 7 9 8
-5 -4 -2 -5 0 2 -0 -1 -0 -1 -1 -1 -1 -1 -1 -1 -1 -2 -2 -1 -0 -0 0 0 -0 -0 -1 -1 -1 -0 2 7 4 5 8 8 8 7 8 9 9 8 8
-3 -3 -3 -2 -3 2 2 3 1 1 -0 -1 -0 -0 -1 -1 -1 -0 1 1 1 1 1 1 1 0 -0 -1 -0 0 0 3 5 6 6 8 8 8 7 7 8 7 7
-1 -1 0 1 1 3 3 4 4 3 1 1 1 0 -0 0 1 1 1 1 1 1 1 1 1 1 0 1 1 0 1 2 5 6 6 6 6 6 6 6 6 6 5
1 2 1 2 3 3 4 3 3 2 1 1 0 0 1 1 1 1 1 1 1 1 2 2 1 1 1 1 1 1 1 2 2 3 3 3 4 4 3 2 3 3 3
-0 2 3 3 3 3 3 3 2 2 2 1 1 1 1 1 1 1 1 0 1 1 2 2 2 2 2 2 2 2 2 2 2 2 2 2 2 1 1 1 2 2 2
-2 1 3 3 3 3 3 3 2 2 1 1 1 2 1 1 1 0 -0 -0 1 1 2 2 2 2 2 2 2 2 2 2 2 2 1 1 1 1 1 1 1 1 1
-1 -1 3 3 3 4 3 3 2 2 2 1 2 2 1 1 0 -1 -0 0 1 1 2 2 2 2 2 2 1 1 1 1 1 1 1 1 1 0 0 -0 -0 -0 -0
-2 -1 0 3 3 3 3 2 2 2 2 2 2 2 1 0 -1 -0 0 1 1 1 2 2 2 2 1 1 1 1 1 1 1 0 -1 -2 -8 -11 -13 -16 -13 -12 -15
-0 -2 -0 1 3 3 3 2 2 2 2 2 2 1 1 -0 -0 0 0 1 0 0 1 1 1 1 0 -0 0 -0 -0 -1 -2 -4 -12 -20 -25 -31 -30 -31 -32 -32 -31
-0 -0 -1 -0 1 3 3 2 2 2 2 2 2 1 0 -1 -0 0 0 0 0 0 1 1 0 0 -1 -1 -1 -2 -4 -12 -19 -25 -29 -30 -29 -28 -29 -30 -30 -30 -29
0 -0 -1 -1 0 1 2 1 1 2 1 2 1 1 -1 -1 -0 -0 -0 -0 -0 -0 0 -0 -0 -1 -2 -2 -8 -19 -25 -29 -30 -29 -28 -27 -27 -27 -29 -29 -28 -27 -26
1 1 0 -1 -0 2 2 1 1 1 1 2 1 0 -1 -0 0 -0 0 -0 -0 -0 -1 -1 -1 -2 -8 -22 -27 -30 -30 -28 -27 -27 -26 -26 -27 -29 -29 -29 -26 -25 -23
0 -1 -1 -1 -0 2 1 1 1 1 1 1 1 -1 -1 -0 -0 -0 -0 -0 -0 -1 -1 -1 -3 -12 -21 -25 -31 -31 -28 -26 -26 -26 -25 -26 -27 -29 -30 -28 -26 -25 -23
0 1 0 -1 -1 -0 1 1 1 1 1 1 -1 -1 -1 -0 -0 -0 -0 -1 -1 -1 -1 -2 -7 -20 -24 -27 -30 -30 -29 -26 -26 -25 -25 -26 -27 -30 -28 -27 -26 -26 -26
1 1 1 1 0 1 1 1 1 1 1 -0 -1 -1 -1 -1 -0 -0 -0 -1 -1 -2 -1 -4 -16 -22 -24 -25 -27 -28 -28 -27 -26 -24 -25 -28 -29 -28 -26 -25 -25 -26 -26
2 1 1 1 1 1 1 1 1 1 -0 -1 -2 -1 -1 -0 -0 -0 -1 -1 -1 -1 -2 -11 -21 -22 -23 -24 -25 -25 -26 -26 -25 -24 -24 -25 -27 -26 -26 -26 -25 -25 -25
2 3 2 2 2 2 2 1 1 -0 -0 -0 -0 -0 -1 -1 -1 -1 -1 -1 -1 -2 -8 -18 -20 -20 -22 -22 -23 -24 -26 -26 -26 -24 -24 -25 -23 -23 -25 -25 -25 -25 -25
2 3 4 3 3 3 3 2 2 2 2 1 -1 -1 -1 -1 -1 -1 -1 -1 -2 -6 -15 -18 -20 -20 -21 -21 -22 -23 -25 -28 -28 -25 -24 -22 -21 -22 -23 -24 -25 -25 -25

GFSMW_850_dewp_066.txt.gz
Dewpoint
2 3 4 4 7 12 13 13 11 11 12 12 12 13 12 14 13 13 13 13 13 13 13 12 13 13 13 13 13 12 12 12 11 11 12 12 11 11 11 11 11 9 10
1 3 4 3 3 7 13 14 13 11 12 12 12 13 13 13 13 13 14 14 13 13 13 13 13 13 13 12 12 12 11 11 11 11 11 10 9 9 8 9 10 9 9
1 2 3 3 3 4 7 12 14 12 11 12 12 12 13 13 13 13 13 13 13 13 12 11 12 13 13 13 12 12 12 11 10 10 11 11 9 9 9 8 9 9 8
2 3 4 3 3 3 4 6 13 14 12 11 11 10 9 12 12 12 12 12 8 9 10 11 11 9 7 6 5 5 8 10 10 10 11 10 10 10 9 7 8 8 8
2 2 3 3 2 2 1 1 0 6 12 10 8 7 10 12 12 13 13 11 9 8 5 2 0 -1 -2 -3 -3 -3 -2 -1 0 1 6 8 8 8 9 8 8 7 8
1 1 3 3 2 2 1 1 0 -1 -1 4 10 6 6 9 10 10 11 9 4 -1 -2 -3 -3 -4 -4 -4 -3 -3 -2 -2 -1 -1 -1 5 7 9 8 8 9 8 8
-0 0 2 2 3 2 1 1 0 -0 -1 -1 -0 4 3 3 4 6 4 -0 -2 -2 -3 -3 -3 -3 -2 -2 -1 -0 0 1 1 1 4 8 8 7 7 9 8 8 9
-3 -3 -1 1 2 2 2 0 -0 -0 -1 -1 -1 1 0 1 2 0 -1 -2 -2 -2 -3 -3 -2 -1 -1 -0 -0 -0 -0 0 1 3 6 7 8 8 7 7 7 6 8
-6 -5 -4 -3 -0 2 2 2 1 0 -0 -1 -1 -0 -0 -0 -1 -2 -2 -2 -2 -2 -1 -1 -0 0 0 -0 -0 -1 -1 -0 1 2 4 4 7 7 7 7 6 8 8
-1 -2 -4 -3 -4 -0 2 2 2 1 1 1 0 0 -1 -1 -1 -2 -2 -2 -1 -1 -0 0 0 0 0 -0 -1 -1 -1 0 2 5 6 6 6 7 6 8 6 8 8
-1 -1 -0 -1 -2 -1 2 3 3 3 2 2 1 1 1 -0 -1 -1 -1 -1 -0 0 0 0 1 1 1 0 0 -0 0 1 2 5 5 5 5 5 6 6 6 6 6
-2 -0 -1 -0 -0 1 3 3 4 4 3 2 1 1 0 -0 -1 -0 0 0 1 1 1 1 1 1 1 1 1 1 1 1 1 3 4 5 5 4 4 4 5 5 5
-2 -1 2 2 2 2 3 4 4 3 3 2 2 1 1 0 1 1 1 1 1 0 0 1 1 1 1 1 1 2 2 2 2 2 2 3 3 3 2 1 1 2 2
-2 -1 -1 3 3 2 2 3 3 3 2 2 2 1 1 1 1 1 1 1 -0 -0 0 1 1 1 2 1 2 2 2 2 2 2 2 1 1 1 1 1 1 1 1
-1 -2 -2 0 3 3 3 3 3 2 2 2 2 1 1 2 1 1 1 -0 -1 -0 0 1 1 1 2 2 2 2 2 2 2 2 2 1 1 1 1 1 0 0 0
-0 -0 -1 -1 2 3 3 3 3 3 2 2 2 2 2 2 1 1 -0 -1 -0 0 1 1 1 2 2 2 1 1 1 1 1 1 1 0 -0 -3 -4 -6 -9 -9 -11
-1 -1 -0 -0 -0 2 3 3 3 2 2 2 2 1 2 1 1 0 -1 -1 0 0 0 0 1 1 2 1 0 0 1 1 1 -0 -1 -5 -15 -24 -29 -30 -31 -32 -32
-0 -0 -1 -0 -1 -0 3 3 3 2 2 2 2 1 1 1 1 -1 -1 -0 0 0 0 0 0 0 1 0 -1 -0 -1 -1 -2 -7 -17 -26 -29 -28 -28 -29 -29 -29 -28
0 0 -1 -0 -1 0 1 3 3 2 2 2 2 1 1 1 0 -1 -1 -0 -0 -0 0 0 0 -0 0 -1 -2 -2 -5 -14 -21 -29 -30 -27 -26 -25 -27 -29 -28 -28 -27
1 0 -0 -1 -0 -1 1 1 2 2 2 2 2 1 1 1 -0 -1 -0 -0 -0 -0 -0 -0 -1 -1 -1 -2 -6 -19 -26 -29 -28 -27 -26 -25 -26 -27 -28 -29 -29 -27 -27
2 1 0 -0 -1 0 1 2 2 2 2 2 2 1 1 0 -1 -1 -0 -0 0 -0 -0 -1 -1 -1 -3 -12 -25 -29 -30 -28 -26 -25 -24 -24 -25 -27 -28 -29 -29 -27 -26
2 2 1 1 0 0 1 2 2 1 2 2 1 1 1 -1 -1 -1 -1 -0 -0 -0 -1 -1 -1 -3 -13 -22 -27 -31 -31 -28 -25 -25 -24 -24 -25 -28 -29 -29 -28 -27 -26
-0 2 2 1 1 1 1 1 1 2 2 1 1 1 -0 -1 -1 -1 -1 -0 -0 -1 -1 -1 -1 -4 -17 -23 -26 -27 -29 -28 -27 -26 -24 -25 -27 -28 -27 -26 -26 -28 -27
-3 2 2 1 1 1 1 1 1 1 1 1 0 -0 -1 -2 -1 -0 -0 -0 -1 -0 -1 -1 -2 -7 -20 -22 -23 -25 -26 -27 -26 -25 -24 -23 -24 -26 -26 -25 -25 -26 -26
-4 1 2 2 2 2 2 1 1 1 1 -0 -1 -1 -1 -1 -1 -1 -1 -0 -0 -1 -1 -1 -3 -12 -21 -21 -22 -23 -23 -24 -25 -26 -25 -23 -23 -23 -22 -23 -24 -26 -26
-2 -0 2 2 2 2 2 2 2 2 2 2 1 1 1 1 0 -1 -1 -1 -1 -1 -2 -2 -5 -15 -19 -20 -21 -22 -22 -23 -25 -27 -27 -25 -24 -22 -21 -22 -23 -24 -25

GFSMW_850_dewp_069.txt.gz
Dewpoint
3 4 4 4 7 11 11 12 13 13 13 13 12 12 12 12 12 11 12 13 13 13 12 12 12 12 13 12 12 12 12 11 10 11 10 10 10 9 9 8 8 11 11
2 3 4 4 5 6 9 9 10 11 12 12 12 12 12 11 12 11 13 12 13 13 13 13 13 13 13 12 12 12 11 11 11 10 10 10 9 8 8 8 7 10 11
2 2 4 4 4 5 6 9 8 10 10 11 12 12 12 12 13 13 13 13 13 13 13 13 13 14 13 12 12 12 11 11 10 10 10 11 10 10 9 9 8 10 9
2 2 3 3 4 3 4 9 10 8 9 10 10 11 12 12 11 11 12 13 13 11 11 11 10 12 12 12 9 8 8 10 7 6 8 10 11 10 10 8 7 8 8
3 2 3 2 3 3 3 4 9 10 8 9 10 10 9 10 9 9 12 12 11 9 8 9 12 11 5 0 -2 -3 -3 -2 -1 -1 -0 1 4 8 9 8 6 7 7
2 2 2 3 3 3 2 2 2 10 10 9 9 8 8 7 7 9 10 10 9 10 10 4 -1 -2 -3 -3 -4 -3 -3 -2 -1 -1 -0 0 1 3 7 7 7 6 6
2 1 2 3 3 3 2 2 1 1 4 4 6 7 6 5 7 9 11 10 10 9 1 -2 -3 -3 -3 -3 -3 -2 -1 -0 0 1 1 2 3 7 7 6 7 6 7
-3 -1 1 3 3 2 2 2 1 1 1 -1 1 3 3 4 5 6 8 7 3 -1 -3 -3 -3 -3 -3 -2 -1 -1 -1 -1 -1 -0 1 4 7 7 8 7 8 8 7
-5 -5 -4 -3 -0 3 3 2 2 1 0 -0 -1 -1 2 3 6 3 2 -1 -2 -2 -2 -3 -3 -2 -2 -1 -0 -0 -0 -1 -1 -0 2 2 5 6 6 7 7 8 8
-3 -3 -5 -5 -4 -3 0 2 2 2 1 0 1 2 0 2 3 2 0 -1 -2 -2 -2 -2 -1 -1 -1 -0 0 0 -0 -1 -1 -1 1 3 6 5 6 6 6 7 8
-2 -2 -2 -3 -3 -3 -3 0 2 2 2 1 1 2 2 2 1 0 1 0 0 -2 -1 -1 -0 0 0 0 0 0 -0 -0 -1 -0 1 4 5 5 5 6 6 7 7
-2 -2 -1 -1 -1 -1 -1 2 3 3 3 3 2 3 2 2 1 1 0 -0 -1 -1 -1 0 1 1 0 0 1 1 1 0 0 -0 1 3 4 4 4 5 5 5 6
-2 -2 -1 -1 -1 0 0 2 4 4 4 3 3 3 2 1 1 0 0 0 0 0 1 1 -0 0 0 1 1 1 1 2 2 2 2 2 2 2 3 3 2 2 3
0 -0 -1 -1 -1 -1 1 2 4 4 4 3 3 2 2 2 1 1 1 1 1 1 0 -0 -0 0 1 1 2 2 2 2 2 2 2 2 2 2 2 2 1 1 1
-1 -1 -0 -0 1 -0 0 2 1 3 3 3 3 2 2 1 1 1 1 1 1 0 -1 -1 -0 1 1 1 2 2 2 2 2 2 2 2 2 1 1 1 1 1 1
-1 -2 -2 -1 -0 3 0 2 2 2 2 2 2 2 2 1 1 2 1 1 0 -1 -1 -0 0 1 1 1 2 2 2 1 1 1 2 1 1 1 -0 -0 -1 -2 -3
0 -0 -1 -1 -1 -0 2 2 2 3 3 3 2 2 2 1 1 1 1 1 -1 -1 -0 -0 0 1 0 0 2 1 1 1 1 1 1 0 -2 -10 -18 -25 -29 -31 -31
2 1 0 -0 -1 -0 -0 2 2 3 3 3 2 2 2 1 1 1 1 -0 -1 -1 -0 0 0 0 0 -0 1 0 0 0 0 -0 -1 -6 -18 -28 -27 -28 -28 -28 -27
-2 2 2 1 -0 -1 -0 1 3 3 3 3 2 2 2 1 1 1 1 -1 -1 -1 -1 -0 -0 0 0 -0 -0 -1 -1 -1 -2 -7 -17 -26 -26 -25 -25 -26 -27 -27 -26
-6 0 2 2 1 -1 -0 0 3 3 3 3 2 2 2 2 1 1 0 -1 -1 -1 -0 -0 -0 -0 -0 -0 -1 -2 -5 -13 -21 -28 -27 -26 -25 -25 -26 -27 -28 -26 -25
-6 -5 1 2 1 1 -1 -0 1 2 2 3 3 2 2 2 1 1 -1 -1 -1 -0 -0 -0 -1 -1 -1 -1 -3 -16 -24 -26 -27 -26 -24 -23 -23 -25 -26 -29 -29 -27 -27
-3 -6 -1 2 2 1 0 1 3 3 3 3 3 2 2 1 1 0 -1 -1 -1 -0 -0 -0 -0 -1 -1 -5 -17 -25 -29 -28 -25 -24 -23 -23 -23 -25 -28 -29 -29 -28 -28
-2 -3 -3 1 2 1 1 1 1 2 1 2 2 2 2 1 1 -1 -1 -1 -1 -1 -0 -0 -0 -1 -2 -11 -21 -25 -29 -29 -28 -26 -24 -24 -25 -26 -27 -27 -26 -27 -26
-1 -2 -3 0 2 2 1 1 1 1 2 2 2 1 1 1 -0 -1 -1 -1 -1 -1 -0 -0 -1 -1 -2 -12 -21 -24 -24 -26 -27 -27 -25 -24 -23 -24 -25 -25 -24 -24 -25
-1 -0 -1 -1 2 2 2 1 1 1 1 1 1 0 -0 -1 -1 -1 -1 -0 -1 -1 -1 -1 -1 -1 -3 -17 -20 -20 -22 -23 -23 -23 -23 -24 -23 -23 -22 -21 -22 -23 -24
-1 -1 -0 -0 1 2 2 2 2 1 1 1 1 1 2 1 0 -0 -0 -0 -1 -1 -1 -1 -2 -1 -5 -15 -19 -20 -21 -22 -22 -23 -24 -26 -25 -24 -22 -21 -20 -22 -24

GFSMW_850_dewp_072.txt.gz
Dewpoint
3 5 4 6 8 11 12 12 12 13 13 12 12 12 12 12 12 12 12 12 12 12 12 11 11 11 12 12 12 12 11 11 11 10 10 10 9 9 8 8 8 8 9
2 2 4 4 6 6 9 11 11 12 12 12 12 12 12 13 12 11 12 12 12 12 13 13 12 12 12 12 12 12 12 11 10 10 10 9 9 8 7 8 8 7 9
1 2 2 4 4 7 6 7 8 9 11 12 12 12 12 12 12 12 12 12 12 12 12 13 13 13 13 12 12 12 11 11 11 10 11 10 9 10 9 9 9 8 9
3 2 2 3 4 5 7 7 7 9 9 10 10 12 11 11 12 11 11 12 12 12 12 13 13 13 13 12 12 12 12 10 9 7 10 8 10 10 9 8 8 9 8
3 2 2 2 2 4 5 6 7 8 9 10 10 10 11 11 11 10 9 10 11 9 10 10 11 10 9 10 10 8 2 0 -2 -2 -2 -2 0 5 10 8 9 7 6
3 3 2 2 4 4 4 4 7 7 7 9 10 9 9 9 10 10 10 8 8 7 7 7 6 7 7 3 -2 -3 -4 -3 -3 -2 -1 -1 1 1 2 6 8 7 6
2 2 2 1 4 3 3 2 2 3 4 6 9 9 9 10 9 9 7 6 6 6 5 6 7 4 -2 -3 -3 -3 -4 -3 -2 -1 -1 -0 0 2 2 5 7 7 6
1 2 2 2 2 3 3 3 2 2 1 2 5 8 8 8 7 6 6 6 5 4 5 7 2 -2 -2 -3 -3 -3 -2 -1 -1 -1 -1 -0 0 1 4 6 6 8 6
-4 -4 -2 2 2 3 3 3 2 2 1 1 1 1 5 5 6 6 7 7 7 8 6 0 2 -2 -2 -2 -3 -2 -1 -1 -0 -1 -1 -1 1 3 3 6 6 7 7
-3 -3 -3 -4 -4 -4 -3 -1 3 3 2 2 1 0 0 2 4 3 3 3 3 2 1 0 -1 -2 -2 -2 -1 -0 -0 -0 -0 -1 -0 1 3 3 4 5 5 6 7
-2 -2 -2 -2 -4 -4 -3 -4 -1 3 3 2 2 1 1 2 4 4 4 4 4 2 -0 1 1 0 -1 -0 0 0 0 0 0 0 -0 1 2 3 5 5 5 7 5
-2 -2 -2 -2 -2 -3 -2 -2 -3 0 3 3 3 2 2 3 3 4 3 3 1 1 1 1 1 0 0 0 0 0 1 1 1 1 1 1 2 4 4 4 4 5 5
-1 -1 -1 -0 0 -1 -1 -1 -1 -0 2 3 3 3 3 3 3 2 2 1 1 0 1 1 1 1 0 -0 -0 0 1 1 1 1 2 2 2 3 3 3 4 4 4
-0 -1 -1 -1 -0 -0 1 0 -0 -0 2 4 4 4 3 3 3 2 1 1 1 1 1 1 1 -0 -1 -1 -1 0 1 1 1 2 2 2 2 2 3 3 3 3 2
-1 -1 -1 -2 -1 -0 0 2 2 1 2 3 4 3 3 3 2 2 1 1 1 1 1 1 -0 -1 -1 -0 0 1 1 1 2 2 2 2 2 2 2 2 1 1 1
1 1 -0 -1 -1 -1 -0 1 3 3 2 2 3 3 3 2 2 1 1 1 1 1 1 -0 -1 -1 -0 -0 0 1 1 2 2 2 1 2 2 2 1 1 1 0 0
-3 -0 1 1 1 0 -1 -0 -0 3 3 2 2 3 3 2 2 2 1 1 1 1 -0 -1 -1 -0 -0 0 0 0 1 1 0 0 0 1 1 -0 -4 -10 -15 -18 -18
-5 -5 -4 1 1 1 0 -1 -0 -0 3 3 3 2 2 2 2 2 2 1 1 0 -1 -1 -1 -0 -0 0 -0 -1 -0 -0 -0 -0 -0 0 -1 -7 -21 -27 -28 -27 -26
-6 -6 -7 -5 1 2 1 -1 -1 -0 2 3 3 3 2 2 2 2 1 1 1 -0 -1 -1 -1 -1 -0 -0 -0 -0 -0 -1 -1 -1 -1 -3 -16 -26 -25 -25 -25 -25 -26
-5 -5 -8 -9 -2 2 1 0 -0 -0 1 2 3 3 3 2 2 2 2 1 1 -1 -1 -1 -1 -0 -0 -0 -0 -0 -1 -1 -1 -2 -11 -24 -26 -24 -24 -25 -26 -26 -25
-4 -4 -4 -8 -2 2 2 1 0 -0 0 3 3 3 3 3 2 2 2 1 0 -1 -1 -1 -0 -0 -0 -1 -1 -2 -4 -8 -16 -24 -26 -24 -24 -24 -25 -27 -28 -26 -26
-3 -3 -3 -5 -5 1 2 1 1 1 2 3 3 3 3 3 2 2 2 1 -0 -1 -1 -1 -0 -1 -1 -1 -1 -3 -17 -23 -25 -25 -24 -22 -23 -23 -25 -28 -29 -28 -28
-2 -1 -1 -2 -5 0 2 2 1 1 2 3 3 3 3 2 2 2 1 1 -0 -1 -1 -1 -1 -1 -1 -1 -2 -13 -24 -28 -26 -24 -22 -22 -22 -23 -26 -28 -27 -26 -25
-2 -1 -1 -1 -3 -0 2 2 2 1 1 1 2 2 2 2 2 1 1 0 -0 -1 -1 -1 -1 -1 -1 -1 -4 -17 -22 -28 -27 -26 -25 -24 -24 -23 -22 -24 -24 -24 -23
-2 -1 -1 -1 -1 -0 2 2 2 1 1 1 1 1 1 1 1 0 -0 -1 -1 -1 -0 -1 -1 -1 -1 -1 -3 -16 -21 -22 -23 -22 -22 -22 -22 -22 -21 -21 -20 -21 -22
-2 -2 -2 -2 -2 -1 -0 2 2 2 2 1 1 1 1 1 2 2 1 1 -0 -0 -1 -1 -1 -1 -1 -2 -4 -17 -19 -19 -20 -20 -22 -22 -22 -24 -22 -21 -20 -20 -21

GFSMW_850_dewp_075.txt.gz
Dewpoint
5 7 10 10 11 12 12 12 12 11 12 12 12 12 12 13 12 12 11 12 12 12 12 12 12 10 11 11 11 11 11 11 11 10 10 9 9 9 7 7 7 7 8
3 4 5 5 8 10 11 11 12 12 11 11 11 12 12 11 12 11 11 11 12 12 12 12 13 12 11 12 12 11 11 11 11 10 10 10 8 7 7 6 5 8 8
3 3 2 3 4 7 8 10 11 11 12 12 12 13 12 12 12 12 13 11 11 12 12 11 12 12 12 12 12 12 12 11 11 10 10 10 9 9 8 9 8 8 8
3 2 2 2 2 4 5 7 8 9 9 10 11 11 8 10 10 11 12 12 12 12 11 12 12 12 12 12 12 12 12 12 10 10 10 10 10 10 7 7 8 8 7
3 4 3 2 2 2 3 5 6 8 9 10 10 10 10 10 9 10 11 11 11 11 12 11 11 10 9 8 7 7 9 9 7 -1 -2 -2 -1 -0 5 5 0 6 5
2 3 2 2 2 2 2 4 7 5 7 8 9 9 10 10 10 10 10 10 10 11 11 10 8 6 6 6 6 5 3 -0 -3 -3 -3 -2 -1 1 2 3 4 3 5
1 3 2 2 2 2 3 4 6 7 7 7 7 8 8 9 9 10 10 9 9 9 10 8 6 5 4 5 3 -2 -3 -3 -2 -2 -1 -1 -0 1 3 5 4 6 5
1 2 2 2 2 4 3 3 3 2 2 3 5 7 7 8 9 9 9 9 8 7 8 8 7 7 7 4 -2 -2 -1 -2 -2 -1 -0 -0 -0 1 3 5 6 6 7
-1 0 1 2 2 3 3 3 3 3 2 2 2 1 3 6 7 8 8 8 6 7 7 6 6 7 3 0 1 -1 -1 -1 -1 -1 -1 -0 0 0 1 4 3 5 6
-2 -3 -3 -4 -4 -3 -2 -1 0 3 3 3 2 1 1 1 3 6 7 7 6 5 4 4 4 3 3 1 -1 -1 -0 -0 -0 -0 -0 -0 -0 1 2 2 3 5 5
-1 -2 -2 -2 -3 -4 -4 -3 -3 -4 0 3 3 2 1 1 1 2 6 8 8 5 4 4 3 3 2 -0 -0 0 0 0 0 0 0 0 1 1 2 4 5 4 5
-2 -2 -2 -1 -2 -2 -3 -4 -2 -2 -2 1 3 3 3 2 2 2 4 5 5 4 4 3 1 0 0 -0 0 1 1 0 0 0 1 1 1 2 3 3 3 4 5
-1 -1 -1 -1 -1 -1 -1 -2 -2 -1 -0 -0 2 3 3 3 3 4 4 4 3 2 2 1 1 1 0 1 1 0 -0 -0 0 1 1 2 2 2 2 3 3 3 3
-1 -1 -2 -2 -2 -2 -1 -0 0 1 1 1 2 3 3 4 4 4 3 3 2 1 1 1 1 1 1 0 -0 -1 -0 0 0 1 1 2 2 2 2 2 3 3 2
0 0 0 -0 -1 -1 -1 -1 -0 1 2 3 3 3 4 3 3 3 3 2 2 1 1 1 1 1 1 -1 -1 -1 -0 0 1 1 2 2 2 2 2 2 2 2 2
-2 -2 -1 0 1 1 0 -1 -1 -0 2 3 3 3 3 3 3 3 2 2 1 1 1 1 1 1 -1 -1 -0 -1 -1 0 1 1 1 1 1 1 2 2 1 1 1
-6 -6 -6 -6 -4 -0 1 0 -1 -1 -0 1 3 3 3 3 3 2 2 2 1 1 1 1 1 -1 -1 -1 -0 -0 -0 -0 0 0 -0 0 -0 0 1 -1 -6 -5 -3
-5 -6 -6 -7 -8 -7 -3 1 0 -1 -1 -0 2 3 3 3 3 2 2 2 2 1 1 1 -0 -1 -1 -0 -1 -0 -1 -1 -0 -1 -1 -1 -1 -0 -3 -12 -23 -26 -26
-4 -4 -5 -6 -6 -8 -6 -1 1 0 -1 -1 0 2 3 3 3 2 2 2 2 1 1 0 -1 -1 -1 -1 -1 -0 -1 -1 -1 -1 -1 -1 -1 -5 -19 -25 -25 -24 -23
-3 -4 -4 -4 -5 -5 -6 -1 2 0 -0 -0 1 2 3 3 3 3 2 2 2 1 1 0 -1 -1 -1 -1 -1 -1 -0 -0 -1 -1 -1 -1 -7 -21 -21 -20 -23 -23 -24
-4 -3 -3 -3 -3 -4 -5 -1 2 1 0 -0 0 2 3 3 3 3 2 2 2 1 1 0 -1 -1 -1 -0 -0 -1 -0 -2 -2 -2 -5 -16 -24 -23 -24 -24 -24 -23 -23
-3 -2 -2 -2 -2 -2 -4 -1 2 2 1 0 1 2 3 3 3 3 2 2 2 2 1 0 -1 -1 -1 -0 -1 -1 -1 -5 -11 -18 -23 -23 -22 -21 -22 -24 -25 -26 -26
-2 -2 -2 -1 -1 -1 -0 1 2 2 1 1 1 3 3 3 3 3 2 2 2 2 1 0 -1 -1 -0 -1 -1 -1 -1 -8 -22 -24 -23 -21 -20 -21 -22 -25 -27 -27 -27
-3 -3 -2 -2 -2 -1 -1 -1 1 2 1 1 1 1 2 3 2 2 2 2 2 1 1 0 -1 -1 -0 -1 -1 -1 -2 -15 -23 -27 -24 -23 -22 -22 -23 -22 -22 -23 -24
-4 -3 -3 -4 -3 -3 -3 -2 -1 1 2 1 1 2 2 2 2 2 2 1 1 0 -0 -1 -1 -1 -1 -1 -1 -1 -2 -15 -21 -25 -25 -24 -24 -24 -22 -21 -21 -21 -20
-4 -4 -5 -5 -6 -4 -3 -3 -2 -1 1 1 1 1 1 1 1 1 1 1 2 1 0 -0 -0 -1 -1 -1 -1 -2 -2 -13 -17 -17 -21 -21 -20 -20 -21 -22 -21 -21 -20

GFSMW_850_dewp_081.txt.gz
Dewpoint
9 8 12 10 10 9 8 9 8 8 9 10 10 11 10 7 7 8 9 10 10 11 12 12 12 12 12 11 10 10 11 11 10 10 9 10 10 7 7 4 3 4 3
6 9 9 11 10 10 10 9 9 10 10 10 10 11 10 9 8 8 9 9 10 11 11 12 11 11 12 12 11 11 11 10 10 10 10 10 8 5 6 7 6 1 4
4 4 6 9 10 10 11 11 10 9 10 10 7 10 9 8 10 9 9 10 11 12 11 11 11 11 11 11 11 11 11 11 10 10 10 9 9 9 8 6 3 2 6
5 4 4 4 8 9 9 8 9 10 11 11 7 9 10 10 9 10 11 12 10 11 12 11 11 11 11 11 11 11 10 10 10 9 10 8 9 9 9 1 -1 1 1
5 4 4 4 3 3 3 6 9 10 10 10 11 11 11 10 9 10 9 9 11 11 10 10 10 11 11 11 11 10 10 8 7 9 7 5 4 -1 -0 1 -2 1 2
5 4 3 4 3 3 2 2 4 6 9 9 9 10 10 9 10 10 9 10 8 10 11 10 9 8 10 10 10 8 8 7 8 7 7 4 -1 -2 -0 1 -0 0 1
5 4 3 3 3 2 2 2 2 4 5 9 9 7 8 8 9 9 9 9 9 8 10 9 9 9 8 8 8 7 7 6 6 4 4 2 -1 -1 -0 1 3 5 2
6 5 3 3 3 3 3 3 3 3 4 5 7 7 7 8 8 8 8 9 9 9 9 9 10 8 9 9 8 7 8 8 7 2 -0 -0 -1 -1 -0 0 2 5 5
4 1 1 1 2 2 2 3 3 3 3 3 2 2 2 2 2 4 7 8 8 8 9 9 9 9 8 7 7 8 7 5 4 1 0 -1 -1 -1 -0 0 2 4 5
0 -0 -1 -2 -2 -2 -3 -3 -2 -1 0 1 2 3 2 2 2 1 1 2 6 7 8 8 7 8 8 8 8 6 5 4 2 1 -1 -1 -0 -0 -0 0 1 2 5
-0 -1 -1 -2 -2 -2 -3 -3 -4 -5 -5 -5 -5 -4 -0 3 3 2 2 1 1 5 8 8 8 8 8 8 7 6 4 3 1 -0 -0 -0 0 -0 -0 0 1 2 4
-1 -1 -2 -2 -3 -3 -3 -3 -3 -3 -3 -3 -3 -3 -3 1 3 3 2 2 1 3 8 9 9 9 9 8 6 3 3 1 0 -0 0 0 -0 -1 0 1 1 2 4
-1 -1 -2 -2 -2 -2 -3 -3 -4 -4 -2 -1 -1 -0 -1 0 2 3 3 2 2 4 8 9 8 6 5 4 3 2 1 0 0 0 -0 -1 -1 -1 0 2 2 3 3
-2 -2 -2 -1 -1 -1 -1 -1 -2 -2 -3 -2 -1 0 1 2 3 3 3 4 4 4 5 5 4 4 3 2 2 1 1 0 0 -0 -1 -1 -1 -0 0 2 2 2 2
-4 -4 -5 -5 -5 -5 -4 -4 -2 -1 -1 -2 -2 -0 2 2 3 3 4 4 4 4 4 3 3 2 2 1 1 1 1 0 -1 -2 -2 -2 -1 0 1 1 1 1 2
-4 -4 -4 -4 -4 -5 -5 -5 -6 -7 -6 -2 -1 -1 -0 2 2 3 3 3 3 3 3 3 2 1 1 1 1 1 -0 -1 -2 -2 -4 -3 -1 0 0 0 -0 -0 0
-3 -3 -4 -4 -5 -5 -5 -6 -7 -7 -8 -8 -4 -1 -1 -0 3 3 3 3 3 3 3 2 2 1 1 1 0 -0 -1 -2 -2 -3 -4 -2 -0 0 0 -0 -1 -1 -0
-3 -3 -5 -5 -5 -4 -4 -4 -4 -5 -6 -7 -6 -1 -0 -1 1 3 3 3 3 3 2 2 2 1 1 0 -0 -1 -2 -2 -3 -3 -1 -0 -0 -0 -0 -0 -0 -5 -11
-4 -4 -4 -4 -4 -3 -3 -3 -3 -3 -4 -5 -3 -1 1 -0 -0 3 3 3 3 3 2 2 2 1 1 0 -0 -1 -2 -2 -2 -1 -0 -0 -0 -0 -1 -1 -2 -11 -21
-4 -4 -4 -4 -3 -3 -3 -3 -2 -2 -2 -2 -1 1 1 1 1 1 3 3 3 3 2 2 2 1 1 1 -0 -1 -2 -3 -2 -1 -0 -0 -1 -1 -2 -2 -15 -22 -22
-5 -6 -6 -6 -4 -4 -4 -4 -3 -3 -2 -1 0 2 1 1 2 2 3 3 3 3 2 2 2 2 1 1 -0 -1 -2 -2 -1 -1 -1 -1 -1 -2 -2 -17 -21 -21 -22
-10 -10 -11 -11 -9 -9 -9 -9 -6 -4 -3 -2 -1 1 2 1 2 3 3 3 3 3 2 2 2 2 1 1 0 -1 -2 -1 -1 -1 -1 -1 -1 -4 -17 -23 -23 -23 -24
-15 -16 -17 -19 -18 -15 -13 -14 -12 -9 -5 -3 -3 -1 1 1 2 3 3 3 3 3 3 2 2 2 2 1 0 -1 -1 -1 -1 -1 -3 -6 -12 -21 -22 -22 -22 -23 -24
-14 -15 -16 -16 -18 -17 -15 -14 -13 -11 -9 -6 -4 -2 -1 1 2 2 3 3 3 3 3 2 2 2 2 2 1 -0 -1 -1 -1 -2 -3 -14 -21 -22 -21 -20 -21 -22 -24
-15 -14 -14 -15 -16 -15 -15 -14 -12 -11 -11 -10 -8 -4 -3 -0 1 1 2 2 2 2 2 2 2 2 1 2 1 -0 -1 -1 -1 -1 -2 -15 -21 -21 -21 -20 -19 -20 -20
-17 -15 -14 -13 -14 -14 -16 -15 -12 -10 -10 -10 -9 -8 -5 -3 -1 0 1 1 1 1 2 1 1 1 1 -0 -0 -1 -1 -1 -1 -2 -2 -7 -19 -23 -22 -21 -21 -21 -20

GFSMW_850_dewp_087.txt.gz
Dewpoint
9 7 9 10 11 10 10 10 11 10 8 8 8 12 12 11 11 9 9 10 11 11 12 11 9 11 12 12 11 11 10 10 9 10 11 11 10 10 10 9 9 8 8
9 10 8 9 11 11 10 10 11 9 9 9 7 11 11 11 12 12 11 11 11 11 11 11 11 12 12 12 12 11 11 10 10 11 11 11 10 9 9 8 9 8 7
6 10 10 9 9 10 11 10 11 10 10 10 10 11 10 10 11 11 10 9 9 10 11 10 10 12 11 12 12 12 11 11 11 11 10 10 9 8 8 9 9 7 6
7 8 10 9 6 7 8 11 11 11 10 11 11 11 10 10 10 10 10 10 9 10 10 10 11 10 11 11 12 11 12 12 11 11 10 10 10 9 8 9 6 2 2
8 7 9 9 7 7 8 9 10 10 10 10 11 11 10 10 9 11 10 8 8 7 7 10 11 11 11 11 10 11 10 12 11 11 10 10 9 8 8 7 5 5 4
7 6 7 9 9 7 9 8 9 9 9 10 9 10 9 9 9 11 10 8 8 6 7 10 10 11 9 8 10 10 9 9 10 11 11 9 8 7 8 8 4 4 5
6 6 5 6 8 8 9 9 9 9 10 11 10 10 9 9 6 6 7 5 8 5 5 9 8 8 9 8 10 9 9 10 10 11 9 8 7 8 9 6 1 2 3
5 6 6 6 7 8 6 5 5 7 7 9 10 10 10 10 10 9 9 9 7 7 8 8 8 8 9 8 10 9 10 10 9 8 9 8 7 7 6 1 1 4 4
4 3 4 4 4 4 4 4 5 6 6 7 8 8 9 9 10 9 10 10 9 10 10 10 9 9 9 10 9 9 9 9 8 8 8 7 7 5 1 0 -0 0 2
4 4 3 1 1 2 2 2 1 1 2 3 3 3 6 7 8 10 11 10 10 10 9 8 9 9 10 10 10 9 9 10 9 8 7 7 7 2 2 0 -0 0 1
2 3 4 4 2 -0 -0 -0 -1 -1 -2 -2 -1 -1 1 3 3 3 3 4 6 7 8 8 8 9 9 10 10 10 10 9 8 8 8 8 3 2 1 0 0 0 1
2 1 -1 -1 -1 -1 -0 -2 -3 -3 -3 -3 -2 -2 -2 -1 1 2 3 3 3 3 4 7 9 9 9 10 10 10 9 7 7 8 7 4 3 2 0 0 0 -0 -0
-2 -3 -3 -3 -3 -4 -4 -4 -4 -4 -3 -3 -3 -3 -1 -0 -0 0 2 3 3 3 3 3 6 9 10 10 9 9 8 8 8 7 5 4 2 1 0 0 -0 -0 1
-2 -2 -2 -2 -3 -3 -4 -4 -4 -5 -5 -6 -6 -4 -3 -3 -1 1 0 1 3 3 4 5 6 8 10 10 10 9 9 8 7 6 4 2 1 0 -0 -0 -0 0 2
-2 -2 -2 -2 -2 -3 -3 -4 -4 -4 -5 -5 -6 -7 -7 -5 -3 -2 1 2 2 3 4 5 6 8 9 9 10 9 9 8 6 4 2 1 0 -0 -0 -0 -1 -0 1
-2 -2 -2 -2 -2 -3 -4 -5 -5 -5 -6 -6 -6 -7 -7 -8 -7 -3 -1 2 2 3 4 4 4 5 6 8 8 7 5 4 3 1 1 0 0 -1 -2 -2 -1 -1 0
-1 -2 -2 -2 -2 -4 -5 -6 -6 -6 -6 -6 -5 -4 -5 -6 -6 -5 -2 -1 2 3 3 3 4 4 4 4 4 4 3 2 1 1 1 -0 -1 -2 -3 -4 -3 -2 0
-2 -2 -3 -5 -6 -6 -5 -6 -6 -6 -6 -5 -5 -5 -4 -4 -4 -3 -1 -0 0 3 3 3 3 3 4 3 3 2 2 1 1 1 -0 -1 -2 -3 -4 -3 -2 -0 -0
-3 -3 -3 -4 -7 -9 -11 -13 -13 -11 -10 -6 -5 -4 -4 -4 -4 -2 -1 0 1 1 3 3 3 3 3 3 2 2 1 1 1 -0 -1 -2 -3 -3 -2 -1 -0 -0 -1
-3 -3 -3 -4 -4 -4 -10 -14 -15 -17 -18 -16 -14 -8 -4 -2 -2 -2 -0 1 1 2 1 3 3 3 3 3 2 2 1 1 0 -1 -1 -2 -3 -2 -1 -0 -0 -1 -1
-7 -13 -13 -11 -12 -11 -15 -16 -13 -14 -16 -19 -20 -19 -15 -7 -2 -2 -0 1 1 2 2 2 3 3 3 3 2 2 1 1 0 -0 -1 -2 -2 -1 -1 -1 -1 -1 -1
-13 -14 -16 -15 -14 -11 -13 -17 -13 -10 -15 -17 -19 -19 -19 -17 -10 -3 -1 1 1 1 2 2 3 3 3 3 2 2 1 1 1 0 -1 -1 -1 -1 -1 -1 -1 -2 -4
-13 -12 -11 -10 -8 -8 -10 -14 -15 -15 -18 -17 -15 -11 -15 -18 -19 -16 -4 -1 0 1 1 1 2 3 3 3 2 2 2 1 1 1 -0 -1 -1 -1 -1 -2 -2 -2 -14
-10 -10 -10 -9 -9 -10 -10 -10 -9 -10 -12 -15 -16 -15 -15 -14 -15 -15 -15 -6 -2 -0 0 1 0 1 2 2 2 2 2 1 1 1 -0 -1 -1 -1 -1 -2 -2 -6 -18
-9 -11 -12 -11 -13 -12 -12 -11 -10 -9 -10 -13 -14 -13 -11 -12 -13 -10 -12 -14 -10 -2 -1 -1 0 0 0 1 2 2 2 2 2 1 0 -1 -1 -1 -3 -3 -3 -10 -17
-11 -11 -11 -12 -14 -13 -16 -18 -14 -9 -8 -8 -8 -8 -9 -11 -10 -8 -8 -10 -13 -12 -4 -1 -1 -0 0 0 0 1 1 1 1 0 -0 -0 -1 -1 -2 -5 -7 -12 -15

GFSMW_850_dewp_090.txt.gz
Dewpoint
4 6 6 8 8 9 8 7 8 10 11 10 9 6 8 11 10 10 11 11 12 11 11 11 10 9 11 11 10 10 9 10 9 10 9 10 10 10 10 10 10 9 8
5 5 6 7 10 9 9 10 8 8 10 10 9 8 7 10 10 8 10 10 9 11 12 12 11 9 10 11 11 12 11 10 10 9 10 10 10 9 10 10 9 8 8
6 7 10 8 9 9 8 9 11 11 11 10 10 9 8 10 11 9 9 9 10 11 11 11 11 11 10 11 12 12 12 11 10 10 10 11 10 10 10 9 8 8 3
6 7 9 9 10 9 8 7 10 11 10 10 10 10 9 10 11 11 10 11 10 10 9 10 10 10 11 11 11 11 11 11 11 11 11 10 10 9 9 8 9 7 4
7 7 9 9 9 7 7 6 8 10 11 10 10 11 10 10 11 11 11 11 10 10 7 6 7 7 9 10 10 10 9 9 10 9 10 11 11 10 9 8 7 6 5
7 6 8 8 9 8 7 8 8 10 10 10 11 10 11 10 10 10 10 11 9 8 8 7 6 6 5 8 10 9 9 9 9 10 9 11 10 10 9 7 6 7 6
6 6 7 7 8 9 8 7 8 10 9 8 8 10 10 10 10 10 8 8 9 9 8 8 6 5 9 10 10 9 10 8 7 9 9 10 11 9 8 8 7 8 4
6 6 6 7 7 8 8 9 9 8 8 9 9 10 10 9 9 7 7 6 9 9 7 7 7 8 7 7 10 9 9 8 7 9 10 10 8 7 7 7 8 6 2
5 6 6 5 5 6 6 6 6 7 7 8 8 9 8 9 8 8 9 10 9 9 8 7 7 7 7 8 9 9 9 9 8 9 9 10 9 8 8 8 5 1 2
4 4 4 4 4 4 3 3 4 4 4 4 4 7 9 10 9 9 9 9 9 9 9 8 9 9 9 9 10 9 8 9 9 9 9 9 8 8 8 5 2 1 0
4 4 4 2 1 1 0 0 -0 0 0 0 1 2 3 4 5 6 7 9 10 9 9 9 9 9 9 9 9 10 9 8 9 9 10 9 9 8 8 2 2 1 0
2 1 2 3 1 -1 -1 -1 -2 -2 -3 -3 -2 -2 -2 -2 -1 1 3 3 3 4 5 6 6 8 8 9 10 9 10 10 10 10 10 10 8 8 5 3 2 1 0
-0 -2 -3 -3 -3 -4 -4 -4 -5 -5 -6 -5 -4 -4 -4 -4 -2 -2 -1 -0 2 3 3 3 4 6 9 10 10 11 11 10 10 10 8 8 8 7 4 3 1 1 0
-2 -2 -2 -2 -2 -3 -3 -3 -3 -3 -4 -4 -5 -6 -6 -6 -4 -4 -2 -1 -0 0 2 3 4 6 7 9 10 10 10 10 10 9 9 8 6 4 3 1 1 1 1
-2 -2 -2 -2 -2 -3 -4 -5 -5 -6 -6 -6 -6 -6 -7 -7 -8 -7 -4 -3 -0 1 1 2 3 4 6 9 9 9 9 9 9 9 8 6 4 3 2 1 0 0 0
-1 -2 -2 -2 -2 -3 -5 -5 -6 -7 -7 -7 -7 -7 -7 -7 -7 -7 -8 -5 -2 0 2 3 3 4 5 6 8 8 8 8 8 7 6 5 3 2 1 0 -0 -1 -1
-1 -2 -2 -3 -4 -5 -5 -6 -8 -8 -8 -6 -6 -6 -6 -6 -6 -5 -5 -5 -3 -1 1 3 4 3 4 4 6 7 7 7 6 5 4 2 1 1 0 -0 -1 -2 -2
-2 -2 -3 -4 -5 -6 -7 -10 -12 -12 -12 -13 -13 -10 -8 -6 -5 -5 -4 -3 -2 -1 1 2 3 4 4 4 4 4 5 4 4 3 2 1 1 0 -0 -2 -3 -3 -2
-3 -4 -5 -7 -10 -11 -12 -15 -15 -12 -13 -14 -14 -16 -15 -14 -11 -7 -5 -4 -2 -0 1 2 2 4 4 4 4 4 3 3 3 2 1 1 0 -0 -2 -3 -3 -1 -1
-4 -7 -12 -14 -15 -17 -18 -19 -19 -18 -18 -17 -17 -17 -16 -15 -16 -14 -10 -5 -3 0 1 2 3 3 3 4 3 3 3 2 2 1 1 0 -0 -1 -2 -3 -2 -1 -1
-8 -10 -11 -11 -9 -10 -14 -15 -18 -20 -20 -20 -21 -22 -21 -19 -18 -17 -15 -13 -3 -1 0 1 2 2 2 3 3 3 3 2 2 1 1 -0 -1 -1 -2 -2 -1 -1 -1
-10 -11 -12 -12 -9 -8 -8 -10 -13 -14 -16 -20 -22 -23 -20 -17 -15 -15 -15 -13 -7 -3 -2 -0 1 1 1 2 3 3 3 2 2 1 1 -0 -1 -1 -2 -1 -1 -0 -1
-12 -11 -10 -11 -14 -12 -11 -11 -12 -10 -11 -14 -18 -19 -19 -19 -17 -15 -14 -13 -11 -5 -2 -1 0 0 1 1 1 2 2 2 2 2 1 0 -0 -1 -1 -1 -1 -1 -1
-12 -11 -13 -14 -16 -16 -16 -16 -14 -12 -11 -12 -14 -16 -16 -15 -13 -13 -12 -10 -10 -10 -8 -3 -2 -1 0 0 0 0 1 1 1 2 1 1 0 -1 -1 -1 -1 -1 -2
-12 -12 -14 -16 -16 -17 -18 -18 -17 -15 -11 -9 -11 -13 -13 -12 -12 -13 -12 -10 -6 -6 -7 -5 -4 -3 -2 -0 -0 -0 -0 0 0 1 0 -0 -0 -1 -1 -1 -2 -2 -2
-13 -15 -18 -18 -18 -18 -19 -18 -18 -16 -13 -10 -10 -9 -9 -9 -10 -12 -14 -13 -9 -8 -6 -6 -5 -4 -3 -2 -1 -1 -1 -1 -0 -0 -0 -1 -1 -1 -1 -1 -1 -2 -2

GFSMW_850_dewp_093.txt.gz
Dewpoint
-9 -7 3 4 5 7 7 7 7 6 6 8 9 10 10 10 9 8 10 11 10 10 10 8 8 8 9 9 9 8 7 7 8 9 9 8 9 11 10 10 10 9 9
-6 0 6 3 6 7 8 8 8 9 8 9 8 10 10 9 10 9 9 9 11 10 11 10 10 11 11 12 11 10 9 9 10 10 10 9 9 9 9 10 10 9 9
4 5 4 4 5 7 7 7 8 8 7 7 8 10 10 9 9 10 10 9 7 10 10 10 11 11 10 11 11 11 11 11 11 10 9 10 10 10 10 10 10 9 9
4 4 4 4 8 7 7 8 8 8 7 6 9 10 10 9 8 9 11 9 9 10 10 10 10 11 10 9 10 11 11 11 10 11 10 10 10 10 9 10 9 9 8
6 7 8 8 9 9 9 7 7 9 10 9 9 10 10 10 10 10 11 9 9 8 7 8 10 9 10 10 10 9 10 9 10 10 10 10 9 9 10 9 9 9 7
7 6 8 8 9 9 9 9 9 10 10 10 10 10 10 10 10 10 10 11 10 11 10 10 8 8 8 7 8 9 9 7 8 9 9 9 8 9 9 9 9 8 7
6 7 8 8 8 8 8 8 9 9 9 10 10 9 10 10 10 10 10 10 10 10 9 9 8 8 7 8 8 7 8 9 9 9 8 8 9 9 10 10 9 9 8
6 6 6 6 7 7 8 8 8 8 8 9 9 9 8 10 10 10 9 10 9 9 7 9 9 7 7 8 8 9 9 10 10 9 9 9 9 8 10 10 8 8 8
4 4 5 5 6 6 6 7 7 7 8 8 8 7 6 8 7 8 7 8 8 7 9 9 9 7 7 8 9 8 8 9 10 9 9 9 7 7 8 7 7 7 8
4 4 4 4 4 4 4 5 5 5 7 7 8 8 9 8 7 8 8 9 9 9 10 9 9 8 8 9 9 8 9 8 7 10 9 9 8 8 9 7 7 8 7
4 4 4 3 3 2 2 0 1 1 2 2 3 4 4 6 8 8 8 9 10 10 10 10 9 9 9 8 8 8 9 9 8 8 7 8 8 9 9 8 8 8 5
3 3 3 3 0 -1 -2 -1 -3 -2 -1 -1 -1 -0 0 -0 0 1 2 3 3 4 4 5 6 8 9 9 9 9 9 9 10 9 8 9 9 9 9 9 8 5 2
-1 -2 -2 -3 -3 -3 -3 -3 -4 -4 -4 -5 -5 -5 -5 -4 -3 -3 -2 -1 -1 -0 1 3 3 3 3 4 8 10 10 10 10 10 10 10 10 10 9 8 8 3 2
-2 -2 -2 -2 -3 -3 -4 -4 -5 -5 -5 -5 -5 -5 -5 -5 -6 -7 -6 -5 -3 -2 -0 -0 1 3 4 5 5 9 9 9 9 9 10 9 10 9 9 8 6 3 2
-2 -2 -2 -2 -3 -3 -4 -5 -6 -6 -6 -6 -6 -6 -6 -6 -7 -7 -7 -8 -7 -4 -1 0 1 2 2 4 6 8 8 8 9 9 9 9 9 9 8 7 4 2 2
-2 -2 -2 -2 -3 -5 -6 -6 -8 -8 -8 -8 -8 -9 -8 -8 -8 -8 -7 -7 -7 -7 -6 -2 1 2 3 4 4 7 7 8 8 8 8 8 8 8 7 4 3 2 1
-2 -2 -2 -4 -5 -6 -7 -9 -11 -12 -13 -13 -14 -14 -14 -13 -11 -9 -8 -6 -6 -6 -5 -4 -2 1 3 3 4 5 6 7 8 8 8 7 7 6 5 4 2 1 0
-2 -2 -4 -5 -7 -9 -10 -11 -13 -15 -16 -16 -17 -17 -19 -19 -18 -16 -13 -11 -7 -5 -5 -4 -2 -0 1 3 4 4 4 5 6 6 6 6 6 5 3 2 1 0 -0
-3 -4 -5 -7 -11 -11 -11 -11 -14 -16 -17 -18 -18 -18 -20 -21 -21 -21 -21 -19 -15 -10 -5 -3 -1 0 2 2 4 4 4 4 4 4 4 3 3 2 2 1 0 -1 -2
-4 -6 -9 -11 -12 -13 -14 -13 -12 -14 -16 -19 -19 -19 -20 -21 -22 -21 -22 -23 -22 -20 -16 -3 -1 1 1 2 2 3 4 3 3 3 3 3 2 1 1 1 -0 -2 -2
-7 -9 -11 -12 -14 -15 -17 -17 -17 -17 -17 -17 -18 -18 -19 -19 -18 -17 -17 -18 -18 -18 -17 -16 -3 -1 0 1 1 2 2 3 3 3 3 2 2 1 1 0 -1 -2 -2
-9 -10 -11 -11 -11 -10 -10 -12 -15 -15 -17 -19 -20 -19 -18 -17 -15 -13 -15 -14 -13 -13 -14 -16 -13 -3 -0 -0 1 1 2 2 2 3 2 2 1 1 0 -0 -1 -1 -1
-10 -11 -11 -11 -12 -13 -14 -12 -13 -12 -12 -10 -13 -18 -19 -18 -15 -13 -11 -10 -11 -12 -12 -11 -12 -13 -3 -1 -0 0 0 0 1 2 2 2 1 1 -0 -1 -1 -1 -1
-12 -13 -12 -13 -15 -18 -17 -18 -18 -18 -16 -15 -15 -14 -14 -15 -14 -12 -10 -10 -10 -10 -7 -8 -11 -12 -12 -7 -2 -1 -1 -0 -0 0 1 1 1 1 0 -1 -1 -1 -1
-13 -13 -13 -15 -18 -17 -17 -18 -17 -16 -16 -14 -13 -13 -11 -10 -10 -11 -10 -10 -11 -9 -6 -6 -6 -6 -6 -8 -5 -3 -2 -1 -1 -1 -0 -0 -0 -0 -1 -0 -1 -1 -1
-15 -16 -17 -18 -16 -15 -15 -16 -15 -14 -13 -13 -13 -12 -10 -9 -9 -10 -12 -12 -12 -11 -10 -7 -6 -6 -6 -6 -5 -5 -3 -2 -2 -2 -1 -1 -1 -1 -1 -0 -1 -1 -1

GFSMW_850_dewp_096.txt.gz
Dewpoint
-7 -8 -7 -8 -5 5 3 6 8 6 7 8 9 9 9 9 9 9 10 8 8 8 9 9 11 10 11 9 8 8 6 5 6 6 6 7 8 9 9 10 9 10 9
-6 -8 -5 -7 4 3 6 6 7 7 7 7 8 9 10 10 10 10 10 10 9 9 10 11 10 11 11 11 9 7 6 6 7 7 9 9 9 9 10 10 10 9 9
-4 -1 -2 1 6 5 7 6 8 7 7 7 9 9 10 10 10 10 11 10 11 10 9 9 9 11 10 8 8 9 10 8 8 9 10 10 9 9 9 9 10 10 10
4 2 3 5 6 6 7 7 7 7 8 9 8 8 8 9 8 9 10 10 11 11 10 11 10 9 8 9 9 10 9 9 10 10 10 10 9 10 10 10 10 10 10
2 4 5 7 8 8 9 8 8 8 9 10 10 9 9 6 7 9 10 9 10 10 10 11 10 9 10 9 8 9 8 8 9 9 9 10 10 10 10 9 10 9 8
4 6 7 8 9 8 9 8 9 7 8 10 10 11 10 9 8 10 10 9 9 11 10 9 11 11 10 9 10 9 10 10 9 9 8 9 8 9 9 9 9 8 8
7 7 7 7 8 8 9 9 8 8 9 9 10 10 10 10 10 10 10 10 9 9 10 10 10 9 9 9 10 10 9 9 8 8 8 9 8 9 7 8 8 9 9
5 6 6 6 7 8 8 8 8 9 9 9 9 9 9 8 9 9 10 10 10 10 10 10 10 10 10 9 9 9 8 8 7 8 9 9 9 10 10 9 9 10 9
5 4 5 5 5 6 6 7 7 8 8 8 8 7 9 9 9 9 9 9 10 10 10 9 9 9 10 10 9 9 8 8 9 9 10 10 9 9 10 10 10 10 9
4 4 4 4 3 4 5 5 6 7 7 7 8 8 8 8 9 8 9 8 9 9 8 9 10 10 9 10 9 9 9 9 8 9 9 10 10 10 10 9 9 9 7
3 3 3 3 3 2 2 3 3 3 3 4 5 5 6 8 8 9 9 9 9 9 10 10 10 9 8 8 9 8 9 9 9 9 9 9 10 9 8 8 8 7 7
2 3 3 3 3 2 3 -2 -3 -3 -3 -2 -2 -1 -0 1 1 2 3 3 4 4 4 5 5 6 9 9 9 9 8 8 9 9 10 9 8 8 9 9 9 8 8
1 1 0 -1 -2 -2 -3 -3 -4 -5 -5 -4 -5 -5 -5 -6 -6 -5 -4 -3 -1 -0 1 1 3 3 3 4 7 9 10 10 9 10 9 10 9 8 9 9 9 9 9
-2 -2 -2 -3 -3 -4 -4 -5 -5 -5 -6 -6 -6 -6 -6 -6 -6 -6 -6 -7 -7 -6 -3 -0 1 1 2 3 5 6 8 9 9 9 9 9 10 10 9 10 9 9 8
-2 -2 -2 -2 -3 -5 -5 -6 -7 -8 -8 -8 -8 -9 -9 -8 -8 -7 -7 -7 -7 -7 -7 -7 -4 -1 1 2 3 4 5 8 8 9 9 9 9 9 9 9 9 9 8
-2 -2 -2 -3 -4 -5 -6 -7 -9 -10 -10 -11 -12 -13 -14 -15 -15 -15 -14 -11 -9 -7 -6 -6 -6 -6 -2 2 3 4 4 5 7 7 7 8 9 9 8 9 9 9 8
-2 -2 -2 -4 -5 -7 -8 -9 -10 -12 -14 -14 -15 -16 -16 -17 -19 -20 -20 -20 -19 -19 -15 -7 -5 -4 -3 -0 2 4 4 5 6 6 6 7 8 8 8 9 8 7 5
-2 -2 -4 -5 -7 -9 -10 -11 -12 -13 -14 -16 -18 -19 -19 -20 -21 -21 -21 -21 -22 -22 -21 -20 -15 -6 -4 -3 0 3 4 4 4 5 6 6 7 6 7 7 6 6 4
-2 -3 -5 -7 -10 -11 -12 -13 -13 -14 -15 -15 -17 -18 -18 -19 -20 -20 -21 -21 -22 -22 -22 -22 -21 -20 -11 -2 0 1 2 3 3 4 5 5 6 5 5 5 5 4 4
-4 -6 -8 -10 -11 -12 -13 -14 -15 -15 -15 -15 -15 -16 -16 -17 -18 -19 -20 -21 -21 -21 -20 -19 -18 -19 -17 -5 -1 0 1 2 2 3 3 4 4 4 4 4 3 2 1
-5 -6 -8 -9 -12 -14 -15 -16 -17 -17 -16 -16 -16 -17 -16 -13 -15 -15 -15 -14 -15 -16 -18 -18 -18 -17 -18 -11 -2 -1 0 1 1 2 3 3 3 3 3 2 2 1 1
-6 -8 -11 -14 -15 -15 -15 -15 -16 -17 -19 -21 -23 -24 -23 -19 -17 -16 -17 -17 -15 -13 -13 -15 -18 -18 -15 -14 -8 -1 -0 0 0 1 1 2 2 2 2 2 2 1 0
-9 -12 -14 -15 -14 -13 -14 -16 -18 -17 -17 -18 -19 -20 -23 -23 -19 -14 -12 -12 -11 -11 -12 -13 -14 -16 -16 -16 -14 -9 -2 -1 -0 -0 0 1 1 1 1 1 1 1 -0
-13 -13 -12 -12 -14 -17 -19 -18 -16 -16 -15 -14 -14 -14 -15 -16 -16 -13 -9 -9 -10 -9 -10 -10 -11 -12 -13 -15 -14 -10 -7 -3 -2 -1 -0 -0 0 -0 0 0 0 0 -0
-14 -14 -15 -16 -17 -17 -16 -16 -15 -14 -13 -12 -13 -13 -13 -13 -13 -12 -9 -8 -8 -8 -9 -11 -7 -6 -7 -8 -7 -6 -6 -5 -3 -2 -2 -1 -1 -0 -1 -1 -1 -0 -0
-17 -17 -17 -16 -15 -13 -13 -13 -13 -12 -11 -10 -11 -11 -11 -12 -11 -10 -9 -9 -8 -9 -11 -10 -8 -7 -7 -7 -7 -6 -6 -6 -6 -3 -2 -2 -2 -1 -1 -1 -1 -1 -1

GFSMW_850_dewp_102.txt.gz
Dewpoint
-3 -4 -6 -6 -6 -7 -9 -10 5 6 7 7 8 8 7 6 6 7 8 7 7 8 9 10 10 9 10 8 8 7 7 7 6 8 6 7 7 7 6 6 7 9 9
-2 -3 -6 -6 -6 -7 -8 -10 4 5 7 8 8 8 7 8 8 8 8 8 8 8 8 9 9 8 9 8 5 4 5 5 6 8 8 10 8 7 5 6 6 8 9
-2 -3 -6 -6 -5 -7 -7 -4 4 4 5 8 9 8 8 7 7 8 8 8 8 9 9 9 9 9 9 9 9 7 6 6 5 4 7 9 8 6 4 4 5 6 8
-1 -3 -3 -2 -1 -5 -7 0 4 4 5 8 9 8 7 6 7 8 8 8 9 9 9 9 9 9 10 9 9 9 8 9 7 6 9 8 7 8 6 6 4 5 8
2 3 5 6 4 0 3 5 5 6 6 8 8 8 8 7 7 8 8 8 8 8 9 10 10 10 10 10 9 9 9 9 8 6 8 9 9 8 9 8 7 7 7
5 6 6 6 7 6 4 4 4 6 7 8 9 9 9 9 8 8 9 9 8 8 8 9 10 11 10 10 10 10 9 8 9 9 7 9 9 9 9 9 9 8 8
5 5 5 6 6 7 8 6 7 8 8 8 8 8 9 8 9 9 9 10 9 10 9 9 9 10 10 9 11 11 10 8 9 9 10 10 9 10 9 8 9 9 9
4 4 5 5 6 6 7 7 8 8 8 8 8 8 8 8 8 10 10 10 9 10 10 10 10 10 10 10 9 10 9 9 10 10 9 9 9 9 9 9 9 10 9
3 3 4 5 5 5 6 6 7 7 8 8 8 8 8 8 9 9 9 9 9 9 9 9 9 10 10 10 10 10 9 8 9 10 9 9 10 10 10 9 10 9 10
2 2 2 3 4 4 4 5 5 5 5 4 4 5 6 7 7 6 7 8 8 9 9 9 9 8 9 10 9 10 10 10 9 7 9 9 9 8 9 8 9 9 9
2 2 2 2 2 2 1 1 1 2 1 0 -1 -2 -1 0 4 3 -0 -1 0 1 2 4 7 8 9 8 8 8 8 10 10 9 9 8 6 7 9 9 9 9 10
2 2 3 3 3 3 3 3 2 -0 -1 -1 -0 -1 -3 -4 -5 0 1 -5 -6 -5 -4 -2 1 1 3 5 7 9 8 9 8 9 9 9 8 8 9 9 9 9 9
1 1 1 0 0 1 1 2 2 1 1 -0 -3 -6 -9 -10 -10 -10 -10 -10 -9 -8 -7 -6 -6 -5 -1 1 3 4 6 8 9 9 9 8 8 8 8 9 9 9 9
-1 -2 -2 -2 -2 -3 -5 -7 -6 -7 -9 -11 -12 -13 -13 -14 -16 -17 -16 -18 -18 -18 -17 -17 -14 -10 -7 -6 -5 -1 1 3 5 6 8 8 9 9 9 9 9 8 9
-2 -2 -2 -3 -5 -5 -6 -8 -9 -11 -12 -13 -14 -14 -15 -16 -17 -17 -17 -19 -19 -19 -19 -18 -19 -19 -19 -16 -10 -6 -5 -2 0 2 4 5 7 8 8 9 9 9 9
-2 -2 -3 -4 -5 -7 -8 -9 -10 -10 -11 -12 -13 -14 -15 -16 -17 -17 -17 -18 -18 -18 -19 -19 -19 -19 -19 -20 -21 -21 -16 -8 -4 -3 0 3 4 6 7 8 8 8 8
-1 -2 -2 -4 -6 -9 -9 -10 -11 -12 -13 -14 -15 -16 -16 -17 -17 -17 -17 -17 -17 -18 -18 -18 -18 -19 -19 -19 -20 -20 -21 -22 -21 -11 -5 -1 3 4 5 5 7 7 7
-2 -2 -3 -5 -8 -9 -9 -11 -12 -14 -15 -16 -16 -16 -16 -17 -19 -21 -23 -24 -24 -23 -23 -22 -21 -20 -21 -21 -21 -21 -21 -21 -20 -17 -12 -4 -3 2 4 4 4 6 7
-2 -2 -4 -6 -8 -8 -10 -13 -14 -15 -15 -15 -17 -20 -22 -23 -23 -23 -22 -21 -21 -22 -22 -22 -21 -20 -21 -21 -20 -20 -21 -20 -20 -15 -15 -8 -3 -1 2 3 4 5 5
-2 -3 -5 -7 -8 -11 -13 -13 -13 -15 -17 -19 -20 -20 -20 -20 -21 -20 -21 -20 -20 -19 -19 -20 -18 -16 -16 -17 -18 -19 -17 -16 -17 -18 -5 -2 -1 -0 0 2 3 4 4
-3 -5 -7 -9 -12 -13 -13 -13 -16 -19 -19 -19 -20 -20 -20 -20 -19 -19 -19 -18 -18 -18 -18 -17 -17 -14 -12 -12 -13 -15 -15 -15 -14 -11 -7 -4 -2 -1 -0 1 2 3 3
-5 -7 -9 -12 -13 -13 -14 -18 -21 -20 -19 -19 -20 -20 -19 -18 -17 -15 -15 -15 -15 -15 -14 -13 -12 -12 -12 -12 -13 -12 -8 -8 -6 -6 -5 -5 -4 -3 -2 -0 1 2 2
-6 -9 -13 -14 -14 -17 -21 -21 -21 -20 -19 -17 -16 -16 -16 -16 -17 -16 -16 -14 -14 -13 -12 -11 -8 -9 -10 -11 -13 -11 -7 -7 -6 -6 -6 -6 -7 -5 -3 -2 -0 0 1
-9 -14 -14 -15 -21 -23 -21 -20 -18 -16 -16 -16 -17 -17 -16 -16 -14 -14 -13 -11 -11 -12 -9 -8 -7 -8 -9 -10 -10 -10 -7 -7 -7 -7 -7 -6 -6 -6 -3 -2 -1 -0 -0
-14 -14 -15 -23 -25 -22 -19 -18 -18 -18 -18 -17 -16 -15 -15 -14 -14 -13 -12 -12 -12 -10 -8 -7 -7 -7 -8 -8 -8 -7 -7 -7 -7 -7 -7 -7 -7 -6 -6 -3 -2 -1 -1
-13 -17 -24 -23 -19 -20 -20 -19 -18 -17 -16 -15 -15 -15 -14 -13 -13 -12 -12 -13 -12 -11 -10 -10 -8 -8 -8 -8 -7 -7 -8 -8 -7 -8 -8 -8 -7 -6 -6 -5 -3 -3 -2

GFSMW_850_dewp_105.txt.gz
Dewpoint
-2 -2 -2 -3 -6 -6 -5 -7 -10 -8 3 7 7 9 9 8 8 8 9 8 7 8 8 8 9 9 10 10 10 9 9 10 9 7 6 7 6 4 4 6 5 5 5
-2 -1 -1 -3 -6 -7 -6 -6 -7 -5 2 7 6 7 7 7 7 7 7 7 7 7 8 8 9 10 10 10 10 10 8 10 8 8 7 9 5 3 5 6 5 5 5
5 1 -4 -3 -6 -7 -7 -7 -7 2 3 7 7 8 8 8 7 7 7 8 8 9 9 9 9 9 9 9 8 9 8 7 7 7 8 7 7 7 6 3 4 3 4
5 3 2 2 -2 -6 -5 -7 -7 -6 3 6 5 6 9 8 7 7 6 7 7 8 9 10 10 10 9 10 10 9 9 9 8 6 6 6 8 7 6 5 3 2 2
4 1 3 6 6 3 1 -1 1 -2 4 4 4 7 9 8 7 7 8 8 8 8 8 9 8 9 10 10 10 10 10 9 10 10 9 6 6 8 8 8 6 6 5
4 3 5 5 6 4 3 8 8 4 5 6 7 9 10 10 9 8 8 8 8 9 9 8 8 9 8 9 9 9 10 10 10 10 10 10 9 8 9 9 8 8 7
3 3 4 6 6 3 4 4 4 3 5 6 8 9 9 9 8 8 9 9 9 9 9 9 10 9 9 9 9 10 10 10 10 10 9 9 9 9 8 8 9 9 8
2 2 3 5 6 6 7 7 7 7 8 8 8 8 8 7 8 8 9 9 9 9 9 9 10 10 10 10 10 10 10 10 10 10 10 9 8 8 9 9 8 9 9
2 2 2 3 4 5 6 6 6 6 6 7 7 7 7 7 7 7 7 8 7 8 7 9 9 9 9 9 10 10 9 9 10 10 10 8 7 9 9 8 9 8 9
2 2 2 2 2 2 3 3 3 3 1 0 0 -0 -1 2 4 4 1 1 2 1 2 2 5 8 8 9 9 9 9 10 10 9 9 9 9 9 9 9 9 9 9
2 2 2 2 2 2 1 0 1 1 1 2 1 -2 -2 -3 -3 2 3 1 -2 -1 -4 -3 -3 -0 1 4 7 9 9 8 9 8 10 9 8 9 9 9 9 9 8
2 2 2 2 2 2 3 2 2 1 1 1 0 -0 -2 -6 -7 -7 -4 -4 -2 -9 -10 -7 -6 -5 -5 -2 -0 1 4 7 8 8 9 8 9 9 8 8 9 8 7
1 1 1 1 1 0 1 1 1 -1 -2 -3 -4 -4 -6 -10 -10 -13 -13 -12 -13 -14 -15 -15 -16 -16 -13 -9 -6 -4 -1 1 3 5 6 8 8 9 9 9 9 9 8
-1 -2 -2 -3 -3 -5 -8 -9 -8 -8 -10 -9 -10 -14 -14 -15 -14 -15 -16 -16 -16 -17 -17 -17 -18 -18 -18 -19 -19 -18 -14 -9 -5 -2 2 4 6 8 8 8 9 8 9
-2 -2 -2 -4 -5 -6 -7 -8 -10 -11 -11 -12 -14 -14 -14 -15 -15 -16 -16 -17 -17 -17 -17 -17 -17 -17 -17 -17 -17 -18 -18 -19 -19 -19 -12 -6 -0 3 5 6 7 8 8
-2 -2 -2 -3 -5 -7 -8 -9 -10 -11 -12 -13 -14 -15 -16 -16 -16 -17 -18 -20 -22 -23 -24 -24 -24 -23 -21 -20 -19 -19 -18 -18 -17 -17 -18 -20 -18 -8 -2 3 5 6 7
-2 -2 -2 -3 -5 -8 -9 -9 -10 -12 -14 -15 -15 -16 -16 -18 -22 -26 -27 -28 -29 -29 -28 -28 -28 -29 -29 -29 -28 -25 -23 -21 -20 -19 -19 -18 -17 -19 -15 -7 1 4 5
-2 -2 -2 -3 -6 -8 -9 -10 -12 -14 -15 -15 -15 -19 -24 -26 -25 -24 -23 -22 -21 -20 -20 -20 -20 -20 -22 -22 -22 -23 -24 -25 -24 -23 -22 -20 -20 -17 -14 -10 -7 -3 2
-1 -2 -2 -5 -7 -8 -10 -12 -13 -14 -15 -18 -22 -23 -21 -21 -20 -19 -19 -18 -18 -18 -18 -18 -18 -17 -17 -17 -17 -16 -16 -18 -20 -23 -24 -20 -17 -16 -13 -3 -1 -2 0
-2 -2 -4 -6 -7 -8 -10 -13 -14 -15 -21 -22 -20 -19 -18 -18 -18 -18 -17 -18 -17 -18 -18 -18 -17 -16 -16 -15 -14 -13 -12 -13 -14 -16 -18 -21 -17 -5 -3 -3 -2 -1 -1
-2 -3 -5 -6 -7 -10 -14 -14 -16 -20 -19 -17 -16 -16 -15 -16 -17 -18 -17 -18 -18 -18 -18 -18 -18 -17 -16 -16 -15 -14 -13 -10 -8 -7 -7 -9 -17 -13 -4 -5 -3 -2 -1
-3 -4 -6 -7 -11 -13 -14 -18 -20 -19 -17 -16 -17 -18 -19 -18 -18 -18 -17 -17 -15 -15 -15 -14 -14 -14 -11 -10 -10 -10 -7 -7 -7 -7 -7 -7 -7 -7 -8 -6 -7 -4 -2
-4 -5 -7 -12 -14 -15 -20 -20 -19 -17 -18 -19 -19 -19 -18 -18 -17 -16 -16 -17 -16 -15 -14 -12 -11 -10 -9 -11 -12 -11 -10 -8 -7 -7 -7 -7 -7 -7 -6 -7 -6 -7 -3
-5 -7 -12 -14 -16 -21 -20 -18 -17 -18 -19 -19 -18 -18 -18 -17 -17 -16 -15 -14 -14 -13 -12 -9 -8 -8 -8 -8 -10 -10 -8 -8 -8 -8 -8 -8 -8 -7 -7 -7 -6 -5 -4
-7 -12 -13 -17 -22 -19 -18 -19 -19 -19 -18 -18 -18 -17 -17 -16 -16 -15 -14 -14 -14 -10 -8 -8 -8 -8 -8 -8 -9 -7 -7 -8 -7 -7 -8 -9 -9 -10 -8 -8 -7 -6 -5
-12 -13 -17 -23 -19 -20 -20 -19 -18 -18 -18 -18 -17 -16 -16 -15 -14 -14 -15 -14 -10 -9 -9 -9 -8 -8 -8 -8 -8 -8 -7 -8 -7 -7 -7 -9 -10 -10 -10 -9 -8 -8 -5

GFSMW_850_dewp_108.txt.gz
Dewpoint
2 3 -4 -5 -3 -3 -4 -5 -6 -8 -9 -6 -4 6 9 9 9 9 10 10 9 8 8 10 9 8 8 10 10 11 12 11 11 12 11 10 7 6 9 7 5 5 6
3 4 5 1 -4 -4 -5 -6 -6 -6 -8 -5 -5 7 8 8 8 9 9 9 9 9 8 8 8 8 9 12 11 11 11 11 11 10 10 10 9 7 6 6 5 3 2
4 5 4 5 6 1 -6 -6 -7 -7 -7 -3 2 10 10 8 8 8 8 8 8 8 8 8 9 8 10 9 10 10 11 11 10 10 10 10 9 8 6 4 4 3 2
4 4 4 4 5 3 -3 -6 -7 -6 -6 4 4 10 10 9 8 8 8 8 9 9 9 9 9 9 10 10 10 10 9 9 10 10 8 9 8 7 7 6 7 3 4
4 3 3 4 5 4 5 6 5 3 4 1 6 9 9 9 8 8 7 8 9 9 8 8 9 10 10 9 10 10 10 10 10 10 9 7 7 7 7 8 8 6 5
3 3 3 4 5 5 5 6 6 7 8 3 7 6 7 7 6 8 10 9 9 9 10 9 9 9 10 10 10 9 10 10 10 10 10 10 9 7 7 7 7 8 9
2 3 3 3 4 5 5 6 7 6 4 6 8 8 8 8 8 9 8 8 9 9 10 9 9 10 10 10 10 10 10 10 11 10 10 10 10 10 9 9 8 8 7
2 2 2 2 4 5 5 6 6 4 5 6 7 7 7 7 7 8 8 8 8 8 9 9 9 9 9 10 9 10 9 9 10 10 9 10 10 10 10 10 9 9 9
2 2 2 2 2 4 5 5 5 6 6 6 7 6 7 7 6 6 6 6 6 5 5 6 8 8 8 9 9 9 10 10 10 10 9 10 9 10 10 10 10 10 9
1 1 2 1 1 2 1 2 2 2 2 2 -1 -2 -1 2 3 4 3 1 -0 -0 0 -2 -1 -0 1 1 5 8 9 9 9 9 9 10 9 10 10 10 9 8 9
2 2 2 2 2 1 1 2 1 1 1 1 -0 -4 -5 -7 -9 -6 -2 2 2 -2 -5 -4 -4 -6 -4 -3 -1 1 3 6 8 8 8 9 8 9 10 9 8 9 10
2 2 2 2 2 2 2 2 2 1 1 1 -1 1 1 -8 -13 -13 -13 -13 -13 -5 -11 -12 -14 -15 -12 -13 -10 -6 -5 -2 1 2 4 6 8 8 9 9 9 9 9
2 1 -0 0 -0 -1 -1 -2 -4 -6 -5 -7 -9 -8 -5 -3 -5 -9 -12 -13 -14 -12 -12 -14 -15 -16 -16 -16 -16 -17 -17 -15 -11 -8 -4 -0 3 5 7 8 8 8 9
1 -0 -2 -3 -4 -6 -8 -9 -10 -10 -11 -10 -10 -11 -10 -11 -13 -13 -15 -15 -16 -16 -17 -17 -18 -18 -18 -18 -17 -17 -16 -16 -17 -17 -18 -16 -9 -4 1 3 6 7 8
-1 -2 -2 -3 -5 -6 -7 -9 -9 -10 -11 -12 -13 -15 -15 -16 -16 -17 -19 -23 -27 -28 -29 -30 -31 -31 -31 -30 -28 -26 -23 -21 -20 -18 -17 -17 -17 -18 -15 -7 -1 2 5
-2 -2 -2 -3 -4 -6 -8 -8 -9 -10 -12 -14 -15 -15 -16 -18 -23 -26 -27 -27 -27 -26 -25 -25 -25 -25 -25 -26 -27 -27 -28 -30 -30 -28 -27 -24 -20 -18 -17 -17 -16 -5 2
-2 -2 -2 -2 -3 -6 -8 -9 -10 -11 -13 -14 -15 -16 -21 -24 -25 -24 -23 -22 -22 -21 -21 -21 -21 -21 -22 -22 -23 -23 -24 -23 -26 -27 -28 -28 -27 -26 -21 -19 -17 -15 -10
-2 -2 -1 -2 -3 -5 -8 -8 -10 -13 -14 -14 -17 -22 -25 -24 -23 -21 -20 -20 -20 -20 -20 -19 -19 -18 -17 -17 -17 -17 -17 -18 -20 -20 -22 -23 -24 -21 -7 -4 -8 -7 -8
-2 -2 -2 -2 -3 -7 -8 -9 -11 -14 -14 -17 -24 -24 -22 -20 -19 -18 -18 -19 -19 -19 -19 -19 -18 -17 -17 -15 -13 -12 -6 -6 -6 -7 -8 -13 -15 -11 -18 -8 -4 -4 -3
-2 -2 -2 -2 -5 -7 -8 -11 -13 -14 -18 -23 -22 -19 -18 -18 -19 -19 -19 -19 -18 -19 -19 -19 -18 -17 -17 -16 -14 -13 -7 -7 -7 -7 -7 -7 -7 -8 -8 -7 -6 -6 -6
-2 -2 -2 -4 -6 -7 -9 -12 -14 -18 -25 -21 -19 -19 -19 -19 -19 -18 -18 -17 -17 -17 -17 -18 -17 -15 -11 -12 -12 -12 -11 -7 -7 -8 -8 -7 -7 -7 -7 -6 -6 -6 -5
-2 -2 -4 -5 -6 -7 -12 -14 -20 -23 -19 -18 -19 -19 -18 -18 -18 -18 -18 -17 -16 -17 -16 -16 -16 -15 -13 -11 -9 -12 -11 -9 -7 -7 -8 -7 -7 -7 -7 -7 -7 -7 -6
-2 -3 -5 -6 -8 -12 -14 -20 -23 -19 -19 -19 -19 -18 -18 -17 -17 -17 -17 -16 -15 -13 -11 -9 -8 -8 -8 -8 -7 -7 -7 -7 -7 -7 -8 -8 -7 -7 -7 -7 -7 -8 -7
-3 -4 -6 -8 -13 -14 -21 -22 -19 -20 -19 -18 -18 -18 -17 -17 -17 -16 -16 -15 -11 -9 -8 -8 -8 -8 -8 -8 -8 -7 -7 -7 -7 -7 -8 -8 -7 -7 -7 -8 -8 -7 -8
-4 -5 -7 -12 -14 -21 -20 -20 -20 -19 -18 -17 -17 -17 -18 -17 -16 -15 -14 -13 -12 -9 -8 -8 -9 -8 -8 -8 -8 -7 -7 -7 -7 -7 -8 -8 -7 -8 -8 -9 -8 -9 -9
-4 -7 -12 -14 -22 -20 -21 -20 -18 -17 -17 -17 -16 -17 -17 -15 -14 -13 -13 -11 -11 -12 -12 -10 -9 -9 -9 -9 -8 -8 -8 -7 -7 -8 -8 -7 -7 -8 -9 -9 -10 -9 -9

GFSMW_850_dewp_111.txt.gz
Dewpoint
2 3 4 4 4 4 0 -0 -0 -1 -1 -2 -2 3 7 11 12 12 10 8 5 6 7 6 4 5 8 8 9 11 12 12 12 11 11 11 11 12 9 4 7 7 6
3 3 3 4 4 5 5 3 0 -0 -1 -1 -3 3 7 9 11 12 11 10 9 7 6 6 5 4 10 8 8 10 12 11 11 11 11 11 10 11 10 9 7 7 7
4 4 4 3 3 4 5 5 5 0 -1 -1 -5 4 -2 9 10 11 10 9 9 10 10 9 8 9 9 10 10 9 11 11 11 10 11 10 9 9 9 8 8 7 6
4 4 4 3 4 4 5 5 6 5 1 -1 -5 4 6 9 10 10 11 10 8 9 10 10 10 10 10 10 10 10 10 11 11 11 11 10 9 9 8 8 8 7 7
3 3 3 4 4 5 5 5 5 4 4 3 5 6 7 9 9 10 10 11 11 11 10 11 10 10 9 10 10 10 10 10 10 10 10 10 10 9 9 9 8 8 7
3 3 3 3 4 5 4 5 5 5 4 3 5 5 7 6 7 8 9 9 9 10 10 10 10 10 10 10 10 10 10 10 10 10 10 10 10 10 10 9 8 7 7
2 2 3 3 3 4 4 4 5 5 5 3 3 2 7 6 6 8 7 7 8 9 9 9 9 9 9 9 9 10 10 10 10 10 10 10 10 10 10 10 9 9 8
2 2 2 2 3 2 4 2 3 4 5 4 4 5 7 7 6 7 7 8 8 8 8 8 8 9 8 8 9 9 9 9 9 10 9 9 10 10 11 10 10 9 9
2 2 2 2 2 1 2 2 1 2 3 3 5 6 6 5 4 5 6 6 5 4 3 3 3 4 7 7 7 8 9 9 9 9 9 10 10 10 10 10 10 10 10
2 2 2 2 1 1 1 0 -1 -2 -3 -4 -4 -2 0 2 3 2 1 0 -1 -1 -1 -1 -2 -4 -3 -2 -1 -0 3 5 7 8 8 8 9 9 8 9 10 10 10
2 2 2 2 2 2 2 2 2 1 -1 -0 -0 -2 -5 -10 -12 -12 -11 -7 -3 1 1 -0 -4 -7 -7 -1 -2 -7 -4 -0 1 1 4 4 5 7 8 8 8 9 10
2 3 3 3 3 2 3 2 2 2 1 -0 1 0 0 0 1 -0 -9 -13 -14 -13 -13 -12 -10 -10 -12 -14 -10 -1 -2 -11 -14 -6 -5 -8 -1 3 2 5 8 8 8
2 2 1 1 -0 -1 -2 -6 -7 -10 -10 -10 -11 -10 -8 -7 -7 -7 -9 -12 -13 -15 -16 -17 -17 -16 -17 -18 -18 -17 -17 -16 -16 -16 -16 -16 -16 -14 -10 -6 2 5 6
1 1 -0 -2 -3 -3 -6 -7 -9 -10 -10 -11 -12 -13 -14 -15 -16 -16 -17 -20 -24 -28 -29 -30 -31 -31 -32 -31 -30 -31 -31 -30 -26 -22 -20 -19 -17 -16 -15 -16 -16 -12 -7
0 0 -1 -2 -3 -4 -5 -7 -8 -9 -10 -12 -13 -15 -15 -16 -19 -25 -29 -29 -29 -27 -26 -25 -25 -25 -25 -20 -24 -25 -26 -27 -26 -25 -24 -26 -29 -29 -24 -18 -17 -17 -15
0 -1 -1 -1 -2 -3 -5 -7 -8 -9 -10 -12 -14 -15 -16 -22 -26 -26 -24 -23 -22 -22 -22 -23 -22 -23 -19 -15 -22 -22 -23 -23 -22 -22 -24 -26 -26 -22 -26 -15 -9 -13 -14
0 -2 -1 -1 -2 -3 -5 -7 -7 -8 -10 -13 -14 -15 -21 -24 -22 -20 -18 -17 -18 -20 -21 -21 -21 -21 -20 -20 -20 -19 -19 -19 -17 -15 -17 -19 -16 -16 -12 -10 -11 -14 -8
-0 -1 -1 -1 -2 -3 -4 -7 -8 -9 -12 -13 -13 -17 -20 -20 -19 -19 -20 -21 -21 -21 -19 -19 -19 -19 -19 -18 -17 -16 -16 -11 -10 -8 -9 -10 -10 -11 -6 -9 -11 -13 -12
-1 -1 -1 -1 -2 -3 -5 -7 -8 -10 -13 -13 -17 -22 -22 -20 -22 -22 -21 -19 -18 -18 -17 -15 -14 -13 -13 -10 -11 -9 -7 -7 -7 -7 -7 -7 -7 -7 -12 -12 -12 -11 -11
-1 -1 -1 -2 -3 -4 -5 -7 -9 -12 -13 -15 -22 -20 -19 -20 -20 -18 -17 -17 -16 -15 -15 -15 -12 -11 -10 -8 -6 -6 -6 -7 -7 -8 -8 -8 -7 -6 -7 -7 -6 -6 -8
-1 -1 -2 -2 -3 -4 -6 -8 -10 -13 -15 -23 -20 -21 -22 -20 -19 -19 -17 -16 -15 -14 -13 -12 -11 -10 -9 -8 -7 -7 -7 -6 -7 -8 -8 -8 -8 -6 -7 -7 -7 -7 -7
-2 -2 -2 -3 -3 -5 -6 -9 -13 -15 -23 -21 -23 -22 -20 -20 -19 -16 -15 -14 -13 -13 -12 -11 -12 -10 -9 -8 -8 -7 -7 -7 -7 -7 -8 -8 -8 -8 -6 -6 -6 -7 -7
-2 -2 -3 -3 -4 -5 -7 -12 -15 -24 -21 -23 -22 -20 -19 -19 -18 -16 -16 -14 -13 -11 -10 -10 -9 -10 -11 -12 -8 -7 -7 -7 -7 -8 -8 -8 -8 -9 -10 -9 -8 -8 -9
-3 -3 -3 -4 -5 -7 -11 -14 -23 -20 -23 -21 -20 -19 -19 -19 -17 -16 -15 -13 -13 -11 -10 -9 -9 -9 -10 -10 -9 -8 -9 -8 -8 -8 -7 -7 -7 -8 -7 -7 -9 -10 -9
-3 -3 -4 -5 -7 -10 -14 -23 -21 -23 -21 -20 -19 -18 -17 -17 -15 -15 -13 -12 -11 -10 -9 -9 -9 -9 -9 -10 -9 -8 -8 -8 -8 -7 -8 -8 -9 -9 -8 -8 -10 -10 -10
-3 -3 -4 -6 -10 -13 -22 -21 -22 -21 -19 -18 -18 -17 -17 -16 -14 -12 -12 -11 -10 -10 -10 -9 -9 -9 -9 -9 -9 -9 -9 -9 -8 -9 -9 -10 -9 -9 -8 -10 -10 -10 -9

GFSMW_850_dewp_114.txt.gz
Dewpoint
3 3 4 4 3 3 3 2 5 6 2 -1 -1 -2 -3 -4 4 6 9 11 10 9 9 8 8 9 9 7 7 5 8 10 10 11 11 11 11 12 11 10 9 7 5
3 3 3 3 2 3 3 3 3 4 4 0 -1 -1 -2 -1 3 4 9 9 11 8 7 6 6 6 6 5 5 5 7 9 11 11 12 11 10 10 10 10 10 11 9
3 3 2 2 2 3 4 4 5 2 2 3 -0 -1 -3 -2 -3 0 2 8 10 10 7 7 5 6 6 7 6 7 9 9 9 10 11 11 10 9 9 9 8 8 9
2 3 3 3 3 4 4 5 5 5 4 5 3 1 2 -1 -0 -0 3 5 9 10 10 10 8 9 9 8 9 8 9 9 10 10 11 11 10 10 9 8 8 8 8
1 3 3 3 3 4 4 4 4 4 5 3 4 4 4 4 6 7 8 10 10 10 11 10 11 11 10 10 9 10 10 11 10 10 9 10 10 10 10 10 9 8 8
2 2 2 3 3 4 4 4 4 4 4 6 3 2 2 3 6 4 5 7 8 8 9 10 10 9 10 10 10 9 10 10 10 10 10 10 11 10 10 10 10 9 9
2 2 2 2 2 3 4 4 4 4 4 6 4 4 4 4 6 4 4 6 5 7 9 9 9 9 9 8 8 8 8 9 9 10 10 10 10 9 10 10 10 9 9
2 1 1 2 2 2 3 3 4 4 4 5 4 5 3 2 5 6 6 6 6 7 7 8 8 8 7 8 8 8 9 9 9 9 9 9 9 10 10 9 10 10 10
2 2 2 2 2 1 1 1 0 -0 2 4 4 4 4 3 4 4 5 4 -1 0 1 4 5 5 5 6 5 6 7 8 8 8 8 8 9 9 9 9 9 9 9
2 2 2 2 1 2 2 1 -0 -2 -3 -6 -6 -9 -10 -10 -7 -2 -1 -1 -2 -2 -2 -1 -2 -4 -5 -5 -4 -4 -4 -0 -0 2 3 4 5 7 7 7 8 8 8
2 2 3 2 3 3 2 2 1 -0 0 0 0 -0 0 -0 -2 -6 -11 -13 -12 -11 -9 -4 -0 -1 -1 -2 -3 -4 0 2 -2 -7 -10 -4 -6 -1 -2 3 4 5 6
2 2 2 2 2 2 1 -2 -3 -4 -7 -8 -10 -9 -8 -7 -7 -10 -10 -12 -11 -13 -14 -16 -16 -16 -15 -16 -16 -16 -15 -14 -13 -4 -1 -5 -13 -12 -4 -4 -12 0 3
2 2 1 0 -1 -2 -4 -7 -9 -9 -9 -9 -10 -12 -13 -15 -15 -16 -18 -21 -24 -26 -29 -29 -29 -30 -30 -29 -29 -27 -29 -30 -27 -24 -18 -15 -12 -14 -16 -16 -12 -14 -10
2 2 1 -0 -2 -3 -4 -7 -8 -8 -9 -10 -12 -14 -15 -16 -18 -24 -29 -29 -28 -27 -26 -25 -24 -24 -23 -21 -22 -22 -25 -25 -25 -23 -18 -17 -13 -17 -22 -22 -19 -17 -16
1 1 1 0 -2 -3 -3 -5 -7 -8 -8 -10 -11 -13 -15 -18 -25 -27 -25 -23 -22 -23 -23 -24 -25 -24 -23 -17 -19 -24 -24 -24 -24 -22 -19 -18 -20 -20 -17 -12 -6 -6 -12
1 1 0 -0 -1 -2 -3 -4 -6 -7 -8 -10 -12 -14 -15 -23 -25 -23 -22 -22 -23 -23 -23 -23 -22 -22 -22 -21 -19 -21 -23 -23 -22 -21 -19 -18 -18 -14 -11 -10 -11 -8 -6
0 0 0 -1 -1 -1 -3 -3 -5 -7 -7 -9 -12 -14 -19 -27 -24 -22 -23 -23 -23 -22 -22 -21 -21 -21 -20 -20 -19 -19 -20 -19 -18 -14 -13 -11 -10 -8 -9 -8 -10 -14 -16
-0 0 -0 -1 -1 -1 -2 -3 -4 -6 -7 -10 -13 -14 -23 -24 -22 -25 -24 -22 -21 -20 -20 -20 -20 -19 -18 -18 -17 -15 -16 -15 -14 -12 -9 -8 -8 -8 -8 -8 -11 -13 -14
-1 -0 -1 -1 -1 -1 -2 -3 -4 -6 -7 -11 -13 -20 -26 -22 -25 -23 -21 -21 -20 -20 -19 -19 -18 -16 -15 -11 -8 -7 -9 -9 -9 -8 -7 -8 -8 -7 -7 -7 -9 -9 -12
-1 -1 -1 -1 -1 -1 -2 -3 -6 -7 -9 -12 -16 -25 -21 -23 -22 -21 -21 -20 -19 -18 -17 -16 -13 -11 -10 -9 -8 -6 -6 -7 -7 -7 -8 -10 -8 -7 -6 -7 -7 -7 -8
-2 -1 -1 -1 -1 -2 -3 -4 -6 -8 -10 -14 -23 -22 -24 -22 -20 -21 -20 -19 -18 -16 -14 -13 -11 -11 -10 -10 -8 -7 -6 -7 -7 -7 -7 -9 -7 -7 -7 -7 -7 -7 -7
-2 -2 -1 -2 -2 -3 -4 -5 -7 -9 -13 -21 -23 -23 -22 -20 -21 -21 -21 -19 -16 -14 -13 -13 -13 -13 -11 -11 -12 -9 -7 -7 -7 -7 -7 -8 -8 -7 -7 -7 -8 -7 -6
-2 -2 -2 -2 -3 -3 -5 -6 -8 -13 -18 -23 -23 -22 -20 -21 -21 -20 -20 -18 -15 -13 -12 -11 -11 -13 -13 -13 -12 -12 -8 -8 -8 -8 -8 -7 -7 -7 -7 -9 -8 -7 -7
-2 -2 -3 -3 -3 -4 -5 -7 -12 -16 -23 -23 -23 -20 -21 -20 -20 -20 -19 -16 -14 -12 -11 -11 -10 -11 -12 -12 -11 -10 -9 -9 -9 -9 -9 -9 -9 -8 -10 -10 -11 -9 -10
-2 -2 -3 -3 -4 -4 -5 -9 -14 -24 -23 -24 -21 -20 -19 -19 -19 -19 -17 -15 -12 -10 -9 -8 -9 -9 -9 -10 -9 -8 -9 -9 -9 -8 -8 -9 -10 -10 -11 -10 -9 -10 -11
-2 -3 -3 -4 -4 -5 -7 -13 -22 -23 -23 -21 -19 -19 -19 -19 -20 -18 -17 -14 -11 -9 -8 -9 -9 -9 -9 -9 -9 -9 -9 -9 -8 -9 -9 -9 -9 -10 -9 -8 -9 -9 -9

GFSMW_850_dewp_117.txt.gz
Dewpoint
2 1 2 2 2 2 3 3 1 0 2 3 3 -1 -2 -2 -4 -5 -4 3 6 7 9 9 9 10 10 10 10 9 8 7 8 9 9 10 10 10 10 11 11 9 6
1 2 2 2 2 2 3 3 2 2 3 4 3 3 -0 -1 -1 -3 -7 -7 -0 7 9 9 9 10 10 10 9 8 7 6 6 6 7 8 10 11 10 10 10 10 9
2 1 2 2 3 3 3 3 3 3 3 4 3 2 4 -0 -0 1 -2 -5 -4 -0 7 8 10 9 9 10 9 7 5 5 7 9 8 10 10 9 9 9 9 9 8
1 1 2 2 2 3 3 3 3 3 3 4 3 2 3 3 4 4 3 3 0 0 6 9 9 9 8 7 6 7 8 9 8 9 9 9 10 9 9 9 9 8 8
1 1 2 2 2 3 3 3 3 4 3 2 5 3 3 3 3 4 4 5 7 6 8 8 8 10 9 9 9 8 9 10 10 10 10 10 10 10 10 11 10 9 9
1 1 1 2 2 3 3 3 3 5 4 4 5 4 4 4 3 3 4 5 6 6 6 6 8 8 10 10 10 9 9 9 9 9 9 10 10 10 10 10 10 10 9
1 1 1 1 2 2 2 2 3 4 4 4 4 5 4 4 4 3 5 5 5 5 4 5 6 6 8 9 9 8 8 8 8 8 8 8 9 9 10 10 9 9 9
1 1 2 1 2 2 2 2 1 2 3 4 3 3 3 3 4 3 2 4 5 5 4 4 5 7 7 8 7 7 7 8 8 8 8 9 9 9 9 9 9 9 9
2 2 1 2 1 2 2 1 -2 -2 -2 -6 -7 -8 -9 -8 -3 -1 -4 -2 2 3 4 -3 -5 -2 2 3 4 4 3 5 6 6 6 7 7 7 7 6 6 6 6
1 2 2 2 2 2 2 2 2 1 1 0 -0 -0 -1 -2 -3 -10 -12 -12 -10 -4 -2 -3 -3 -5 -6 -6 -5 -3 -2 -2 -3 -4 -5 -4 -4 2 2 2 1 1 4
1 1 2 2 3 2 3 2 1 -1 -3 -5 -7 -8 -8 -9 -11 -13 -14 -13 -13 -13 -15 -16 -15 -15 -12 -7 -7 -6 -4 -5 -7 -5 -1 -0 -1 -3 -7 -8 -3 -2 -4
1 1 2 2 2 1 1 -2 -5 -8 -9 -9 -10 -12 -13 -14 -16 -17 -20 -24 -27 -28 -28 -29 -29 -28 -28 -27 -26 -23 -22 -23 -25 -24 -21 -20 -15 -6 -2 0 -2 -14 -7
1 0 1 1 -0 -2 -2 -5 -8 -8 -8 -8 -10 -11 -13 -15 -17 -24 -30 -30 -27 -27 -25 -24 -24 -25 -24 -24 -24 -24 -24 -25 -24 -24 -23 -21 -21 -22 -19 -18 -11 -5 -11
0 0 1 1 0 -1 -2 -3 -6 -7 -7 -7 -7 -9 -12 -15 -20 -31 -30 -26 -25 -26 -26 -25 -24 -24 -23 -20 -22 -23 -25 -24 -24 -23 -20 -19 -17 -17 -18 -15 -12 -8 -10
1 1 1 1 1 -1 -2 -3 -4 -6 -7 -7 -7 -9 -13 -15 -25 -28 -24 -24 -28 -28 -27 -26 -25 -25 -24 -23 -22 -20 -20 -21 -21 -20 -19 -18 -16 -15 -12 -9 -9 -10 -10
1 1 1 1 1 0 -1 -2 -3 -4 -7 -8 -8 -10 -13 -17 -27 -23 -23 -25 -23 -21 -21 -20 -20 -19 -19 -18 -18 -17 -19 -20 -20 -19 -15 -11 -9 -8 -8 -8 -9 -10 -12
-0 1 1 0 0 -0 -1 -1 -2 -4 -6 -7 -8 -10 -13 -22 -24 -22 -24 -22 -21 -20 -20 -20 -19 -19 -18 -18 -18 -18 -16 -16 -16 -14 -13 -11 -9 -8 -7 -7 -8 -9 -12
-1 -0 0 0 0 -1 -1 -1 -2 -3 -6 -7 -8 -11 -15 -25 -22 -24 -22 -21 -20 -20 -19 -19 -18 -18 -17 -16 -15 -12 -12 -13 -13 -13 -12 -10 -9 -8 -7 -7 -8 -9 -11
-1 -1 -0 0 -0 -1 -1 -1 -2 -3 -5 -6 -8 -12 -21 -23 -23 -23 -21 -21 -20 -20 -18 -17 -17 -16 -15 -13 -11 -7 -8 -8 -9 -9 -9 -10 -11 -11 -8 -6 -6 -8 -9
-3 -2 -1 -1 -1 -1 -1 -1 -2 -3 -5 -6 -10 -14 -24 -23 -24 -21 -21 -21 -20 -19 -18 -17 -16 -14 -13 -12 -10 -7 -7 -7 -8 -9 -8 -8 -9 -10 -6 -6 -6 -7 -8
-4 -2 -1 -1 -1 -1 -1 -2 -3 -4 -6 -7 -12 -21 -23 -24 -21 -22 -22 -22 -21 -20 -18 -16 -15 -14 -13 -13 -12 -11 -8 -8 -7 -7 -7 -7 -8 -7 -7 -7 -6 -6 -8
-2 -2 -2 -1 -1 -1 -2 -3 -3 -5 -7 -11 -16 -23 -24 -22 -21 -21 -21 -20 -20 -19 -17 -15 -14 -13 -13 -12 -12 -12 -8 -8 -8 -8 -8 -9 -9 -7 -7 -7 -6 -6 -7
-2 -2 -2 -2 -2 -2 -3 -3 -4 -6 -8 -13 -23 -23 -23 -20 -20 -19 -19 -20 -19 -18 -16 -13 -13 -12 -12 -12 -12 -11 -10 -8 -8 -9 -9 -8 -8 -8 -8 -10 -10 -8 -8
-3 -2 -2 -2 -2 -3 -3 -4 -5 -7 -12 -20 -22 -23 -21 -20 -19 -19 -20 -19 -18 -17 -14 -12 -11 -11 -11 -10 -10 -9 -9 -10 -10 -10 -10 -9 -8 -9 -11 -11 -12 -11 -10
-3 -2 -2 -2 -3 -3 -4 -4 -6 -10 -16 -23 -23 -22 -20 -19 -19 -20 -21 -20 -17 -14 -10 -9 -8 -9 -9 -9 -8 -9 -9 -9 -9 -9 -9 -9 -9 -10 -11 -11 -11 -10 -9
-2 -1 -2 -2 -3 -3 -4 -5 -7 -13 -22 -23 -23 -21 -19 -19 -19 -20 -21 -18 -17 -15 -13 -10 -9 -9 -9 -9 -9 -9 -9 -9 -9 -9 -9 -11 -10 -9 -9 -8 -9 -9 -9

GFSMW_850_dewp_120.txt.gz
Dewpoint
1 1 0 1 1 2 2 2 2 1 1 1 1 -1 -1 -3 -4 -3 -2 -2 -3 -1 -0 5 6 7 10 10 10 10 10 10 10 11 10 9 9 9 9 9 10 10 10
1 0 0 1 2 2 2 3 3 3 2 1 1 3 2 1 2 0 -1 -0 -2 -5 -6 -6 0 6 9 9 9 10 10 10 10 8 7 9 8 8 8 10 10 10 9
1 1 1 2 2 2 3 3 3 3 3 1 1 1 -0 1 2 2 2 0 0 -0 -1 -5 -5 2 8 10 10 10 10 10 8 7 7 9 8 8 8 7 7 7 8
1 1 1 1 2 2 3 3 3 3 3 2 3 3 3 3 5 4 5 4 3 4 6 5 1 4 6 9 10 10 10 9 7 8 8 9 10 10 9 8 8 7 7
1 1 1 1 2 2 3 3 3 3 3 3 2 3 4 4 4 4 4 3 4 6 6 7 6 6 6 7 9 10 9 9 8 8 9 10 10 10 10 10 10 10 9
0 0 1 1 2 2 2 2 2 2 3 3 3 3 4 4 4 4 4 3 5 5 5 6 6 8 7 6 6 6 10 10 9 9 10 9 9 9 10 10 10 9 9
-1 0 0 1 2 2 1 2 2 1 1 2 2 1 2 -0 2 2 2 3 2 4 4 5 5 7 7 6 3 5 7 8 9 8 8 8 8 8 9 9 9 9 9
-0 -0 0 1 1 1 1 1 0 -0 -0 -2 -1 -3 -2 0 1 -3 -1 -0 -2 -2 -1 3 4 5 6 6 5 4 6 8 8 8 7 7 8 8 8 8 8 8 8
-0 -1 -0 1 1 2 2 2 2 2 1 1 2 2 1 -1 -3 -6 -9 -11 -9 -11 -5 -2 -0 0 1 3 3 3 1 0 3 5 5 5 6 5 5 6 6 5 5
-1 -1 -0 0 1 2 2 2 2 1 1 0 -2 -4 -5 -8 -10 -12 -14 -15 -14 -15 -15 -15 -11 -6 -7 -5 -4 -3 -3 -3 -1 -1 -2 -4 -5 -3 -2 -3 -3 1 2
-1 -1 -0 0 1 1 2 2 1 -0 -6 -8 -8 -9 -11 -13 -15 -17 -21 -25 -27 -27 -28 -26 -26 -26 -25 -23 -21 -19 -17 -17 -15 -15 -13 -10 -7 -2 -1 -1 -1 -4 -6
-1 -1 -1 0 1 1 1 1 -2 -7 -8 -8 -8 -9 -11 -13 -16 -20 -27 -27 -25 -23 -25 -27 -27 -27 -26 -26 -25 -25 -23 -25 -26 -25 -25 -25 -23 -21 -20 -19 -17 -11 -4
-1 -1 -0 0 0 -0 -1 -2 -5 -7 -7 -7 -8 -8 -10 -13 -15 -23 -30 -26 -23 -23 -24 -22 -24 -25 -26 -26 -26 -25 -25 -25 -26 -24 -21 -20 -18 -17 -18 -17 -18 -18 -13
-0 -0 -0 -0 -0 -0 -1 -2 -3 -5 -7 -7 -7 -7 -9 -12 -15 -25 -28 -24 -25 -26 -25 -24 -23 -22 -20 -19 -20 -21 -20 -21 -22 -23 -21 -20 -18 -17 -16 -16 -15 -14 -14
-1 -1 0 -0 -0 1 0 -1 -2 -3 -5 -6 -7 -7 -8 -11 -15 -27 -24 -25 -25 -24 -22 -22 -21 -21 -20 -19 -19 -17 -18 -19 -19 -18 -17 -15 -13 -11 -10 -10 -10 -11 -11
-3 -2 -1 1 0 0 0 0 -1 -2 -3 -4 -6 -7 -8 -11 -16 -26 -23 -26 -23 -21 -21 -20 -20 -20 -20 -20 -20 -19 -18 -17 -18 -17 -15 -12 -9 -8 -8 -8 -8 -9 -9
-2 -1 -1 -0 1 0 0 0 -1 -2 -2 -3 -5 -7 -8 -12 -19 -24 -25 -22 -21 -20 -20 -19 -19 -18 -17 -16 -15 -14 -12 -12 -13 -13 -14 -13 -11 -9 -9 -8 -7 -7 -8
-2 -1 -1 -1 0 1 0 0 -1 -2 -2 -3 -5 -7 -8 -12 -23 -23 -23 -20 -20 -19 -19 -18 -17 -17 -16 -15 -14 -10 -10 -10 -11 -11 -11 -11 -11 -12 -11 -8 -6 -6 -7
-6 -5 -4 -2 -1 0 0 -0 -1 -2 -2 -3 -5 -6 -9 -13 -23 -24 -21 -20 -20 -19 -19 -17 -16 -16 -15 -15 -13 -10 -11 -11 -12 -12 -10 -10 -9 -10 -8 -7 -6 -6 -8
-4 -5 -5 -5 -1 0 0 -1 -1 -2 -2 -3 -5 -6 -11 -18 -23 -24 -21 -22 -21 -21 -21 -19 -17 -15 -15 -14 -14 -14 -14 -14 -13 -12 -9 -8 -8 -7 -7 -7 -7 -7 -9
-5 -4 -3 -3 -2 -1 -1 -1 -2 -2 -2 -4 -6 -7 -12 -22 -23 -22 -21 -21 -20 -21 -21 -20 -17 -15 -14 -14 -13 -13 -13 -11 -9 -8 -9 -9 -10 -8 -7 -7 -6 -6 -7
-5 -4 -3 -3 -2 -1 -1 -1 -2 -2 -3 -5 -6 -11 -19 -23 -23 -21 -20 -20 -20 -20 -20 -19 -17 -14 -13 -13 -13 -12 -10 -8 -8 -8 -9 -10 -9 -8 -8 -8 -8 -7 -7
-5 -3 -2 -2 -2 -1 -1 -2 -2 -3 -4 -6 -8 -13 -22 -23 -20 -19 -18 -19 -19 -19 -18 -18 -16 -14 -12 -12 -11 -10 -10 -9 -8 -9 -9 -8 -10 -9 -9 -10 -9 -8 -9
-6 -4 -2 -2 -2 -2 -2 -2 -3 -4 -5 -6 -11 -20 -23 -21 -19 -18 -18 -19 -18 -18 -18 -16 -15 -13 -12 -11 -10 -10 -9 -9 -10 -10 -10 -10 -9 -9 -10 -11 -11 -11 -11
-6 -5 -3 -2 -2 -2 -2 -3 -3 -4 -6 -9 -16 -22 -22 -20 -19 -18 -18 -19 -18 -17 -16 -15 -12 -12 -12 -10 -8 -8 -9 -9 -9 -9 -9 -10 -11 -13 -12 -11 -10 -9 -9
-6 -5 -3 -2 -2 -2 -3 -4 -4 -5 -7 -12 -21 -22 -21 -20 -19 -18 -19 -18 -18 -16 -16 -15 -13 -12 -10 -9 -9 -9 -9 -9 -9 -9 -11 -13 -13 -13 -12 -11 -11 -12 -12

GFSMW_850_dewp_123.txt.gz
Dewpoint
1 1 1 -0 -1 1 1 1 1 1 -0 -4 -6 -6 -3 -1 -1 -1 -1 -3 -4 -3 -3 -5 -6 -5 -3 3 5 8 10 11 10 10 11 10 11 11 11 10 9 8 10
1 1 -1 -1 1 2 2 2 2 2 2 -1 -2 0 0 1 2 2 2 2 1 1 -1 0 1 -1 -2 -7 -1 7 10 9 10 10 11 11 11 10 9 9 9 9 10
0 -1 -1 0 1 2 2 2 2 3 2 2 2 2 1 1 0 1 1 1 3 3 2 2 5 5 4 1 -6 4 9 10 10 9 10 10 9 7 7 7 8 9 10
-0 -2 -1 0 1 2 2 2 2 3 2 3 3 3 3 3 3 3 3 3 3 3 2 4 5 6 7 7 6 3 7 9 10 10 10 10 9 9 9 9 8 8 8
-2 -2 -1 -0 1 2 2 1 2 2 2 3 3 3 3 2 2 3 3 3 3 3 4 5 5 5 6 8 8 8 7 6 9 9 10 9 8 10 10 10 9 9 9
-2 -1 -1 -0 1 2 2 1 2 1 2 1 0 0 0 1 2 1 2 3 2 4 4 4 5 5 6 5 5 6 7 6 8 9 9 9 9 10 9 10 10 9 9
-2 -2 -1 -0 1 2 1 1 1 1 0 -0 1 2 2 0 -2 -5 -7 -3 -1 1 2 3 3 4 4 5 5 4 5 6 5 4 5 6 8 9 9 9 9 9 8
-2 -2 -2 -1 0 1 1 1 2 2 1 1 2 1 1 -3 -4 -7 -10 -11 -11 -11 -13 -9 1 3 4 2 2 5 5 5 6 4 5 6 5 7 7 8 8 7 7
-2 -2 -2 -2 -0 0 1 2 2 1 1 1 0 -4 -8 -11 -13 -14 -16 -18 -20 -20 -19 -19 -18 -17 -6 0 1 -1 1 2 3 4 4 4 4 5 6 6 6 6 6
-2 -3 -2 -2 -1 -0 1 2 2 2 1 -3 -8 -9 -10 -12 -14 -16 -19 -24 -28 -28 -28 -28 -26 -25 -23 -21 -18 -11 -7 -3 1 0 1 -1 -2 -3 -4 -4 -2 -2 1
-3 -3 -2 -2 -1 -1 0 1 1 1 -3 -8 -8 -9 -10 -12 -13 -16 -20 -29 -29 -26 -24 -23 -24 -25 -25 -25 -25 -24 -22 -22 -21 -20 -18 -17 -15 -13 -10 -6 -3 -1 -2
-3 -3 -2 -1 -1 -2 -1 -1 -0 -2 -6 -7 -7 -7 -8 -10 -12 -15 -21 -29 -26 -24 -25 -26 -24 -23 -23 -22 -21 -22 -25 -25 -24 -22 -20 -18 -18 -18 -19 -19 -20 -20 -17
-3 -3 -1 -1 -1 -1 -1 -2 -1 -3 -6 -7 -7 -7 -7 -8 -10 -14 -21 -28 -24 -26 -26 -26 -25 -23 -23 -23 -23 -21 -18 -19 -22 -23 -23 -21 -19 -18 -17 -17 -16 -15 -14
-4 -4 -2 -0 -0 -1 -1 -1 -2 -2 -3 -5 -6 -6 -7 -7 -9 -13 -22 -26 -25 -26 -23 -22 -22 -21 -21 -20 -19 -19 -19 -20 -20 -20 -19 -18 -17 -17 -15 -15 -14 -13 -13
-5 -5 -4 -3 -1 0 -1 -1 -0 -1 -2 -3 -4 -6 -7 -7 -8 -12 -22 -24 -26 -23 -21 -20 -19 -19 -19 -19 -19 -18 -16 -16 -16 -16 -16 -14 -11 -10 -9 -7 -9 -9 -11
-6 -7 -4 -3 -2 -1 0 -0 -0 0 -1 -2 -3 -5 -6 -7 -8 -12 -23 -24 -24 -22 -21 -21 -20 -19 -18 -18 -18 -18 -15 -15 -15 -14 -14 -13 -11 -10 -9 -9 -8 -8 -8
-8 -7 -4 -2 -1 -0 0 0 -0 0 0 -2 -3 -4 -5 -6 -8 -12 -23 -24 -23 -22 -21 -21 -19 -18 -17 -16 -14 -11 -12 -12 -12 -12 -12 -13 -12 -12 -13 -11 -9 -6 -6
-8 -6 -4 -4 -3 -2 0 1 1 1 -0 -2 -2 -3 -5 -6 -8 -13 -23 -24 -22 -22 -22 -21 -19 -18 -16 -15 -14 -12 -13 -12 -12 -13 -14 -13 -12 -11 -10 -8 -10 -8 -7
-7 -5 -5 -6 -6 -5 -1 0 1 1 -0 -2 -2 -3 -5 -6 -8 -14 -24 -25 -22 -22 -21 -21 -19 -18 -16 -15 -14 -14 -14 -14 -14 -13 -13 -11 -10 -10 -8 -7 -8 -7 -7
-6 -5 -4 -5 -5 -6 -3 0 0 1 -0 -2 -2 -3 -5 -7 -10 -19 -24 -23 -22 -21 -21 -21 -19 -18 -16 -15 -14 -14 -14 -14 -14 -13 -12 -11 -11 -9 -7 -7 -7 -8 -8
-5 -5 -6 -5 -4 -4 -2 -0 0 0 -1 -2 -3 -4 -6 -7 -12 -23 -24 -21 -21 -20 -21 -21 -20 -19 -16 -14 -13 -13 -13 -12 -11 -10 -10 -10 -11 -8 -7 -7 -8 -8 -8
-6 -6 -5 -5 -4 -3 -2 -1 -1 -1 -2 -2 -3 -4 -6 -9 -17 -23 -22 -21 -20 -20 -20 -20 -19 -18 -15 -13 -12 -12 -10 -8 -8 -9 -9 -10 -8 -8 -8 -8 -8 -8 -8
-6 -5 -5 -5 -4 -3 -3 -2 -1 -2 -2 -2 -4 -5 -7 -12 -22 -23 -21 -20 -19 -20 -20 -20 -19 -18 -16 -13 -12 -11 -10 -9 -8 -8 -10 -8 -8 -8 -9 -11 -9 -9 -10
-5 -5 -5 -6 -5 -3 -2 -2 -2 -2 -3 -3 -4 -6 -9 -17 -23 -22 -20 -19 -19 -20 -20 -20 -18 -17 -17 -14 -12 -9 -9 -9 -9 -10 -9 -9 -10 -11 -12 -14 -14 -12 -10
-5 -4 -4 -5 -6 -2 -2 -2 -2 -3 -3 -4 -5 -7 -12 -22 -22 -21 -19 -19 -19 -20 -20 -19 -18 -17 -17 -13 -9 -8 -8 -8 -9 -8 -9 -11 -12 -14 -14 -14 -13 -13 -12
-4 -3 -4 -5 -5 -3 -2 -2 -2 -3 -4 -5 -6 -9 -17 -22 -21 -20 -18 -19 -19 -19 -18 -17 -17 -18 -15 -11 -9 -8 -8 -9 -9 -9 -11 -13 -12 -12 -13 -13 -13 -13 -13

GFSMW_850_dewp_126.txt.gz
Dewpoint
1 1 0 -0 -2 -1 0 1 1 0 0 -1 -3 -3 -4 -4 -3 -2 -1 -2 -1 -1 -1 -1 -1 -2 -3 -3 -2 -4 -5 -1 4 10 10 10 10 10 10 11 10 10 11
1 1 0 -2 -2 -1 1 1 1 1 1 1 1 2 2 2 2 2 2 2 2 2 2 1 0 1 3 4 6 6 3 2 0 10 10 10 10 9 10 10 10 11 10
1 0 -1 -2 -1 0 1 2 1 1 2 2 2 2 2 3 2 2 2 3 3 3 3 3 2 4 4 5 6 7 8 8 8 9 10 9 10 10 9 9 10 10 9
0 -1 -2 -3 -1 1 1 1 1 2 2 2 2 2 1 1 2 2 2 3 3 4 4 4 4 5 4 5 5 6 6 8 9 9 8 9 10 9 8 8 7 7 8
-0 -2 -3 -3 -2 1 1 1 2 1 1 1 -0 0 1 1 -0 -2 -0 2 2 3 4 4 4 4 5 5 5 5 6 6 8 8 9 9 9 10 9 9 9 9 9
-1 -3 -4 -3 -2 1 1 1 1 -0 -0 -1 0 1 1 -1 -2 -3 -4 -5 -4 -7 -7 -3 2 3 4 4 4 5 5 6 7 7 7 8 7 6 7 8 9 9 8
-2 -4 -4 -4 -3 -0 1 1 1 0 0 0 1 1 0 -4 -7 -11 -14 -15 -16 -15 -13 -11 -10 -8 -1 3 3 1 4 5 5 5 6 6 6 4 3 3 5 9 9
-4 -4 -4 -4 -3 -2 -0 1 1 1 1 1 1 -1 -7 -10 -12 -14 -16 -19 -23 -26 -27 -27 -27 -23 -19 -17 -3 2 -0 1 4 5 5 5 4 4 4 4 4 5 7
-4 -4 -4 -4 -4 -3 -1 0 1 2 1 1 -1 -7 -8 -10 -12 -14 -16 -21 -28 -31 -31 -30 -28 -28 -27 -26 -24 -22 -5 -1 -1 1 2 3 3 4 4 4 4 4 5
-4 -5 -5 -4 -3 -3 -2 -1 1 1 1 1 -6 -7 -8 -9 -10 -12 -15 -21 -29 -29 -26 -26 -27 -26 -26 -24 -23 -22 -23 -22 -19 -15 -8 -4 -1 1 1 1 0 -1 1
-3 -4 -4 -4 -3 -2 -2 -1 -0 0 1 -2 -7 -7 -7 -8 -9 -10 -13 -19 -28 -26 -27 -29 -28 -28 -27 -25 -24 -23 -23 -23 -23 -23 -24 -22 -20 -19 -18 -16 -15 -11 -5
-2 -3 -3 -3 -2 -2 -2 -1 -1 -1 -1 -4 -7 -7 -7 -7 -7 -9 -11 -17 -26 -25 -27 -26 -24 -23 -23 -23 -23 -22 -21 -22 -23 -24 -23 -23 -24 -23 -22 -20 -18 -17 -16
-2 -3 -3 -4 -3 -2 -2 -2 -2 -2 -1 -3 -5 -7 -7 -7 -7 -7 -9 -14 -25 -26 -26 -23 -23 -22 -21 -21 -20 -20 -20 -20 -21 -21 -22 -22 -21 -20 -19 -17 -16 -15 -15
-4 -4 -5 -5 -5 -4 -1 -1 -1 -1 -1 -2 -3 -5 -6 -7 -7 -7 -8 -13 -23 -26 -25 -23 -21 -21 -20 -19 -18 -16 -16 -17 -17 -18 -18 -18 -17 -17 -16 -14 -11 -11 -11
-5 -5 -5 -6 -6 -4 -3 -1 -0 -1 -1 -1 -2 -3 -4 -6 -6 -7 -8 -12 -23 -26 -24 -23 -22 -21 -20 -18 -18 -16 -14 -12 -13 -13 -14 -14 -14 -12 -11 -11 -11 -10 -9
-6 -6 -6 -8 -7 -4 -3 -1 -1 -0 -0 -0 -1 -2 -3 -4 -6 -6 -8 -12 -23 -25 -23 -22 -22 -21 -20 -18 -16 -13 -12 -11 -12 -12 -12 -12 -12 -13 -13 -12 -11 -6 -6
-6 -6 -8 -8 -6 -4 -2 -0 -0 0 0 0 0 -0 -3 -3 -5 -6 -7 -12 -23 -25 -22 -22 -21 -20 -19 -18 -16 -16 -14 -13 -12 -13 -13 -14 -13 -12 -11 -11 -11 -10 -8
-6 -6 -8 -6 -6 -6 -6 -4 -1 0 1 0 1 1 -2 -3 -4 -6 -8 -13 -23 -24 -23 -22 -22 -21 -19 -17 -15 -14 -15 -15 -14 -14 -14 -14 -14 -13 -11 -9 -8 -9 -8
-6 -8 -7 -5 -5 -5 -5 -6 -4 -1 1 1 1 0 -2 -3 -4 -6 -8 -14 -23 -23 -22 -21 -21 -21 -20 -18 -16 -15 -15 -15 -14 -14 -13 -12 -12 -12 -11 -8 -9 -9 -10
-8 -7 -6 -5 -5 -6 -6 -5 -5 -2 1 1 1 -0 -2 -3 -4 -6 -8 -16 -24 -22 -22 -21 -21 -21 -20 -19 -16 -14 -14 -14 -13 -12 -11 -11 -10 -10 -8 -7 -7 -8 -8
-7 -6 -6 -6 -6 -6 -5 -5 -4 -2 0 1 0 -2 -2 -3 -5 -6 -9 -20 -23 -21 -21 -20 -20 -21 -20 -19 -17 -14 -13 -12 -11 -8 -9 -10 -10 -8 -7 -7 -8 -8 -8
-7 -6 -5 -5 -6 -5 -5 -4 -4 -2 -0 0 -1 -2 -2 -3 -5 -7 -12 -22 -23 -21 -20 -20 -20 -20 -19 -18 -16 -13 -12 -8 -8 -8 -8 -9 -8 -8 -8 -8 -8 -8 -8
-5 -6 -5 -5 -5 -5 -5 -4 -4 -2 -1 -1 -2 -2 -2 -4 -6 -8 -17 -23 -21 -20 -19 -20 -20 -20 -19 -18 -17 -14 -12 -10 -8 -8 -8 -8 -8 -8 -9 -12 -14 -12 -13
-5 -5 -5 -5 -5 -4 -4 -5 -2 -2 -2 -2 -2 -2 -4 -5 -6 -11 -21 -22 -21 -19 -19 -20 -20 -20 -19 -19 -17 -13 -9 -9 -9 -9 -9 -9 -9 -11 -13 -13 -14 -14 -13
-5 -4 -4 -4 -4 -4 -5 -5 -2 -2 -2 -2 -3 -4 -4 -6 -8 -15 -22 -21 -20 -19 -20 -20 -20 -20 -20 -19 -17 -9 -8 -8 -8 -8 -9 -10 -11 -13 -13 -13 -13 -13 -13
-4 -4 -4 -4 -4 -4 -4 -4 -2 -2 -2 -3 -3 -4 -5 -6 -10 -19 -21 -20 -19 -19 -19 -21 -20 -19 -19 -19 -14 -8 -8 -8 -8 -9 -10 -12 -12 -12 -12 -12 -11 -11 -11